| time (UTC) | temp F | wind direction | speed knots | gust knots | rain 1hr in | rain 24hr in | rain mn in | humidity % | barometer mb |
| 20260507142904 | 60 | 192 | 4.3 | 13.0 | 0.00 | 0.00 | 0.00 | 1 | 1018.5 |
| 20260507142804 | 60 | 192 | 3.5 | 13.0 | 0.00 | 0.00 | 0.00 | 1 | 1018.6 |
| 20260507142704 | 60 | 191 | 3.5 | 13.0 | 0.00 | 0.00 | 0.00 | 1 | 1018.6 |
| 20260507142625 | 60 | 195 | 2.6 | 13.0 | 0.00 | 0.00 | 0.00 | 1 | 1018.7 |
| 20260507142504 | 60 | 192 | 2.6 | 7.8 | 0.00 | 0.00 | 0.00 | 1 | 1018.7 |
| 20260507142404 | 60 | 195 | 1.7 | 7.8 | 0.00 | 0.00 | 0.00 | 1 | 1018.7 |
| 20260507142306 | 60 | 192 | 1.7 | 7.8 | 0.00 | 0.00 | 0.00 | 1 | 1018.7 |
| 20260507142204 | 60 | 183 | 0.9 | 7.8 | 0.00 | 0.00 | 0.00 | 1 | 1018.7 |
| 20260507142104 | 60 | 178 | 0.9 | 7.8 | 0.00 | 0.00 | 0.00 | 1 | 1018.7 |
| 20260507142025 | 60 | 178 | 0.9 | 7.8 | 0.00 | 0.00 | 0.00 | 1 | 1018.7 |
| 20260507141904 | 60 | 183 | 1.7 | 8.7 | 0.00 | 0.00 | 0.00 | 1 | 1018.7 |
| 20260507141804 | 60 | 183 | 1.7 | 8.7 | 0.00 | 0.00 | 0.00 | 1 | 1018.8 |
| 20260507141704 | 60 | 183 | 1.7 | 8.7 | 0.00 | 0.00 | 0.00 | 1 | 1018.7 |
| 20260507141604 | 60 | 186 | 1.7 | 10.4 | 0.00 | 0.00 | 0.00 | 1 | 1018.8 |
| 20260507141504 | 60 | 191 | 1.7 | 10.4 | 0.00 | 0.00 | 0.00 | 1 | 1018.8 |
| 20260507141404 | 60 | 191 | 2.6 | 10.4 | 0.00 | 0.00 | 0.00 | 1 | 1018.8 |
| 20260507141304 | 60 | 189 | 2.6 | 10.4 | 0.00 | 0.00 | 0.00 | 1 | 1018.9 |
| 20260507141204 | 60 | 187 | 2.6 | 10.4 | 0.00 | 0.00 | 0.00 | 1 | 1018.9 |
| 20260507141104 | 60 | 188 | 2.6 | 10.4 | 0.00 | 0.00 | 0.00 | 1 | 1018.8 |
| 20260507141004 | 60 | 188 | 2.6 | 10.4 | 0.00 | 0.00 | 0.00 | 1 | 1018.8 |
| 20260507140925 | 60 | 186 | 1.7 | 10.4 | 0.00 | 0.00 | 0.00 | 1 | 1018.8 |
| 20260507140804 | 60 | 187 | 1.7 | 10.4 | 0.00 | 0.00 | 0.00 | 1 | 1018.9 |
| 20260507140704 | 60 | 187 | 1.7 | 10.4 | 0.00 | 0.00 | 0.00 | 1 | 1018.9 |
| 20260507140604 | 60 | 184 | 1.7 | 9.6 | 0.00 | 0.00 | 0.00 | 1 | 1019.0 |
| 20260507140525 | 60 | 182 | 1.7 | 9.6 | 0.00 | 0.00 | 0.00 | 1 | 1018.9 |
| 20260507140404 | 60 | 179 | 0.9 | 8.7 | 0.00 | 0.00 | 0.00 | 1 | 1018.9 |
| 20260507140304 | 60 | 184 | 0.9 | 8.7 | 0.00 | 0.00 | 0.00 | 1 | 1018.9 |
| 20260507140204 | 60 | 185 | 1.7 | 8.7 | 0.00 | 0.00 | 0.00 | 1 | 1018.8 |
| 20260507140104 | 60 | 179 | 1.7 | 11.3 | 0.00 | 0.00 | 0.00 | 1 | 1018.8 |
| 20260507140004 | 60 | 178 | 2.6 | 11.3 | 0.00 | 0.00 | 0.00 | 1 | 1018.7 |
| 20260507135904 | 60 | 179 | 2.6 | 11.3 | 0.00 | 0.00 | 0.00 | 1 | 1018.6 |
| 20260507135804 | 60 | 179 | 3.5 | 13.9 | 0.00 | 0.00 | 0.00 | 1 | 1018.5 |
| 20260507135704 | 60 | 178 | 4.3 | 13.9 | 0.00 | 0.00 | 0.00 | 1 | 1018.3 |
| 20260507135604 | 60 | 179 | 5.2 | 13.9 | 0.00 | 0.00 | 0.00 | 1 | 1018.3 |
| 20260507135504 | 60 | 180 | 5.2 | 13.9 | 0.00 | 0.00 | 0.00 | 1 | 1018.2 |
| 20260507135404 | 60 | 183 | 6.1 | 13.9 | 0.00 | 0.00 | 0.00 | 1 | 1018.2 |
| 20260507135306 | 60 | 184 | 7.0 | 13.9 | 0.00 | 0.00 | 0.00 | 1 | 1018.2 |
| 20260507135204 | 60 | 186 | 7.0 | 13.9 | 0.00 | 0.00 | 0.00 | 1 | 1018.1 |
| 20260507135104 | 60 | 187 | 7.8 | 16.5 | 0.00 | 0.00 | 0.00 | 1 | 1018.2 |
| 20260507135004 | 60 | 188 | 7.8 | 16.5 | 0.00 | 0.00 | 0.00 | 1 | 1018.1 |
| 20260507134904 | 60 | 187 | 7.8 | 16.5 | 0.00 | 0.00 | 0.00 | 1 | 1018.2 |
| 20260507134825 | 60 | 187 | 7.8 | 16.5 | 0.00 | 0.00 | 0.00 | 1 | 1018.1 |
| 20260507134704 | 60 | 187 | 7.0 | 16.5 | 0.00 | 0.00 | 0.00 | 1 | 1018.2 |
| 20260507134625 | 60 | 187 | 6.1 | 16.5 | 0.00 | 0.00 | 0.00 | 1 | 1018.2 |
| 20260507134504 | 60 | 187 | 6.1 | 16.5 | 0.00 | 0.00 | 0.00 | 1 | 1018.2 |
| 20260507134404 | 60 | 186 | 5.2 | 16.5 | 0.00 | 0.00 | 0.00 | 1 | 1018.3 |
| 20260507134304 | 60 | 185 | 5.2 | 16.5 | 0.00 | 0.00 | 0.00 | 1 | 1018.2 |
| 20260507134204 | 60 | 181 | 4.3 | 16.5 | 0.00 | 0.00 | 0.00 | 1 | 1018.3 |
| 20260507134125 | 60 | 179 | 3.5 | 15.6 | 0.00 | 0.00 | 0.00 | 1 | 1018.3 |
| 20260507134004 | 60 | 176 | 2.6 | 14.8 | 0.00 | 0.00 | 0.00 | 1 | 1018.2 |
| 20260507133904 | 60 | 174 | 2.6 | 14.8 | 0.00 | 0.00 | 0.00 | 1 | 1018.2 |
| 20260507133804 | 60 | 175 | 2.6 | 14.8 | 0.00 | 0.00 | 0.00 | 1 | 1018.2 |
| 20260507133725 | 60 | 175 | 2.6 | 14.8 | 0.00 | 0.00 | 0.00 | 1 | 1018.2 |
| 20260507133604 | 60 | 177 | 2.6 | 14.8 | 0.00 | 0.00 | 0.00 | 1 | 1018.3 |
| 20260507133525 | 60 | 178 | 2.6 | 14.8 | 0.00 | 0.00 | 0.00 | 1 | 1018.2 |
| 20260507133404 | 60 | 178 | 2.6 | 14.8 | 0.00 | 0.00 | 0.00 | 1 | 1018.2 |
| 20260507133304 | 60 | 179 | 2.6 | 14.8 | 0.00 | 0.00 | 0.00 | 1 | 1018.2 |
| 20260507133204 | 61 | 180 | 2.6 | 15.6 | 0.00 | 0.00 | 0.00 | 1 | 1018.2 |
| 20260507133104 | 61 | 188 | 2.6 | 15.6 | 0.00 | 0.00 | 0.00 | 1 | 1018.2 |
| 20260507133025 | 61 | 190 | 3.5 | 15.6 | 0.00 | 0.00 | 0.00 | 1 | 1018.2 |
| 20260507132925 | 61 | 193 | 3.5 | 15.6 | 0.00 | 0.00 | 0.00 | 1 | 1018.2 |
| 20260507132804 | 60 | 193 | 4.3 | 15.6 | 0.00 | 0.00 | 0.00 | 1 | 1018.2 |
| 20260507132704 | 60 | 191 | 5.2 | 15.6 | 0.00 | 0.00 | 0.00 | 1 | 1018.2 |
| 20260507132604 | 60 | 193 | 5.2 | 15.6 | 0.00 | 0.00 | 0.00 | 1 | 1018.3 |
| 20260507132525 | 60 | 192 | 6.1 | 15.6 | 0.00 | 0.00 | 0.00 | 1 | 1018.2 |
| 20260507132425 | 60 | 194 | 7.0 | 15.6 | 0.00 | 0.00 | 0.00 | 1 | 1018.2 |
| 20260507132307 | 60 | 193 | 7.8 | 15.6 | 0.00 | 0.00 | 0.00 | 1 | 1018.2 |
| 20260507132205 | 60 | 192 | 7.8 | 15.6 | 0.00 | 0.00 | 0.00 | 1 | 1018.2 |
| 20260507132125 | 60 | 191 | 7.8 | 15.6 | 0.00 | 0.00 | 0.00 | 1 | 1018.3 |
| 20260507132004 | 60 | 188 | 7.8 | 15.6 | 0.00 | 0.00 | 0.00 | 1 | 1018.3 |
| 20260507131905 | 60 | 187 | 7.8 | 15.6 | 0.00 | 0.00 | 0.00 | 1 | 1018.3 |
| 20260507131825 | 60 | 186 | 7.8 | 15.6 | 0.00 | 0.00 | 0.00 | 1 | 1018.4 |
| 20260507131704 | 60 | 186 | 7.0 | 15.6 | 0.00 | 0.00 | 0.00 | 1 | 1018.4 |
| 20260507131604 | 60 | 184 | 7.0 | 15.6 | 0.00 | 0.00 | 0.00 | 1 | 1018.4 |
| 20260507131504 | 60 | 183 | 7.0 | 15.6 | 0.00 | 0.00 | 0.00 | 1 | 1018.5 |
| 20260507131404 | 60 | 179 | 6.1 | 15.6 | 0.00 | 0.00 | 0.00 | 1 | 1018.5 |
| 20260507131304 | 60 | 180 | 5.2 | 14.8 | 0.00 | 0.00 | 0.00 | 1 | 1018.6 |
| 20260507131204 | 60 | 182 | 5.2 | 13.9 | 0.00 | 0.00 | 0.00 | 1 | 1018.6 |
| 20260507131104 | 60 | 181 | 5.2 | 13.9 | 0.00 | 0.00 | 0.00 | 1 | 1018.6 |
| 20260507131004 | 60 | 182 | 6.1 | 13.9 | 0.00 | 0.00 | 0.00 | 1 | 1018.6 |
| 20260507130904 | 60 | 183 | 6.1 | 13.9 | 0.00 | 0.00 | 0.00 | 1 | 1018.6 |
| 20260507130804 | 60 | 185 | 6.1 | 13.9 | 0.00 | 0.00 | 0.00 | 1 | 1018.6 |
| 20260507130704 | 60 | 185 | 6.1 | 13.9 | 0.00 | 0.00 | 0.00 | 1 | 1018.6 |
| 20260507130604 | 60 | 186 | 6.1 | 13.9 | 0.00 | 0.00 | 0.00 | 1 | 1018.5 |
| 20260507130504 | 60 | 186 | 7.0 | 14.8 | 0.00 | 0.00 | 0.00 | 1 | 1018.4 |
| 20260507130404 | 60 | 186 | 7.0 | 14.8 | 0.00 | 0.00 | 0.00 | 1 | 1018.4 |
| 20260507130304 | 60 | 186 | 6.1 | 14.8 | 0.00 | 0.00 | 0.00 | 1 | 1018.3 |
| 20260507130204 | 60 | 185 | 5.2 | 14.8 | 0.00 | 0.00 | 0.00 | 1 | 1018.2 |
| 20260507130104 | 60 | 185 | 5.2 | 14.8 | 0.00 | 0.00 | 0.00 | 1 | 1018.1 |
| 20260507130004 | 60 | 184 | 5.2 | 14.8 | 0.00 | 0.00 | 0.00 | 1 | 1018.1 |
| 20260507125904 | 60 | 183 | 5.2 | 14.8 | 0.00 | 0.00 | 0.00 | 1 | 1018.1 |
| 20260507125804 | 60 | 180 | 4.3 | 14.8 | 0.00 | 0.00 | 0.00 | 1 | 1018.1 |
| 20260507125704 | 60 | 180 | 4.3 | 14.8 | 0.00 | 0.00 | 0.00 | 1 | 1018.2 |
| 20260507125604 | 60 | 180 | 4.3 | 14.8 | 0.00 | 0.00 | 0.00 | 1 | 1018.3 |
| 20260507125504 | 60 | 178 | 4.3 | 13.0 | 0.00 | 0.00 | 0.00 | 1 | 1018.3 |
| 20260507125404 | 60 | 181 | 5.2 | 13.0 | 0.00 | 0.00 | 0.00 | 1 | 1018.3 |
| 20260507125306 | 60 | 183 | 6.1 | 13.0 | 0.00 | 0.00 | 0.00 | 1 | 1018.4 |
| 20260507125204 | 60 | 186 | 6.1 | 13.0 | 0.00 | 0.00 | 0.00 | 1 | 1018.4 |
| 20260507125104 | 60 | 185 | 7.0 | 13.0 | 0.00 | 0.00 | 0.00 | 1 | 1018.5 |
| 20260507125025 | 60 | 185 | 7.0 | 13.0 | 0.00 | 0.00 | 0.00 | 1 | 1018.5 |
| 20260507124904 | 60 | 186 | 7.0 | 13.0 | 0.00 | 0.00 | 0.00 | 1 | 1018.5 |
| 20260507124804 | 60 | 187 | 6.1 | 13.0 | 0.00 | 0.00 | 0.00 | 1 | 1018.4 |
| 20260507124704 | 60 | 188 | 7.0 | 13.0 | 0.00 | 0.00 | 0.00 | 1 | 1018.4 |
| 20260507124604 | 60 | 188 | 6.1 | 13.0 | 0.00 | 0.00 | 0.00 | 1 | 1018.4 |
| 20260507124504 | 60 | 188 | 6.1 | 13.0 | 0.00 | 0.00 | 0.00 | 1 | 1018.4 |
| 20260507124404 | 60 | 183 | 6.1 | 13.0 | 0.00 | 0.00 | 0.00 | 1 | 1018.5 |
| 20260507124304 | 60 | 179 | 6.1 | 13.0 | 0.00 | 0.00 | 0.00 | 1 | 1018.6 |
| 20260507124204 | 60 | 175 | 6.1 | 13.0 | 0.00 | 0.00 | 0.00 | 1 | 1018.5 |
| 20260507124104 | 60 | 174 | 6.1 | 13.0 | 0.00 | 0.00 | 0.00 | 1 | 1018.5 |
| 20260507124004 | 60 | 173 | 7.0 | 13.9 | 0.00 | 0.00 | 0.00 | 1 | 1018.4 |
| 20260507123904 | 60 | 172 | 7.0 | 13.9 | 0.00 | 0.00 | 0.00 | 1 | 1018.3 |
| 20260507123804 | 60 | 169 | 7.8 | 13.9 | 0.00 | 0.00 | 0.00 | 1 | 1018.3 |
| 20260507123704 | 60 | 169 | 7.8 | 13.9 | 0.00 | 0.00 | 0.00 | 1 | 1018.3 |
| 20260507123604 | 60 | 168 | 7.0 | 13.9 | 0.00 | 0.00 | 0.00 | 1 | 1018.3 |
| 20260507123504 | 60 | 167 | 7.0 | 13.9 | 0.00 | 0.00 | 0.00 | 1 | 1018.3 |
| 20260507123404 | 60 | 169 | 7.8 | 13.9 | 0.00 | 0.00 | 0.00 | 1 | 1018.3 |
| 20260507123304 | 60 | 171 | 7.0 | 13.9 | 0.00 | 0.00 | 0.00 | 1 | 1018.3 |
| 20260507123204 | 60 | 171 | 6.1 | 13.9 | 0.00 | 0.00 | 0.00 | 1 | 1018.3 |
| 20260507123125 | 60 | 171 | 6.1 | 13.9 | 0.00 | 0.00 | 0.00 | 1 | 1018.3 |
| 20260507123004 | 60 | 173 | 6.1 | 13.0 | 0.00 | 0.00 | 0.00 | 1 | 1018.3 |
| 20260507122904 | 60 | 174 | 5.2 | 13.0 | 0.00 | 0.00 | 0.00 | 1 | 1018.3 |
| 20260507122804 | 60 | 176 | 5.2 | 13.0 | 0.00 | 0.00 | 0.00 | 1 | 1018.3 |
| 20260507122705 | 60 | 175 | 5.2 | 13.0 | 0.00 | 0.00 | 0.00 | 1 | 1018.3 |
| 20260507122604 | 60 | 176 | 5.2 | 13.0 | 0.00 | 0.00 | 0.00 | 1 | 1018.3 |
| 20260507122504 | 60 | 178 | 5.2 | 13.0 | 0.00 | 0.00 | 0.00 | 1 | 1018.3 |
| 20260507122404 | 60 | 180 | 5.2 | 13.0 | 0.00 | 0.00 | 0.00 | 1 | 1018.2 |
| 20260507122325 | 60 | 178 | 5.2 | 13.0 | 0.00 | 0.00 | 0.00 | 1 | 1018.2 |
| 20260507122205 | 60 | 179 | 6.1 | 11.3 | 0.00 | 0.00 | 0.00 | 1 | 1018.1 |
| 20260507122104 | 60 | 178 | 6.1 | 13.9 | 0.00 | 0.00 | 0.00 | 1 | 1018.0 |
| 20260507122004 | 60 | 179 | 6.1 | 13.9 | 0.00 | 0.00 | 0.00 | 1 | 1018.0 |
| 20260507121904 | 60 | 180 | 5.2 | 13.9 | 0.00 | 0.00 | 0.00 | 1 | 1017.9 |
| 20260507121804 | 60 | 180 | 5.2 | 13.9 | 0.00 | 0.00 | 0.00 | 1 | 1017.9 |
| 20260507121704 | 60 | 182 | 5.2 | 13.9 | 0.00 | 0.00 | 0.00 | 1 | 1017.9 |
| 20260507121604 | 60 | 183 | 5.2 | 13.9 | 0.00 | 0.00 | 0.00 | 1 | 1017.8 |
| 20260507121504 | 60 | 183 | 5.2 | 13.9 | 0.00 | 0.00 | 0.00 | 1 | 1017.8 |
| 20260507121425 | 60 | 182 | 5.2 | 13.9 | 0.00 | 0.00 | 0.00 | 1 | 1017.7 |
| 20260507121304 | 60 | 181 | 4.3 | 13.9 | 0.00 | 0.00 | 0.00 | 1 | 1017.6 |
| 20260507121225 | 60 | 181 | 4.3 | 13.9 | 0.00 | 0.00 | 0.00 | 1 | 1017.5 |
| 20260507121104 | 60 | 181 | 3.5 | 11.3 | 0.00 | 0.00 | 0.00 | 1 | 1017.5 |
| 20260507121004 | 60 | 183 | 2.6 | 9.6 | 0.00 | 0.00 | 0.00 | 1 | 1017.5 |
| 20260507120904 | 60 | 181 | 2.6 | 9.6 | 0.00 | 0.00 | 0.00 | 1 | 1017.4 |
| 20260507120804 | 60 | 183 | 1.7 | 9.6 | 0.00 | 0.00 | 0.00 | 1 | 1017.5 |
| 20260507120704 | 60 | 178 | 1.7 | 9.6 | 0.00 | 0.00 | 0.00 | 1 | 1017.5 |
| 20260507120604 | 60 | 171 | 0.9 | 9.6 | 0.00 | 0.00 | 0.00 | 1 | 1017.5 |
| 20260507120525 | 60 | 163 | 0.9 | 9.6 | 0.00 | 0.00 | 0.00 | 1 | 1017.7 |
| 20260507120425 | 60 | 163 | 1.7 | 9.6 | 0.00 | 0.00 | 0.00 | 1 | 1017.8 |
| 20260507120304 | 60 | 168 | 2.6 | 13.9 | 0.00 | 0.00 | 0.00 | 1 | 1017.8 |
| 20260507120204 | 60 | 166 | 3.5 | 13.9 | 0.00 | 0.00 | 0.00 | 1 | 1017.9 |
| 20260507120104 | 60 | 171 | 4.3 | 13.9 | 0.00 | 0.00 | 0.00 | 1 | 1017.9 |
| 20260507120025 | 60 | 173 | 5.2 | 13.9 | 0.00 | 0.00 | 0.00 | 1 | 1017.9 |
| 20260507115904 | 60 | 173 | 6.1 | 13.9 | 0.00 | 0.00 | 0.00 | 1 | 1017.9 |
| 20260507115804 | 60 | 172 | 6.1 | 13.9 | 0.00 | 0.00 | 0.00 | 1 | 1017.9 |
| 20260507115704 | 60 | 171 | 7.0 | 13.9 | 0.00 | 0.00 | 0.00 | 1 | 1017.8 |
| 20260507115604 | 60 | 171 | 7.8 | 13.9 | 0.00 | 0.00 | 0.00 | 1 | 1017.7 |
| 20260507115504 | 60 | 172 | 7.8 | 13.9 | 0.00 | 0.00 | 0.00 | 1 | 1017.5 |
| 20260507115404 | 60 | 171 | 7.0 | 13.0 | 0.00 | 0.00 | 0.00 | 1 | 1017.5 |
| 20260507115307 | 60 | 171 | 7.0 | 13.0 | 0.00 | 0.00 | 0.00 | 1 | 1017.5 |
| 20260507115225 | 60 | 173 | 7.0 | 13.0 | 0.00 | 0.00 | 0.00 | 1 | 1017.5 |
| 20260507115104 | 60 | 171 | 7.0 | 13.0 | 0.00 | 0.00 | 0.00 | 1 | 1017.5 |
| 20260507115004 | 60 | 170 | 7.0 | 13.0 | 0.00 | 0.00 | 0.00 | 1 | 1017.6 |
| 20260507114904 | 60 | 171 | 7.0 | 14.8 | 0.00 | 0.00 | 0.00 | 1 | 1017.6 |
| 20260507114804 | 60 | 172 | 7.0 | 14.8 | 0.00 | 0.00 | 0.00 | 1 | 1017.6 |
| 20260507114704 | 60 | 174 | 7.0 | 14.8 | 0.00 | 0.00 | 0.00 | 1 | 1017.5 |
| 20260507114604 | 60 | 174 | 6.1 | 14.8 | 0.00 | 0.00 | 0.00 | 1 | 1017.5 |
| 20260507114504 | 60 | 174 | 6.1 | 14.8 | 0.00 | 0.00 | 0.00 | 1 | 1017.5 |
| 20260507114404 | 60 | 177 | 6.1 | 14.8 | 0.00 | 0.00 | 0.00 | 1 | 1017.4 |
| 20260507114304 | 60 | 177 | 6.1 | 14.8 | 0.00 | 0.00 | 0.00 | 1 | 1017.4 |
| 20260507114204 | 60 | 173 | 6.1 | 14.8 | 0.00 | 0.00 | 0.00 | 1 | 1017.3 |
| 20260507114125 | 60 | 174 | 6.1 | 14.8 | 0.00 | 0.00 | 0.00 | 1 | 1017.3 |
| 20260507114004 | 60 | 178 | 7.0 | 14.8 | 0.00 | 0.00 | 0.00 | 1 | 1017.3 |
| 20260507113904 | 60 | 176 | 7.0 | 13.0 | 0.00 | 0.00 | 0.00 | 1 | 1017.3 |
| 20260507113804 | 60 | 175 | 7.0 | 13.0 | 0.00 | 0.00 | 0.00 | 1 | 1017.3 |
| 20260507113704 | 60 | 174 | 7.0 | 13.0 | 0.00 | 0.00 | 0.00 | 1 | 1017.3 |
| 20260507113604 | 60 | 173 | 7.0 | 13.0 | 0.00 | 0.00 | 0.00 | 1 | 1017.4 |
| 20260507113504 | 60 | 172 | 7.0 | 13.0 | 0.00 | 0.00 | 0.00 | 1 | 1017.3 |
| 20260507113404 | 60 | 172 | 7.0 | 13.9 | 0.00 | 0.00 | 0.00 | 1 | 1017.3 |
| 20260507113325 | 60 | 172 | 7.0 | 13.9 | 0.00 | 0.00 | 0.00 | 1 | 1017.3 |
| 20260507113225 | 60 | 175 | 7.0 | 13.9 | 0.00 | 0.00 | 0.00 | 1 | 1017.4 |
| 20260507113104 | 60 | 175 | 6.1 | 14.8 | 0.00 | 0.00 | 0.00 | 1 | 1017.4 |
| 20260507113004 | 60 | 171 | 6.1 | 14.8 | 0.00 | 0.00 | 0.00 | 1 | 1017.4 |
| 20260507112904 | 60 | 171 | 6.1 | 14.8 | 0.00 | 0.00 | 0.00 | 1 | 1017.4 |
| 20260507112804 | 60 | 171 | 6.1 | 14.8 | 0.00 | 0.00 | 0.00 | 1 | 1017.3 |
| 20260507112725 | 60 | 173 | 6.1 | 14.8 | 0.00 | 0.00 | 0.00 | 1 | 1017.2 |
| 20260507112625 | 60 | 173 | 7.0 | 14.8 | 0.00 | 0.00 | 0.00 | 1 | 1017.2 |
| 20260507112525 | 60 | 176 | 7.0 | 14.8 | 0.00 | 0.00 | 0.00 | 1 | 1017.2 |
| 20260507112404 | 60 | 173 | 7.0 | 14.8 | 0.00 | 0.00 | 0.00 | 1 | 1017.3 |
| 20260507112307 | 60 | 172 | 7.0 | 14.8 | 0.00 | 0.00 | 0.00 | 1 | 1017.3 |
| 20260507112204 | 60 | 171 | 7.0 | 14.8 | 0.00 | 0.00 | 0.00 | 1 | 1017.4 |
| 20260507112125 | 60 | 171 | 7.8 | 13.9 | 0.00 | 0.00 | 0.00 | 1 | 1017.3 |
| 20260507112004 | 60 | 170 | 7.8 | 13.9 | 0.00 | 0.00 | 0.00 | 1 | 1017.3 |
| 20260507111905 | 60 | 171 | 7.8 | 13.9 | 0.00 | 0.00 | 0.00 | 1 | 1017.3 |
| 20260507111805 | 60 | 171 | 7.8 | 13.9 | 0.00 | 0.00 | 0.00 | 1 | 1017.2 |
| 20260507111704 | 60 | 171 | 7.8 | 13.9 | 0.00 | 0.00 | 0.00 | 1 | 1017.2 |
| 20260507111604 | 60 | 171 | 7.8 | 13.0 | 0.00 | 0.00 | 0.00 | 1 | 1017.2 |
| 20260507111506 | 60 | 171 | 7.8 | 13.0 | 0.00 | 0.00 | 0.00 | 1 | 1017.1 |
| 20260507111404 | 60 | 174 | 7.8 | 13.0 | 0.00 | 0.00 | 0.00 | 1 | 1017.1 |
| 20260507111304 | 60 | 174 | 7.8 | 13.0 | 0.00 | 0.00 | 0.00 | 1 | 1017.1 |
| 20260507111225 | 60 | 175 | 7.8 | 13.0 | 0.00 | 0.00 | 0.00 | 1 | 1017.1 |
| 20260507111104 | 60 | 176 | 7.8 | 13.0 | 0.00 | 0.00 | 0.00 | 1 | 1017.0 |
| 20260507111004 | 60 | 177 | 7.8 | 13.0 | 0.00 | 0.00 | 0.00 | 1 | 1017.1 |
| 20260507110904 | 60 | 177 | 7.8 | 13.0 | 0.00 | 0.00 | 0.00 | 1 | 1017.1 |
| 20260507110804 | 60 | 177 | 7.0 | 13.9 | 0.00 | 0.00 | 0.00 | 1 | 1017.2 |
| 20260507110704 | 60 | 176 | 7.0 | 13.9 | 0.00 | 0.00 | 0.00 | 1 | 1017.3 |
| 20260507110604 | 60 | 175 | 6.1 | 13.9 | 0.00 | 0.00 | 0.00 | 1 | 1017.3 |
| 20260507110504 | 60 | 175 | 6.1 | 13.9 | 0.00 | 0.00 | 0.00 | 1 | 1017.3 |
| 20260507110425 | 60 | 173 | 5.2 | 13.9 | 0.00 | 0.00 | 0.00 | 1 | 1017.3 |
| 20260507110325 | 60 | 169 | 5.2 | 13.9 | 0.00 | 0.00 | 0.00 | 1 | 1017.3 |
| 20260507110204 | 60 | 165 | 5.2 | 13.9 | 0.00 | 0.00 | 0.00 | 1 | 1017.4 |
| 20260507110104 | 60 | 163 | 6.1 | 13.9 | 0.00 | 0.00 | 0.00 | 1 | 1017.5 |
| 20260507110004 | 60 | 164 | 6.1 | 13.9 | 0.00 | 0.00 | 0.00 | 1 | 1017.6 |
| 20260507105904 | 60 | 163 | 5.2 | 13.9 | 0.00 | 0.00 | 0.00 | 1 | 1017.7 |
| 20260507105804 | 60 | 161 | 5.2 | 13.9 | 0.00 | 0.00 | 0.00 | 1 | 1017.7 |
| 20260507105704 | 60 | 161 | 6.1 | 13.9 | 0.00 | 0.00 | 0.00 | 1 | 1017.6 |
| 20260507105604 | 60 | 162 | 6.1 | 13.9 | 0.00 | 0.00 | 0.00 | 1 | 1017.7 |
| 20260507105504 | 60 | 161 | 6.1 | 13.9 | 0.00 | 0.00 | 0.00 | 1 | 1017.6 |
| 20260507105425 | 60 | 161 | 5.2 | 13.9 | 0.00 | 0.00 | 0.00 | 1 | 1017.5 |
| 20260507105306 | 60 | 163 | 5.2 | 13.9 | 0.00 | 0.00 | 0.00 | 1 | 1017.6 |
| 20260507105204 | 60 | 163 | 4.3 | 13.9 | 0.00 | 0.00 | 0.00 | 1 | 1017.5 |
| 20260507105104 | 60 | 164 | 4.3 | 11.3 | 0.00 | 0.00 | 0.00 | 1 | 1017.6 |
| 20260507105025 | 60 | 165 | 4.3 | 11.3 | 0.00 | 0.00 | 0.00 | 1 | 1017.5 |
| 20260507104904 | 60 | 165 | 4.3 | 11.3 | 0.00 | 0.00 | 0.00 | 1 | 1017.5 |
| 20260507104804 | 60 | 165 | 4.3 | 11.3 | 0.00 | 0.00 | 0.00 | 1 | 1017.6 |
| 20260507104704 | 60 | 167 | 5.2 | 13.0 | 0.00 | 0.00 | 0.00 | 1 | 1017.6 |
| 20260507104604 | 60 | 168 | 5.2 | 13.0 | 0.00 | 0.00 | 0.00 | 1 | 1017.5 |
| 20260507104504 | 60 | 169 | 4.3 | 13.0 | 0.00 | 0.00 | 0.00 | 1 | 1017.5 |
| 20260507104404 | 60 | 173 | 5.2 | 13.0 | 0.00 | 0.00 | 0.00 | 1 | 1017.4 |
| 20260507104304 | 60 | 176 | 6.1 | 13.0 | 0.00 | 0.00 | 0.00 | 1 | 1017.3 |
| 20260507104204 | 60 | 176 | 7.0 | 13.0 | 0.00 | 0.00 | 0.00 | 1 | 1017.3 |
| 20260507104104 | 60 | 176 | 7.0 | 13.0 | 0.00 | 0.00 | 0.00 | 1 | 1017.2 |
| 20260507104004 | 60 | 176 | 7.0 | 13.0 | 0.00 | 0.00 | 0.00 | 1 | 1017.1 |
| 20260507103904 | 60 | 179 | 6.1 | 13.0 | 0.00 | 0.00 | 0.00 | 1 | 1017.0 |
| 20260507103804 | 60 | 181 | 6.1 | 13.0 | 0.00 | 0.00 | 0.00 | 1 | 1016.9 |
| 20260507103704 | 60 | 181 | 6.1 | 11.3 | 0.00 | 0.00 | 0.00 | 1 | 1016.8 |
| 20260507103604 | 60 | 182 | 6.1 | 11.3 | 0.00 | 0.00 | 0.00 | 1 | 1016.7 |
| 20260507103504 | 60 | 182 | 6.1 | 11.3 | 0.00 | 0.00 | 0.00 | 1 | 1016.6 |
| 20260507103404 | 60 | 181 | 6.1 | 11.3 | 0.00 | 0.00 | 0.00 | 1 | 1016.6 |
| 20260507103325 | 60 | 180 | 5.2 | 10.4 | 0.00 | 0.00 | 0.00 | 1 | 1016.6 |
| 20260507103204 | 60 | 179 | 5.2 | 10.4 | 0.00 | 0.00 | 0.00 | 1 | 1016.7 |
| 20260507103104 | 60 | 178 | 5.2 | 10.4 | 0.00 | 0.00 | 0.00 | 1 | 1016.8 |
| 20260507103004 | 60 | 178 | 5.2 | 10.4 | 0.00 | 0.00 | 0.00 | 1 | 1016.9 |
| 20260507102904 | 60 | 177 | 5.2 | 8.7 | 0.00 | 0.00 | 0.00 | 1 | 1016.9 |
| 20260507102804 | 60 | 178 | 5.2 | 8.7 | 0.00 | 0.00 | 0.00 | 1 | 1017.0 |
| 20260507102704 | 60 | 180 | 5.2 | 8.7 | 0.00 | 0.00 | 0.00 | 1 | 1017.1 |
| 20260507102604 | 60 | 182 | 5.2 | 10.4 | 0.00 | 0.00 | 0.00 | 1 | 1017.1 |
| 20260507102526 | 60 | 182 | 5.2 | 10.4 | 0.00 | 0.00 | 0.00 | 1 | 1017.2 |
| 20260507102404 | 60 | 181 | 5.2 | 14.8 | 0.00 | 0.00 | 0.00 | 1 | 1017.2 |
| 20260507102306 | 60 | 179 | 6.1 | 14.8 | 0.00 | 0.00 | 0.00 | 1 | 1017.3 |
| 20260507102204 | 60 | 179 | 6.1 | 14.8 | 0.00 | 0.00 | 0.00 | 1 | 1017.2 |
| 20260507102125 | 60 | 181 | 6.1 | 14.8 | 0.00 | 0.00 | 0.00 | 1 | 1017.2 |
| 20260507102006 | 60 | 181 | 6.1 | 14.8 | 0.00 | 0.00 | 0.00 | 1 | 1017.1 |
| 20260507101904 | 60 | 181 | 6.1 | 14.8 | 0.00 | 0.00 | 0.00 | 1 | 1017.1 |
| 20260507101804 | 60 | 180 | 7.0 | 14.8 | 0.00 | 0.00 | 0.00 | 1 | 1017.0 |
| 20260507101725 | 60 | 178 | 7.0 | 14.8 | 0.00 | 0.00 | 0.00 | 1 | 1016.9 |
| 20260507101604 | 60 | 177 | 7.0 | 14.8 | 0.00 | 0.00 | 0.00 | 1 | 1016.9 |
| 20260507101504 | 60 | 179 | 7.0 | 14.8 | 0.00 | 0.00 | 0.00 | 1 | 1016.9 |
| 20260507101425 | 60 | 180 | 7.0 | 14.8 | 0.00 | 0.00 | 0.00 | 1 | 1016.9 |
| 20260507101304 | 60 | 183 | 7.0 | 13.0 | 0.00 | 0.00 | 0.00 | 1 | 1016.9 |
| 20260507101204 | 60 | 184 | 7.0 | 13.0 | 0.00 | 0.00 | 0.00 | 1 | 1016.9 |
| 20260507101125 | 60 | 181 | 7.0 | 13.0 | 0.00 | 0.00 | 0.00 | 1 | 1017.0 |
| 20260507101004 | 60 | 182 | 7.0 | 13.0 | 0.00 | 0.00 | 0.00 | 1 | 1016.9 |
| 20260507100904 | 60 | 183 | 7.0 | 13.0 | 0.00 | 0.00 | 0.00 | 1 | 1016.9 |
| 20260507100804 | 60 | 184 | 6.1 | 12.2 | 0.00 | 0.00 | 0.00 | 1 | 1016.8 |
| 20260507100704 | 60 | 183 | 6.1 | 11.3 | 0.00 | 0.00 | 0.00 | 1 | 1016.6 |
| 20260507100604 | 60 | 182 | 6.1 | 11.3 | 0.00 | 0.00 | 0.00 | 1 | 1016.6 |
| 20260507100525 | 60 | 182 | 6.1 | 11.3 | 0.00 | 0.00 | 0.00 | 1 | 1016.7 |
| 20260507100425 | 60 | 180 | 6.1 | 11.3 | 0.00 | 0.00 | 0.00 | 1 | 1016.7 |
| 20260507100304 | 60 | 180 | 6.1 | 12.2 | 0.00 | 0.00 | 0.00 | 1 | 1016.7 |
| 20260507100204 | 60 | 179 | 5.2 | 12.2 | 0.00 | 0.00 | 0.00 | 1 | 1016.7 |
| 20260507100104 | 60 | 180 | 5.2 | 12.2 | 0.00 | 0.00 | 0.00 | 1 | 1016.7 |
| 20260507100004 | 60 | 181 | 4.3 | 12.2 | 0.00 | 0.00 | 0.00 | 1 | 1016.8 |
| 20260507095904 | 60 | 180 | 3.5 | 12.2 | 0.00 | 0.00 | 0.00 | 1 | 1016.8 |
| 20260507095804 | 60 | 179 | 3.5 | 12.2 | 0.00 | 0.00 | 0.00 | 1 | 1016.8 |
| 20260507095725 | 60 | 181 | 2.6 | 12.2 | 0.00 | 0.00 | 0.00 | 1 | 1016.7 |
| 20260507095604 | 60 | 181 | 1.7 | 12.2 | 0.00 | 0.00 | 0.00 | 1 | 1016.7 |
| 20260507095504 | 60 | 184 | 1.7 | 12.2 | 0.00 | 0.00 | 0.00 | 1 | 1016.7 |
| 20260507095425 | 60 | 186 | 0.9 | 12.2 | 0.00 | 0.00 | 0.00 | 1 | 1016.6 |
| 20260507095325 | 60 | 178 | 0.9 | 5.2 | 0.00 | 0.00 | 0.00 | 1 | 1016.6 |
| 20260507095204 | 60 | 181 | 0.9 | 7.8 | 0.00 | 0.00 | 0.00 | 1 | 1016.7 |
| 20260507095104 | 60 | 174 | 0.9 | 7.8 | 0.00 | 0.00 | 0.00 | 1 | 1016.8 |
| 20260507095004 | 60 | 176 | 0.9 | 7.8 | 0.00 | 0.00 | 0.00 | 1 | 1016.8 |
| 20260507094904 | 60 | 176 | 0.9 | 7.8 | 0.00 | 0.00 | 0.00 | 1 | 1016.9 |
| 20260507094804 | 60 | 181 | 0.9 | 7.8 | 0.00 | 0.00 | 0.00 | 1 | 1016.8 |
| 20260507094704 | 60 | 183 | 0.9 | 7.8 | 0.00 | 0.00 | 0.00 | 1 | 1016.8 |
| 20260507094604 | 60 | 183 | 0.9 | 7.8 | 0.00 | 0.00 | 0.00 | 1 | 1016.8 |
| 20260507094504 | 60 | 183 | 0.9 | 7.8 | 0.00 | 0.00 | 0.00 | 1 | 1016.8 |
| 20260507094404 | 60 | 182 | 0.9 | 7.8 | 0.00 | 0.00 | 0.00 | 1 | 1016.8 |
| 20260507094304 | 60 | 181 | 0.9 | 7.8 | 0.00 | 0.00 | 0.00 | 1 | 1016.8 |
| 20260507094204 | 60 | 178 | 0.0 | 7.0 | 0.00 | 0.00 | 0.00 | 1 | 1016.8 |
| 20260507094125 | 60 | 190 | 0.0 | 6.1 | 0.00 | 0.00 | 0.00 | 1 | 1016.8 |
| 20260507094004 | 60 | 189 | 0.0 | 6.1 | 0.00 | 0.00 | 0.00 | 1 | 1016.8 |
| 20260507093904 | 60 | 188 | 0.0 | 6.1 | 0.00 | 0.00 | 0.00 | 1 | 1016.8 |
| 20260507093804 | 60 | 181 | 0.0 | 5.2 | 0.00 | 0.00 | 0.00 | 1 | 1016.7 |
| 20260507093704 | 60 | 180 | 0.0 | 5.2 | 0.00 | 0.00 | 0.00 | 1 | 1016.8 |
| 20260507093604 | 60 | 173 | 0.0 | 5.2 | 0.00 | 0.00 | 0.00 | 1 | 1016.7 |
| 20260507093504 | 60 | 176 | 0.9 | 5.2 | 0.00 | 0.00 | 0.00 | 1 | 1016.8 |
| 20260507093404 | 60 | 180 | 0.9 | 7.8 | 0.00 | 0.00 | 0.00 | 1 | 1016.8 |
| 20260507093304 | 60 | 180 | 0.9 | 7.8 | 0.00 | 0.00 | 0.00 | 1 | 1016.9 |
| 20260507093204 | 60 | 180 | 0.9 | 7.8 | 0.00 | 0.00 | 0.00 | 1 | 1017.0 |
| 20260507093104 | 60 | 178 | 0.9 | 7.8 | 0.00 | 0.00 | 0.00 | 1 | 1017.0 |
| 20260507093004 | 60 | 178 | 0.9 | 7.8 | 0.00 | 0.00 | 0.00 | 1 | 1016.9 |
| 20260507092904 | 60 | 178 | 0.9 | 7.8 | 0.00 | 0.00 | 0.00 | 1 | 1016.9 |
| 20260507092804 | 60 | 178 | 0.9 | 7.8 | 0.00 | 0.00 | 0.00 | 1 | 1016.9 |
| 20260507092704 | 60 | 178 | 0.0 | 7.8 | 0.00 | 0.00 | 0.00 | 1 | 1016.9 |
| 20260507092604 | 60 | 183 | 0.0 | 7.8 | 0.00 | 0.00 | 0.00 | 1 | 1016.9 |
| 20260507092504 | 60 | 182 | 0.0 | 7.8 | 0.00 | 0.00 | 0.00 | 1 | 1017.0 |
| 20260507092404 | 60 | 178 | 0.0 | 3.5 | 0.00 | 0.00 | 0.00 | 1 | 1017.0 |
| 20260507092307 | 60 | 177 | 0.0 | 3.5 | 0.00 | 0.00 | 0.00 | 1 | 1017.1 |
| 20260507092204 | 60 | 178 | 0.0 | 3.5 | 0.00 | 0.00 | 0.00 | 1 | 1017.1 |
| 20260507092104 | 60 | 178 | 0.0 | 3.5 | 0.00 | 0.00 | 0.00 | 1 | 1017.1 |
| 20260507092004 | 60 | 174 | 0.0 | 3.5 | 0.00 | 0.00 | 0.00 | 1 | 1017.1 |
| 20260507091904 | 60 | 174 | 0.0 | 3.5 | 0.00 | 0.00 | 0.00 | 1 | 1017.0 |
| 20260507091825 | 60 | 176 | 0.0 | 2.6 | 0.00 | 0.00 | 0.00 | 1 | 1017.0 |
| 20260507091704 | 60 | 175 | 0.0 | 2.6 | 0.00 | 0.00 | 0.00 | 1 | 1016.9 |
| 20260507091604 | 60 | 182 | 0.0 | 1.7 | 0.00 | 0.00 | 0.00 | 1 | 1016.9 |
| 20260507091504 | 60 | 174 | 0.0 | 1.7 | 0.00 | 0.00 | 0.00 | 1 | 1016.9 |
| 20260507091404 | 60 | 168 | 0.0 | 0.9 | 0.00 | 0.00 | 0.00 | 1 | 1016.8 |
| 20260507091304 | 60 | 168 | 0.0 | 0.9 | 0.00 | 0.00 | 0.00 | 1 | 1016.7 |
| 20260507091204 | 60 | 173 | 0.0 | 0.9 | 0.00 | 0.00 | 0.00 | 1 | 1016.7 |
| 20260507091104 | 60 | 173 | 0.0 | 0.9 | 0.00 | 0.00 | 0.00 | 1 | 1016.5 |
| 20260507091004 | 60 | 173 | 0.0 | 0.9 | 0.00 | 0.00 | 0.00 | 1 | 1016.5 |
| 20260507090925 | 60 | 173 | 0.0 | 0.9 | 0.00 | 0.00 | 0.00 | 1 | 1016.5 |
| 20260507090804 | 60 | 173 | 0.0 | 1.7 | 0.00 | 0.00 | 0.00 | 1 | 1016.5 |
| 20260507090704 | 60 | 173 | 0.0 | 1.7 | 0.00 | 0.00 | 0.00 | 1 | 1016.4 |
| 20260507090604 | 60 | 162 | 0.0 | 1.7 | 0.00 | 0.00 | 0.00 | 1 | 1016.4 |
| 20260507090525 | 60 | 183 | 0.0 | 1.7 | 0.00 | 0.00 | 0.00 | 1 | 1016.4 |
| 20260507090404 | 60 | 183 | 0.0 | 1.7 | 0.00 | 0.00 | 0.00 | 1 | 1016.4 |
| 20260507090304 | 60 | 183 | 0.0 | 1.7 | 0.00 | 0.00 | 0.00 | 1 | 1016.3 |
| 20260507090225 | 60 | 0 | 0.0 | 1.7 | 0.00 | 0.00 | 0.00 | 1 | 1016.3 |
| 20260507090104 | 60 | 226 | 0.0 | 1.7 | 0.00 | 0.00 | 0.00 | 1 | 1016.3 |
| 20260507090005 | 60 | 226 | 0.0 | 1.7 | 0.00 | 0.00 | 0.00 | 1 | 1016.4 |
| 20260507085904 | 60 | 226 | 0.0 | 1.7 | 0.00 | 0.00 | 0.00 | 1 | 1016.5 |
| 20260507085805 | 60 | 226 | 0.0 | 0.9 | 0.00 | 0.00 | 0.00 | 1 | 1016.5 |
| 20260507085704 | 60 | 226 | 0.0 | 0.9 | 0.00 | 0.00 | 0.00 | 1 | 1016.5 |
| 20260507085604 | 60 | 184 | 0.0 | 0.9 | 0.00 | 0.00 | 0.00 | 1 | 1016.5 |
| 20260507085504 | 60 | 190 | 0.9 | 7.0 | 0.00 | 0.00 | 0.00 | 1 | 1016.3 |
| 20260507085404 | 60 | 193 | 0.9 | 7.0 | 0.00 | 0.00 | 0.00 | 1 | 1016.2 |
| 20260507085325 | 60 | 184 | 0.9 | 7.0 | 0.00 | 0.00 | 0.00 | 1 | 1016.0 |
| 20260507085204 | 60 | 181 | 1.7 | 7.0 | 0.00 | 0.00 | 0.00 | 1 | 1016.0 |
| 20260507085104 | 60 | 179 | 1.7 | 8.7 | 0.00 | 0.00 | 0.00 | 1 | 1016.0 |
| 20260507085004 | 60 | 179 | 2.6 | 8.7 | 0.00 | 0.00 | 0.00 | 1 | 1016.1 |
| 20260507084925 | 60 | 178 | 2.6 | 8.7 | 0.00 | 0.00 | 0.00 | 1 | 1016.2 |
| 20260507084805 | 60 | 179 | 2.6 | 8.7 | 0.00 | 0.00 | 0.00 | 1 | 1016.2 |
| 20260507084704 | 60 | 179 | 2.6 | 8.7 | 0.00 | 0.00 | 0.00 | 1 | 1016.1 |
| 20260507084604 | 60 | 179 | 2.6 | 8.7 | 0.00 | 0.00 | 0.00 | 1 | 1016.2 |
| 20260507084504 | 60 | 178 | 2.6 | 8.7 | 0.00 | 0.00 | 0.00 | 1 | 1016.1 |
| 20260507084404 | 60 | 175 | 1.7 | 8.7 | 0.00 | 0.00 | 0.00 | 1 | 1016.1 |
| 20260507084304 | 60 | 178 | 1.7 | 8.7 | 0.00 | 0.00 | 0.00 | 1 | 1016.2 |
| 20260507084204 | 60 | 178 | 1.7 | 8.7 | 0.00 | 0.00 | 0.00 | 1 | 1016.2 |
| 20260507084104 | 60 | 179 | 0.9 | 7.8 | 0.00 | 0.00 | 0.00 | 1 | 1016.2 |
| 20260507084004 | 60 | 180 | 0.9 | 5.2 | 0.00 | 0.00 | 0.00 | 1 | 1016.3 |
| 20260507083904 | 60 | 187 | 0.0 | 5.2 | 0.00 | 0.00 | 0.00 | 1 | 1016.4 |
| 20260507083825 | 60 | 178 | 0.0 | 5.2 | 0.00 | 0.00 | 0.00 | 1 | 1016.3 |
| 20260507083704 | 60 | 225 | 0.0 | 0.9 | 0.00 | 0.00 | 0.00 | 1 | 1016.3 |
| 20260507083604 | 60 | 172 | 0.0 | 6.1 | 0.00 | 0.00 | 0.00 | 1 | 1016.2 |
| 20260507083504 | 60 | 189 | 0.9 | 9.6 | 0.00 | 0.00 | 0.00 | 1 | 1016.2 |
| 20260507083404 | 60 | 197 | 0.9 | 9.6 | 0.00 | 0.00 | 0.00 | 1 | 1016.2 |
| 20260507083304 | 60 | 197 | 0.9 | 9.6 | 0.00 | 0.00 | 0.00 | 1 | 1016.2 |
| 20260507083204 | 60 | 197 | 1.7 | 9.6 | 0.00 | 0.00 | 0.00 | 1 | 1016.2 |
| 20260507083104 | 60 | 197 | 1.7 | 9.6 | 0.00 | 0.00 | 0.00 | 1 | 1016.2 |
| 20260507083004 | 60 | 197 | 1.7 | 9.6 | 0.00 | 0.00 | 0.00 | 1 | 1016.2 |
| 20260507082904 | 60 | 197 | 1.7 | 9.6 | 0.00 | 0.00 | 0.00 | 1 | 1016.1 |
| 20260507082804 | 60 | 197 | 1.7 | 9.6 | 0.00 | 0.00 | 0.00 | 1 | 1016.0 |
| 20260507082704 | 60 | 196 | 1.7 | 9.6 | 0.00 | 0.00 | 0.00 | 1 | 1015.9 |
| 20260507082625 | 60 | 196 | 0.9 | 9.6 | 0.00 | 0.00 | 0.00 | 1 | 1015.8 |
| 20260507082504 | 60 | 207 | 0.9 | 9.6 | 0.00 | 0.00 | 0.00 | 1 | 1015.7 |
| 20260507082404 | 60 | 194 | 0.0 | 5.2 | 0.00 | 0.00 | 0.00 | 1 | 1015.7 |
| 20260507082306 | 60 | 197 | 0.0 | 5.2 | 0.00 | 0.00 | 0.00 | 1 | 1015.6 |
| 20260507082204 | 60 | 194 | 0.0 | 5.2 | 0.00 | 0.00 | 0.00 | 1 | 1015.7 |
| 20260507082104 | 60 | 194 | 0.0 | 3.5 | 0.00 | 0.00 | 0.00 | 1 | 1015.8 |
| 20260507082004 | 60 | 186 | 0.0 | 3.5 | 0.00 | 0.00 | 0.00 | 1 | 1015.8 |
| 20260507081904 | 60 | 195 | 0.0 | 3.5 | 0.00 | 0.00 | 0.00 | 1 | 1015.9 |
| 20260507081804 | 60 | 190 | 0.0 | 3.5 | 0.00 | 0.00 | 0.00 | 1 | 1015.9 |
| 20260507081705 | 60 | 191 | 0.0 | 3.5 | 0.00 | 0.00 | 0.00 | 1 | 1015.9 |
| 20260507081625 | 60 | 191 | 0.0 | 3.5 | 0.00 | 0.00 | 0.00 | 1 | 1015.7 |
| 20260507081504 | 60 | 191 | 0.0 | 3.5 | 0.00 | 0.00 | 0.00 | 1 | 1015.7 |
| 20260507081404 | 60 | 191 | 0.0 | 3.5 | 0.00 | 0.00 | 0.00 | 1 | 1015.7 |
| 20260507081304 | 60 | 189 | 0.0 | 3.5 | 0.00 | 0.00 | 0.00 | 1 | 1015.7 |
| 20260507081225 | 60 | 190 | 0.0 | 3.5 | 0.00 | 0.00 | 0.00 | 1 | 1015.6 |
| 20260507081104 | 60 | 188 | 0.0 | 3.5 | 0.00 | 0.00 | 0.00 | 1 | 1015.6 |
| 20260507081004 | 60 | 191 | 0.0 | 3.5 | 0.00 | 0.00 | 0.00 | 1 | 1015.6 |
| 20260507080904 | 60 | 175 | 0.0 | 2.6 | 0.00 | 0.00 | 0.00 | 1 | 1015.7 |
| 20260507080804 | 60 | 185 | 0.0 | 2.6 | 0.00 | 0.00 | 0.00 | 1 | 1015.7 |
| 20260507080704 | 60 | 193 | 0.0 | 2.6 | 0.00 | 0.00 | 0.00 | 1 | 1015.7 |
| 20260507080625 | 61 | 193 | 0.0 | 2.6 | 0.00 | 0.00 | 0.00 | 1 | 1015.9 |
| 20260507080504 | 61 | 193 | 0.0 | 2.6 | 0.00 | 0.00 | 0.00 | 1 | 1016.0 |
| 20260507080404 | 61 | 202 | 0.0 | 2.6 | 0.00 | 0.00 | 0.00 | 1 | 1016.1 |
| 20260507080304 | 61 | 202 | 0.0 | 2.6 | 0.00 | 0.00 | 0.00 | 1 | 1016.2 |
| 20260507080204 | 61 | 197 | 0.0 | 2.6 | 0.00 | 0.00 | 0.00 | 1 | 1016.1 |
| 20260507080125 | 61 | 197 | 0.0 | 2.6 | 0.00 | 0.00 | 0.00 | 1 | 1016.0 |
| 20260507080004 | 61 | 200 | 0.0 | 2.6 | 0.00 | 0.00 | 0.00 | 1 | 1015.8 |
| 20260507075904 | 61 | 200 | 0.0 | 2.6 | 0.00 | 0.00 | 0.00 | 1 | 1015.7 |
| 20260507075804 | 61 | 204 | 0.0 | 2.6 | 0.00 | 0.00 | 0.00 | 1 | 1015.5 |
| 20260507075704 | 61 | 202 | 0.0 | 2.6 | 0.00 | 0.00 | 0.00 | 1 | 1015.4 |
| 20260507075604 | 61 | 198 | 0.0 | 2.6 | 0.00 | 0.00 | 0.00 | 1 | 1015.3 |
| 20260507075504 | 61 | 198 | 0.0 | 2.6 | 0.00 | 0.00 | 0.00 | 1 | 1015.3 |
| 20260507075404 | 61 | 195 | 0.0 | 2.6 | 0.00 | 0.00 | 0.00 | 1 | 1015.4 |
| 20260507075306 | 61 | 198 | 0.0 | 2.6 | 0.00 | 0.00 | 0.00 | 1 | 1015.4 |
| 20260507075204 | 61 | 200 | 0.0 | 2.6 | 0.00 | 0.00 | 0.00 | 1 | 1015.4 |
| 20260507075125 | 61 | 210 | 0.0 | 5.2 | 0.00 | 0.00 | 0.00 | 1 | 1015.4 |
| 20260507075025 | 61 | 210 | 0.0 | 5.2 | 0.00 | 0.00 | 0.00 | 1 | 1015.4 |
| 20260507074925 | 61 | 210 | 0.0 | 5.2 | 0.00 | 0.00 | 0.00 | 1 | 1015.4 |
| 20260507074804 | 61 | 208 | 0.0 | 5.2 | 0.00 | 0.00 | 0.00 | 1 | 1015.4 |
| 20260507074704 | 61 | 210 | 0.0 | 5.2 | 0.00 | 0.00 | 0.00 | 1 | 1015.4 |
| 20260507074604 | 61 | 218 | 0.0 | 5.2 | 0.00 | 0.00 | 0.00 | 1 | 1015.4 |
| 20260507074504 | 61 | 218 | 0.0 | 5.2 | 0.00 | 0.00 | 0.00 | 1 | 1015.4 |
| 20260507074404 | 61 | 218 | 0.0 | 5.2 | 0.00 | 0.00 | 0.00 | 1 | 1015.4 |
| 20260507074325 | 61 | 218 | 0.0 | 5.2 | 0.00 | 0.00 | 0.00 | 1 | 1015.4 |
| 20260507074225 | 61 | 223 | 0.0 | 5.2 | 0.00 | 0.00 | 0.00 | 1 | 1015.5 |
| 20260507074104 | 61 | 218 | 0.0 | 4.3 | 0.00 | 0.00 | 0.00 | 1 | 1015.5 |
| 20260507074004 | 61 | 220 | 0.0 | 4.3 | 0.00 | 0.00 | 0.00 | 1 | 1015.5 |
| 20260507073904 | 61 | 217 | 0.0 | 4.3 | 0.00 | 0.00 | 0.00 | 1 | 1015.7 |
| 20260507073804 | 61 | 216 | 0.0 | 4.3 | 0.00 | 0.00 | 0.00 | 1 | 1015.8 |
| 20260507073726 | 61 | 213 | 0.0 | 4.3 | 0.00 | 0.00 | 0.00 | 1 | 1015.9 |
| 20260507073604 | 61 | 214 | 0.0 | 4.3 | 0.00 | 0.00 | 0.00 | 1 | 1015.9 |
| 20260507073525 | 61 | 214 | 0.0 | 4.3 | 0.00 | 0.00 | 0.00 | 1 | 1015.8 |
| 20260507073404 | 61 | 205 | 0.0 | 5.2 | 0.00 | 0.00 | 0.00 | 1 | 1015.7 |
| 20260507073304 | 61 | 205 | 0.0 | 5.2 | 0.00 | 0.00 | 0.00 | 1 | 1015.5 |
| 20260507073225 | 61 | 205 | 0.0 | 5.2 | 0.00 | 0.00 | 0.00 | 1 | 1015.5 |
| 20260507073104 | 61 | 204 | 0.0 | 5.2 | 0.00 | 0.00 | 0.00 | 1 | 1015.5 |
| 20260507073004 | 61 | 202 | 0.0 | 5.2 | 0.00 | 0.00 | 0.00 | 1 | 1015.5 |
| 20260507072904 | 61 | 201 | 0.0 | 5.2 | 0.00 | 0.00 | 0.00 | 1 | 1015.5 |
| 20260507072825 | 61 | 201 | 0.0 | 5.2 | 0.00 | 0.00 | 0.00 | 1 | 1015.5 |
| 20260507072704 | 61 | 200 | 0.0 | 5.2 | 0.00 | 0.00 | 0.00 | 1 | 1015.6 |
| 20260507072604 | 61 | 192 | 0.0 | 5.2 | 0.00 | 0.00 | 0.00 | 1 | 1015.7 |
| 20260507072504 | 61 | 231 | 0.0 | 3.5 | 0.00 | 0.00 | 0.00 | 1 | 1015.7 |
| 20260507072404 | 61 | 229 | 0.0 | 3.5 | 0.00 | 0.00 | 0.00 | 1 | 1015.8 |
| 20260507072325 | 61 | 229 | 0.0 | 3.5 | 0.00 | 0.00 | 0.00 | 1 | 1015.8 |
| 20260507072204 | 61 | 229 | 0.0 | 3.5 | 0.00 | 0.00 | 0.00 | 1 | 1015.8 |
| 20260507072125 | 61 | 229 | 0.0 | 3.5 | 0.00 | 0.00 | 0.00 | 1 | 1015.7 |
| 20260507072004 | 61 | 229 | 0.0 | 3.5 | 0.00 | 0.00 | 0.00 | 1 | 1015.7 |
| 20260507071904 | 61 | 230 | 0.0 | 3.5 | 0.00 | 0.00 | 0.00 | 1 | 1015.7 |
| 20260507071804 | 61 | 227 | 0.0 | 3.5 | 0.00 | 0.00 | 0.00 | 1 | 1015.7 |
| 20260507071704 | 61 | 224 | 0.0 | 3.5 | 0.00 | 0.00 | 0.00 | 1 | 1015.6 |
| 20260507071604 | 61 | 224 | 0.0 | 3.5 | 0.00 | 0.00 | 0.00 | 1 | 1015.7 |
| 20260507071504 | 61 | 208 | 0.0 | 0.9 | 0.00 | 0.00 | 0.00 | 1 | 1015.7 |
| 20260507071404 | 61 | 207 | 0.0 | 0.9 | 0.00 | 0.00 | 0.00 | 1 | 1015.9 |
| 20260507071304 | 61 | 208 | 0.0 | 0.9 | 0.00 | 0.00 | 0.00 | 1 | 1016.0 |
| 20260507071225 | 61 | 208 | 0.0 | 0.9 | 0.00 | 0.00 | 0.00 | 1 | 1016.1 |
| 20260507071104 | 61 | 208 | 0.0 | 0.9 | 0.00 | 0.00 | 0.00 | 1 | 1016.1 |
| 20260507071004 | 61 | 209 | 0.0 | 1.7 | 0.00 | 0.00 | 0.00 | 1 | 1016.2 |
| 20260507070904 | 61 | 209 | 0.0 | 1.7 | 0.00 | 0.00 | 0.00 | 1 | 1016.1 |
| 20260507070825 | 61 | 209 | 0.0 | 1.7 | 0.00 | 0.00 | 0.00 | 1 | 1016.1 |
| 20260507070725 | 61 | 208 | 0.0 | 1.7 | 0.00 | 0.00 | 0.00 | 1 | 1016.0 |
| 20260507070604 | 61 | 205 | 0.0 | 1.7 | 0.00 | 0.00 | 0.00 | 1 | 1016.0 |
| 20260507070504 | 61 | 205 | 0.0 | 1.7 | 0.00 | 0.00 | 0.00 | 1 | 1015.9 |
| 20260507070404 | 61 | 211 | 0.0 | 1.7 | 0.00 | 0.00 | 0.00 | 1 | 1015.8 |
| 20260507070325 | 61 | 213 | 0.0 | 1.7 | 0.00 | 0.00 | 0.00 | 1 | 1015.8 |
| 20260507070225 | 61 | 213 | 0.0 | 1.7 | 0.00 | 0.00 | 0.00 | 1 | 1015.8 |
| 20260507070125 | 61 | 223 | 0.0 | 1.7 | 0.00 | 0.00 | 0.00 | 1 | 1015.8 |
| 20260507070008 | 62 | 216 | 0.0 | 3.5 | 0.00 | 0.00 | 0.00 | 1 | 1015.8 |
| 20260507065904 | 62 | 216 | 0.0 | 3.5 | 0.00 | 0.00 | 0.00 | 1 | 1015.8 |
| 20260507065804 | 62 | 216 | 0.0 | 3.5 | 0.00 | 0.00 | 0.00 | 1 | 1015.8 |
| 20260507065704 | 62 | 216 | 0.0 | 3.5 | 0.00 | 0.00 | 0.00 | 1 | 1015.8 |
| 20260507065604 | 62 | 212 | 0.0 | 3.5 | 0.00 | 0.00 | 0.00 | 1 | 1015.7 |
| 20260507065525 | 62 | 209 | 0.0 | 3.5 | 0.00 | 0.00 | 0.00 | 1 | 1015.6 |
| 20260507065425 | 62 | 209 | 0.0 | 3.5 | 0.00 | 0.00 | 0.00 | 1 | 1015.6 |
| 20260507065306 | 62 | 209 | 0.0 | 3.5 | 0.00 | 0.00 | 0.00 | 1 | 1015.4 |
| 20260507065204 | 62 | 212 | 0.0 | 3.5 | 0.00 | 0.00 | 0.00 | 1 | 1015.4 |
| 20260507065104 | 62 | 207 | 0.0 | 6.1 | 0.00 | 0.00 | 0.00 | 1 | 1015.3 |
| 20260507065004 | 62 | 206 | 0.0 | 6.1 | 0.00 | 0.00 | 0.00 | 1 | 1015.3 |
| 20260507064904 | 62 | 206 | 0.0 | 6.1 | 0.00 | 0.00 | 0.00 | 1 | 1015.3 |
| 20260507064804 | 62 | 207 | 0.0 | 6.1 | 0.00 | 0.00 | 0.00 | 1 | 1015.3 |
| 20260507064704 | 62 | 210 | 0.0 | 6.1 | 0.00 | 0.00 | 0.00 | 1 | 1015.3 |
| 20260507064604 | 62 | 210 | 0.0 | 6.1 | 0.00 | 0.00 | 0.00 | 1 | 1015.3 |
| 20260507064525 | 62 | 211 | 0.0 | 6.1 | 0.00 | 0.00 | 0.00 | 1 | 1015.3 |
| 20260507064425 | 62 | 211 | 0.0 | 6.1 | 0.00 | 0.00 | 0.00 | 1 | 1015.2 |
| 20260507064304 | 62 | 211 | 0.0 | 6.1 | 0.00 | 0.00 | 0.00 | 1 | 1015.0 |
| 20260507064204 | 62 | 211 | 0.0 | 6.1 | 0.00 | 0.00 | 0.00 | 1 | 1014.9 |
| 20260507064104 | 62 | 213 | 0.0 | 5.2 | 0.00 | 0.00 | 0.00 | 1 | 1014.8 |
| 20260507064004 | 62 | 215 | 0.0 | 5.2 | 0.00 | 0.00 | 0.00 | 1 | 1014.8 |
| 20260507063904 | 62 | 214 | 0.0 | 5.2 | 0.00 | 0.00 | 0.00 | 1 | 1014.8 |
| 20260507063804 | 62 | 215 | 0.0 | 5.2 | 0.00 | 0.00 | 0.00 | 1 | 1014.9 |
| 20260507063725 | 62 | 210 | 0.0 | 2.6 | 0.00 | 0.00 | 0.00 | 1 | 1015.0 |
| 20260507063625 | 62 | 209 | 0.0 | 2.6 | 0.00 | 0.00 | 0.00 | 1 | 1015.1 |
| 20260507063525 | 62 | 209 | 0.0 | 2.6 | 0.00 | 0.00 | 0.00 | 1 | 1015.2 |
| 20260507063404 | 62 | 209 | 0.0 | 2.6 | 0.00 | 0.00 | 0.00 | 1 | 1015.2 |
| 20260507063304 | 62 | 209 | 0.0 | 2.6 | 0.00 | 0.00 | 0.00 | 1 | 1015.3 |
| 20260507063204 | 62 | 205 | 0.0 | 2.6 | 0.00 | 0.00 | 0.00 | 1 | 1015.3 |
| 20260507063104 | 62 | 199 | 0.0 | 2.6 | 0.00 | 0.00 | 0.00 | 1 | 1015.3 |
| 20260507063004 | 62 | 209 | 0.0 | 5.2 | 0.00 | 0.00 | 0.00 | 1 | 1015.4 |
| 20260507062925 | 62 | 213 | 0.0 | 5.2 | 0.00 | 0.00 | 0.00 | 1 | 1015.4 |
| 20260507062804 | 62 | 213 | 0.0 | 5.2 | 0.00 | 0.00 | 0.00 | 1 | 1015.5 |
| 20260507062704 | 62 | 213 | 0.0 | 5.2 | 0.00 | 0.00 | 0.00 | 1 | 1015.5 |
| 20260507062604 | 62 | 213 | 0.0 | 5.2 | 0.00 | 0.00 | 0.00 | 1 | 1015.6 |
| 20260507062504 | 62 | 213 | 0.0 | 5.2 | 0.00 | 0.00 | 0.00 | 1 | 1015.7 |
| 20260507062425 | 62 | 212 | 0.0 | 5.2 | 0.00 | 0.00 | 0.00 | 1 | 1015.7 |
| 20260507062306 | 62 | 212 | 0.0 | 5.2 | 0.00 | 0.00 | 0.00 | 1 | 1015.7 |
| 20260507062225 | 62 | 211 | 0.0 | 5.2 | 0.00 | 0.00 | 0.00 | 1 | 1015.7 |
| 20260507062104 | 62 | 212 | 0.0 | 5.2 | 0.00 | 0.00 | 0.00 | 1 | 1015.7 |
| 20260507062004 | 62 | 209 | 0.0 | 4.3 | 0.00 | 0.00 | 0.00 | 1 | 1015.5 |
| 20260507061904 | 62 | 208 | 0.0 | 4.3 | 0.00 | 0.00 | 0.00 | 1 | 1015.5 |
| 20260507061804 | 62 | 207 | 0.0 | 4.3 | 0.00 | 0.00 | 0.00 | 1 | 1015.4 |
| 20260507061704 | 62 | 205 | 0.0 | 4.3 | 0.00 | 0.00 | 0.00 | 1 | 1015.3 |
| 20260507061604 | 62 | 204 | 0.0 | 4.3 | 0.00 | 0.00 | 0.00 | 1 | 1015.3 |
| 20260507061525 | 62 | 203 | 0.0 | 4.3 | 0.00 | 0.00 | 0.00 | 1 | 1015.3 |
| 20260507061404 | 62 | 200 | 0.0 | 2.6 | 0.00 | 0.00 | 0.00 | 1 | 1015.3 |
| 20260507061304 | 62 | 200 | 0.0 | 2.6 | 0.00 | 0.00 | 0.00 | 1 | 1015.4 |
| 20260507061204 | 62 | 202 | 0.0 | 2.6 | 0.00 | 0.00 | 0.00 | 1 | 1015.4 |
| 20260507061104 | 62 | 202 | 0.0 | 2.6 | 0.00 | 0.00 | 0.00 | 1 | 1015.4 |
| 20260507061004 | 62 | 202 | 0.0 | 2.6 | 0.00 | 0.00 | 0.00 | 1 | 1015.3 |
| 20260507060904 | 62 | 200 | 0.0 | 2.6 | 0.00 | 0.00 | 0.00 | 1 | 1015.3 |
| 20260507060804 | 62 | 201 | 0.0 | 2.6 | 0.00 | 0.00 | 0.00 | 1 | 1015.3 |
| 20260507060704 | 62 | 201 | 0.0 | 2.6 | 0.00 | 0.00 | 0.00 | 1 | 1015.3 |
| 20260507060604 | 62 | 201 | 0.0 | 2.6 | 0.00 | 0.00 | 0.00 | 1 | 1015.3 |
| 20260507060504 | 62 | 202 | 0.0 | 2.6 | 0.00 | 0.00 | 0.00 | 1 | 1015.3 |
| 20260507060404 | 62 | 200 | 0.0 | 2.6 | 0.00 | 0.00 | 0.00 | 1 | 1015.3 |
| 20260507060304 | 62 | 200 | 0.0 | 2.6 | 0.00 | 0.00 | 0.00 | 1 | 1015.4 |
| 20260507060225 | 62 | 201 | 0.0 | 2.6 | 0.00 | 0.00 | 0.00 | 1 | 1015.5 |
| 20260507060104 | 62 | 185 | 0.0 | 2.6 | 0.00 | 0.00 | 0.00 | 1 | 1015.5 |
| 20260507060004 | 62 | 185 | 0.0 | 1.7 | 0.00 | 0.00 | 0.00 | 1 | 1015.5 |
| 20260507055904 | 62 | 211 | 0.0 | 2.6 | 0.00 | 0.00 | 0.00 | 1 | 1015.5 |
| 20260507055804 | 62 | 212 | 0.0 | 2.6 | 0.00 | 0.00 | 0.00 | 1 | 1015.5 |
| 20260507055704 | 62 | 209 | 0.0 | 2.6 | 0.00 | 0.00 | 0.00 | 1 | 1015.6 |
| 20260507055604 | 62 | 204 | 0.0 | 2.6 | 0.00 | 0.00 | 0.00 | 1 | 1015.6 |
| 20260507055504 | 62 | 202 | 0.0 | 2.6 | 0.00 | 0.00 | 0.00 | 1 | 1015.6 |
| 20260507055404 | 62 | 203 | 0.0 | 3.5 | 0.00 | 0.00 | 0.00 | 1 | 1015.4 |
| 20260507055306 | 62 | 207 | 0.0 | 4.3 | 0.00 | 0.00 | 0.00 | 1 | 1015.4 |
| 20260507055225 | 62 | 207 | 0.0 | 4.3 | 0.00 | 0.00 | 0.00 | 1 | 1015.3 |
| 20260507055125 | 62 | 207 | 0.0 | 4.3 | 0.00 | 0.00 | 0.00 | 1 | 1015.3 |
| 20260507055004 | 62 | 207 | 0.0 | 4.3 | 0.00 | 0.00 | 0.00 | 1 | 1015.2 |
| 20260507054904 | 62 | 206 | 0.0 | 4.3 | 0.00 | 0.00 | 0.00 | 1 | 1015.2 |
| 20260507054804 | 62 | 205 | 0.0 | 4.3 | 0.00 | 0.00 | 0.00 | 1 | 1015.3 |
| 20260507054704 | 62 | 205 | 0.0 | 4.3 | 0.00 | 0.00 | 0.00 | 1 | 1015.3 |
| 20260507054604 | 62 | 211 | 0.0 | 4.3 | 0.00 | 0.00 | 0.00 | 1 | 1015.3 |
| 20260507054504 | 62 | 212 | 0.0 | 4.3 | 0.00 | 0.00 | 0.00 | 1 | 1015.2 |
| 20260507054425 | 62 | 211 | 0.0 | 4.3 | 0.00 | 0.00 | 0.00 | 1 | 1015.2 |
| 20260507054304 | 62 | 205 | 0.0 | 7.0 | 0.00 | 0.00 | 0.00 | 1 | 1015.2 |
| 20260507054204 | 62 | 205 | 0.0 | 7.0 | 0.00 | 0.00 | 0.00 | 2 | 1015.3 |
| 20260507054104 | 62 | 205 | 0.0 | 7.0 | 0.00 | 0.00 | 0.00 | 2 | 1015.4 |
| 20260507054004 | 62 | 205 | 0.0 | 7.0 | 0.00 | 0.00 | 0.00 | 3 | 1015.4 |
| 20260507053904 | 62 | 204 | 0.0 | 7.0 | 0.00 | 0.00 | 0.00 | 3 | 1015.4 |
| 20260507053825 | 62 | 204 | 0.0 | 7.0 | 0.00 | 0.00 | 0.00 | 3 | 1015.4 |
| 20260507053704 | 62 | 206 | 0.0 | 7.0 | 0.00 | 0.00 | 0.00 | 3 | 1015.3 |
| 20260507053605 | 62 | 204 | 0.0 | 7.0 | 0.00 | 0.00 | 0.00 | 3 | 1015.3 |
| 20260507053504 | 62 | 204 | 0.0 | 7.0 | 0.00 | 0.00 | 0.00 | 4 | 1015.2 |
| 20260507053404 | 62 | 202 | 0.0 | 7.0 | 0.00 | 0.00 | 0.00 | 4 | 1015.3 |
| 20260507053325 | 62 | 205 | 0.0 | 4.3 | 0.00 | 0.00 | 0.00 | 4 | 1015.2 |
| 20260507053204 | 62 | 205 | 0.0 | 4.3 | 0.00 | 0.00 | 0.00 | 4 | 1015.2 |
| 20260507053104 | 62 | 210 | 0.9 | 7.8 | 0.00 | 0.00 | 0.00 | 4 | 1015.2 |
| 20260507053004 | 62 | 206 | 0.9 | 7.8 | 0.00 | 0.00 | 0.00 | 5 | 1015.1 |
| 20260507052904 | 62 | 202 | 0.9 | 7.8 | 0.00 | 0.00 | 0.00 | 5 | 1015.1 |
| 20260507052804 | 62 | 203 | 0.9 | 7.8 | 0.00 | 0.00 | 0.00 | 5 | 1015.1 |
| 20260507052704 | 62 | 202 | 0.9 | 7.8 | 0.00 | 0.00 | 0.00 | 6 | 1015.1 |
| 20260507052604 | 62 | 201 | 0.9 | 7.8 | 0.00 | 0.00 | 0.00 | 6 | 1015.2 |
| 20260507052504 | 62 | 201 | 0.9 | 7.8 | 0.00 | 0.00 | 0.00 | 7 | 1015.2 |
| 20260507052404 | 62 | 197 | 0.9 | 7.8 | 0.00 | 0.00 | 0.00 | 7 | 1015.3 |
| 20260507052306 | 62 | 201 | 0.9 | 7.8 | 0.00 | 0.00 | 0.00 | 7 | 1015.3 |
| 20260507052204 | 62 | 200 | 0.9 | 7.8 | 0.00 | 0.00 | 0.00 | 8 | 1015.3 |
| 20260507052104 | 62 | 196 | 0.9 | 7.0 | 0.00 | 0.00 | 0.00 | 8 | 1015.3 |
| 20260507052004 | 62 | 197 | 0.9 | 7.0 | 0.00 | 0.00 | 0.00 | 8 | 1015.3 |
| 20260507051925 | 62 | 198 | 0.9 | 7.0 | 0.00 | 0.00 | 0.00 | 8 | 1015.2 |
| 20260507051825 | 62 | 198 | 0.9 | 7.0 | 0.00 | 0.00 | 0.00 | 8 | 1015.2 |
| 20260507051704 | 62 | 201 | 0.9 | 9.6 | 0.00 | 0.00 | 0.00 | 9 | 1015.2 |
| 20260507051625 | 62 | 197 | 0.9 | 9.6 | 0.00 | 0.00 | 0.00 | 9 | 1015.2 |
| 20260507051504 | 62 | 196 | 0.9 | 9.6 | 0.00 | 0.00 | 0.00 | 9 | 1015.1 |
| 20260507051404 | 62 | 199 | 0.9 | 9.6 | 0.00 | 0.00 | 0.00 | 9 | 1015.1 |
| 20260507051325 | 62 | 198 | 0.9 | 9.6 | 0.00 | 0.00 | 0.00 | 9 | 1015.1 |
| 20260507051204 | 62 | 194 | 0.9 | 9.6 | 0.00 | 0.00 | 0.00 | 9 | 1015.1 |
| 20260507051104 | 62 | 193 | 0.9 | 9.6 | 0.00 | 0.00 | 0.00 | 10 | 1015.1 |
| 20260507051025 | 62 | 194 | 0.9 | 9.6 | 0.00 | 0.00 | 0.00 | 10 | 1015.2 |
| 20260507050904 | 62 | 195 | 0.9 | 9.6 | 0.00 | 0.00 | 0.00 | 10 | 1015.2 |
| 20260507050804 | 62 | 195 | 0.9 | 9.6 | 0.00 | 0.00 | 0.00 | 10 | 1015.2 |
| 20260507050725 | 62 | 189 | 1.7 | 9.6 | 0.00 | 0.00 | 0.00 | 10 | 1015.2 |
| 20260507050604 | 62 | 189 | 1.7 | 11.3 | 0.00 | 0.00 | 0.00 | 10 | 1015.1 |
| 20260507050504 | 62 | 190 | 1.7 | 11.3 | 0.00 | 0.00 | 0.00 | 10 | 1015.2 |
| 20260507050404 | 63 | 190 | 1.7 | 11.3 | 0.00 | 0.00 | 0.00 | 10 | 1015.1 |
| 20260507050304 | 63 | 192 | 1.7 | 11.3 | 0.00 | 0.00 | 0.00 | 10 | 1015.2 |
| 20260507050204 | 63 | 192 | 1.7 | 11.3 | 0.00 | 0.00 | 0.00 | 10 | 1015.2 |
| 20260507050104 | 63 | 193 | 1.7 | 11.3 | 0.00 | 0.00 | 0.00 | 10 | 1015.2 |
| 20260507050004 | 63 | 193 | 0.9 | 11.3 | 0.00 | 0.00 | 0.00 | 10 | 1015.3 |
| 20260507045904 | 63 | 192 | 0.9 | 11.3 | 0.00 | 0.00 | 0.00 | 10 | 1015.2 |
| 20260507045804 | 63 | 190 | 0.9 | 11.3 | 0.00 | 0.00 | 0.00 | 10 | 1015.2 |
| 20260507045725 | 63 | 191 | 0.9 | 11.3 | 0.00 | 0.00 | 0.00 | 10 | 1015.2 |
| 20260507045604 | 63 | 193 | 0.9 | 7.0 | 0.00 | 0.00 | 0.00 | 9 | 1015.2 |
| 20260507045504 | 63 | 192 | 0.9 | 7.0 | 0.00 | 0.00 | 0.00 | 9 | 1015.3 |
| 20260507045404 | 63 | 189 | 0.9 | 7.0 | 0.00 | 0.00 | 0.00 | 9 | 1015.3 |
| 20260507045306 | 63 | 188 | 1.7 | 9.6 | 0.00 | 0.00 | 0.00 | 7 | 1015.4 |
| 20260507045204 | 63 | 190 | 2.6 | 9.6 | 0.00 | 0.00 | 0.00 | 7 | 1015.5 |
| 20260507045104 | 63 | 190 | 2.6 | 11.3 | 0.00 | 0.00 | 0.00 | 6 | 1015.5 |
| 20260507045004 | 63 | 188 | 3.5 | 11.3 | 0.00 | 0.00 | 0.00 | 6 | 1015.5 |
| 20260507044904 | 63 | 187 | 3.5 | 11.3 | 0.00 | 0.00 | 0.00 | 5 | 1015.4 |
| 20260507044804 | 63 | 187 | 3.5 | 11.3 | 0.00 | 0.00 | 0.00 | 5 | 1015.5 |
| 20260507044704 | 63 | 188 | 3.5 | 11.3 | 0.00 | 0.00 | 0.00 | 4 | 1015.5 |
| 20260507044604 | 63 | 188 | 3.5 | 11.3 | 0.00 | 0.00 | 0.00 | 4 | 1015.5 |
| 20260507044504 | 63 | 188 | 4.3 | 11.3 | 0.00 | 0.00 | 0.00 | 4 | 1015.5 |
| 20260507044404 | 63 | 186 | 4.3 | 11.3 | 0.00 | 0.00 | 0.00 | 4 | 1015.5 |
| 20260507044304 | 63 | 184 | 4.3 | 11.3 | 0.00 | 0.00 | 0.00 | 4 | 1015.6 |
| 20260507044204 | 63 | 180 | 3.5 | 11.3 | 0.00 | 0.00 | 0.00 | 4 | 1015.7 |
| 20260507044104 | 63 | 177 | 3.5 | 10.4 | 0.00 | 0.00 | 0.00 | 3 | 1015.7 |
| 20260507044004 | 63 | 176 | 3.5 | 10.4 | 0.00 | 0.00 | 0.00 | 2 | 1015.7 |
| 20260507043904 | 63 | 178 | 3.5 | 10.4 | 0.00 | 0.00 | 0.00 | 1 | 1015.7 |
| 20260507043825 | 63 | 180 | 4.3 | 10.4 | 0.00 | 0.00 | 0.00 | 1 | 1015.6 |
| 20260507043704 | 63 | 180 | 4.3 | 10.4 | 0.00 | 0.00 | 0.00 | 1 | 1015.5 |
| 20260507043604 | 63 | 181 | 5.2 | 10.4 | 0.00 | 0.00 | 0.00 | 1 | 1015.5 |
| 20260507043504 | 63 | 181 | 5.2 | 10.4 | 0.00 | 0.00 | 0.00 | 1 | 1015.5 |
| 20260507043404 | 63 | 182 | 5.2 | 10.4 | 0.00 | 0.00 | 0.00 | 1 | 1015.5 |
| 20260507043304 | 63 | 182 | 4.3 | 10.4 | 0.00 | 0.00 | 0.00 | 1 | 1015.4 |
| 20260507043204 | 63 | 185 | 4.3 | 10.4 | 0.00 | 0.00 | 0.00 | 1 | 1015.4 |
| 20260507043125 | 63 | 186 | 3.5 | 10.4 | 0.00 | 0.00 | 0.00 | 1 | 1015.3 |
| 20260507043004 | 63 | 189 | 4.3 | 10.4 | 0.00 | 0.00 | 0.00 | 1 | 1015.3 |
| 20260507042925 | 63 | 191 | 3.5 | 10.4 | 0.00 | 0.00 | 0.00 | 1 | 1015.2 |
| 20260507042804 | 63 | 192 | 3.5 | 10.4 | 0.00 | 0.00 | 0.00 | 1 | 1015.2 |
| 20260507042704 | 63 | 192 | 4.3 | 11.3 | 0.00 | 0.00 | 0.00 | 1 | 1015.2 |
| 20260507042604 | 63 | 190 | 3.5 | 11.3 | 0.00 | 0.00 | 0.00 | 1 | 1015.1 |
| 20260507042504 | 63 | 191 | 2.6 | 11.3 | 0.00 | 0.00 | 0.00 | 1 | 1015.2 |
| 20260507042404 | 63 | 192 | 2.6 | 11.3 | 0.00 | 0.00 | 0.00 | 1 | 1015.1 |
| 20260507042306 | 63 | 188 | 3.5 | 11.3 | 0.00 | 0.00 | 0.00 | 1 | 1015.0 |
| 20260507042225 | 63 | 188 | 4.3 | 11.3 | 0.00 | 0.00 | 0.00 | 1 | 1015.0 |
| 20260507042104 | 63 | 187 | 4.3 | 11.3 | 0.00 | 0.00 | 0.00 | 1 | 1015.0 |
| 20260507042025 | 63 | 185 | 4.3 | 11.3 | 0.00 | 0.00 | 0.00 | 1 | 1015.0 |
| 20260507041904 | 63 | 182 | 4.3 | 11.3 | 0.00 | 0.00 | 0.00 | 1 | 1015.1 |
| 20260507041804 | 63 | 181 | 3.5 | 11.3 | 0.00 | 0.00 | 0.00 | 1 | 1015.2 |
| 20260507041725 | 63 | 180 | 2.6 | 10.4 | 0.00 | 0.00 | 0.00 | 1 | 1015.2 |
| 20260507041604 | 63 | 179 | 2.6 | 10.4 | 0.00 | 0.00 | 0.00 | 1 | 1015.3 |
| 20260507041504 | 63 | 179 | 2.6 | 10.4 | 0.00 | 0.00 | 0.00 | 1 | 1015.3 |
| 20260507041404 | 63 | 179 | 2.6 | 10.4 | 0.00 | 0.00 | 0.00 | 1 | 1015.2 |
| 20260507041304 | 63 | 182 | 1.7 | 10.4 | 0.00 | 0.00 | 0.00 | 1 | 1015.3 |
| 20260507041204 | 63 | 181 | 1.7 | 10.4 | 0.00 | 0.00 | 0.00 | 1 | 1015.2 |
| 20260507041104 | 63 | 182 | 0.9 | 10.4 | 0.00 | 0.00 | 0.00 | 1 | 1015.2 |
| 20260507041004 | 63 | 182 | 0.9 | 6.1 | 0.00 | 0.00 | 0.00 | 1 | 1015.1 |
| 20260507040904 | 63 | 186 | 0.0 | 6.1 | 0.00 | 0.00 | 0.00 | 1 | 1015.1 |
| 20260507040825 | 63 | 185 | 0.0 | 6.1 | 0.00 | 0.00 | 0.00 | 1 | 1015.2 |
| 20260507040705 | 63 | 180 | 0.0 | 5.2 | 0.00 | 0.00 | 0.00 | 1 | 1015.3 |
| 20260507040604 | 63 | 183 | 0.0 | 5.2 | 0.00 | 0.00 | 0.00 | 1 | 1015.3 |
| 20260507040504 | 63 | 180 | 0.0 | 3.5 | 0.00 | 0.00 | 0.00 | 1 | 1015.4 |
| 20260507040425 | 63 | 180 | 0.0 | 3.5 | 0.00 | 0.00 | 0.00 | 1 | 1015.5 |
| 20260507040304 | 63 | 178 | 0.0 | 3.5 | 0.00 | 0.00 | 0.00 | 1 | 1015.4 |
| 20260507040204 | 63 | 178 | 0.0 | 3.5 | 0.00 | 0.00 | 0.00 | 1 | 1015.4 |
| 20260507040125 | 63 | 179 | 0.0 | 3.5 | 0.00 | 0.00 | 0.00 | 1 | 1015.4 |
| 20260507040025 | 63 | 179 | 0.0 | 3.5 | 0.00 | 0.00 | 0.00 | 1 | 1015.4 |
| 20260507035904 | 63 | 179 | 0.0 | 2.6 | 0.00 | 0.00 | 0.00 | 1 | 1015.4 |
| 20260507035804 | 63 | 175 | 0.0 | 2.6 | 0.00 | 0.00 | 0.00 | 1 | 1015.3 |
| 20260507035704 | 63 | 175 | 0.0 | 2.6 | 0.00 | 0.00 | 0.00 | 1 | 1015.4 |
| 20260507035625 | 63 | 175 | 0.0 | 2.6 | 0.00 | 0.00 | 0.00 | 1 | 1015.5 |
| 20260507035504 | 63 | 184 | 0.0 | 0.9 | 0.00 | 0.00 | 0.00 | 1 | 1015.5 |
| 20260507035404 | 63 | 195 | 0.0 | 1.7 | 0.00 | 0.00 | 0.00 | 1 | 1015.5 |
| 20260507035306 | 63 | 195 | 0.0 | 1.7 | 0.00 | 0.00 | 0.00 | 1 | 1015.5 |
| 20260507035225 | 63 | 195 | 0.0 | 1.7 | 0.00 | 0.00 | 0.00 | 1 | 1015.4 |
| 20260507035104 | 63 | 200 | 0.0 | 1.7 | 0.00 | 0.00 | 0.00 | 1 | 1015.4 |
| 20260507035004 | 63 | 193 | 0.0 | 2.6 | 0.00 | 0.00 | 0.00 | 1 | 1015.4 |
| 20260507034904 | 63 | 184 | 0.0 | 2.6 | 0.00 | 0.00 | 0.00 | 1 | 1015.4 |
| 20260507034825 | 63 | 187 | 0.9 | 8.7 | 0.00 | 0.00 | 0.00 | 1 | 1015.3 |
| 20260507034725 | 63 | 180 | 0.9 | 10.4 | 0.00 | 0.00 | 0.00 | 1 | 1015.3 |
| 20260507034604 | 63 | 182 | 1.7 | 10.4 | 0.00 | 0.00 | 0.00 | 1 | 1015.2 |
| 20260507034504 | 63 | 178 | 1.7 | 10.4 | 0.00 | 0.00 | 0.00 | 1 | 1015.2 |
| 20260507034404 | 63 | 179 | 2.6 | 10.4 | 0.00 | 0.00 | 0.00 | 1 | 1015.3 |
| 20260507034304 | 63 | 176 | 2.6 | 10.4 | 0.00 | 0.00 | 0.00 | 1 | 1015.3 |
| 20260507034204 | 63 | 173 | 2.6 | 10.4 | 0.00 | 0.00 | 0.00 | 1 | 1015.3 |
| 20260507034125 | 63 | 173 | 3.5 | 10.4 | 0.00 | 0.00 | 0.00 | 1 | 1015.2 |
| 20260507034004 | 63 | 174 | 4.3 | 10.4 | 0.00 | 0.00 | 0.00 | 1 | 1015.1 |
| 20260507033904 | 63 | 175 | 4.3 | 10.4 | 0.00 | 0.00 | 0.00 | 1 | 1015.0 |
| 20260507033804 | 63 | 176 | 4.3 | 10.4 | 0.00 | 0.00 | 0.00 | 1 | 1014.9 |
| 20260507033704 | 63 | 175 | 5.2 | 11.3 | 0.00 | 0.00 | 0.00 | 1 | 1015.0 |
| 20260507033604 | 63 | 176 | 5.2 | 11.3 | 0.00 | 0.00 | 0.00 | 1 | 1015.1 |
| 20260507033504 | 63 | 177 | 5.2 | 11.3 | 0.00 | 0.00 | 0.00 | 1 | 1015.1 |
| 20260507033404 | 63 | 177 | 6.1 | 11.3 | 0.00 | 0.00 | 0.00 | 2 | 1015.2 |
| 20260507033304 | 63 | 178 | 6.1 | 11.3 | 0.00 | 0.00 | 0.00 | 2 | 1015.1 |
| 20260507033204 | 63 | 179 | 6.1 | 11.3 | 0.00 | 0.00 | 0.00 | 2 | 1015.1 |
| 20260507033104 | 63 | 179 | 6.1 | 11.3 | 0.00 | 0.00 | 0.00 | 3 | 1015.0 |
| 20260507033004 | 63 | 180 | 6.1 | 11.3 | 0.00 | 0.00 | 0.00 | 3 | 1015.0 |
| 20260507032904 | 63 | 181 | 6.1 | 11.3 | 0.00 | 0.00 | 0.00 | 3 | 1015.1 |
| 20260507032804 | 63 | 182 | 6.1 | 11.3 | 0.00 | 0.00 | 0.00 | 4 | 1015.1 |
| 20260507032704 | 63 | 180 | 5.2 | 10.4 | 0.00 | 0.00 | 0.00 | 3 | 1015.1 |
| 20260507032604 | 63 | 179 | 5.2 | 10.4 | 0.00 | 0.00 | 0.00 | 4 | 1015.2 |
| 20260507032525 | 63 | 178 | 5.2 | 11.3 | 0.00 | 0.00 | 0.00 | 3 | 1015.2 |
| 20260507032404 | 63 | 178 | 5.2 | 11.3 | 0.00 | 0.00 | 0.00 | 4 | 1015.3 |
| 20260507032306 | 63 | 177 | 5.2 | 11.3 | 0.00 | 0.00 | 0.00 | 4 | 1015.3 |
| 20260507032204 | 63 | 177 | 4.3 | 11.3 | 0.00 | 0.00 | 0.00 | 4 | 1015.3 |
| 20260507032104 | 63 | 177 | 4.3 | 11.3 | 0.00 | 0.00 | 0.00 | 4 | 1015.2 |
| 20260507032025 | 63 | 176 | 4.3 | 11.3 | 0.00 | 0.00 | 0.00 | 4 | 1015.3 |
| 20260507031904 | 63 | 170 | 3.5 | 11.3 | 0.00 | 0.00 | 0.00 | 4 | 1015.3 |
| 20260507031804 | 63 | 168 | 2.6 | 11.3 | 0.00 | 0.00 | 0.00 | 4 | 1015.4 |
| 20260507031704 | 63 | 170 | 2.6 | 11.3 | 0.00 | 0.00 | 0.00 | 5 | 1015.4 |
| 20260507031604 | 63 | 169 | 2.6 | 11.3 | 0.00 | 0.00 | 0.00 | 5 | 1015.3 |
| 20260507031525 | 63 | 169 | 2.6 | 10.4 | 0.00 | 0.00 | 0.00 | 4 | 1015.2 |
| 20260507031404 | 63 | 169 | 2.6 | 9.6 | 0.00 | 0.00 | 0.00 | 4 | 1015.1 |
| 20260507031304 | 63 | 171 | 2.6 | 9.6 | 0.00 | 0.00 | 0.00 | 4 | 1015.1 |
| 20260507031204 | 63 | 172 | 2.6 | 9.6 | 0.00 | 0.00 | 0.00 | 5 | 1015.0 |
| 20260507031104 | 63 | 174 | 3.5 | 9.6 | 0.00 | 0.00 | 0.00 | 4 | 1014.9 |
| 20260507031004 | 63 | 176 | 3.5 | 9.6 | 0.00 | 0.00 | 0.00 | 4 | 1014.8 |
| 20260507030904 | 63 | 177 | 3.5 | 8.7 | 0.00 | 0.00 | 0.00 | 4 | 1014.9 |
| 20260507030804 | 63 | 177 | 3.5 | 8.7 | 0.00 | 0.00 | 0.00 | 4 | 1014.9 |
| 20260507030704 | 63 | 176 | 3.5 | 8.7 | 0.00 | 0.00 | 0.00 | 4 | 1014.9 |
| 20260507030604 | 63 | 179 | 3.5 | 8.7 | 0.00 | 0.00 | 0.00 | 3 | 1015.0 |
| 20260507030504 | 63 | 179 | 3.5 | 8.7 | 0.00 | 0.00 | 0.00 | 3 | 1015.0 |
| 20260507030404 | 63 | 180 | 3.5 | 9.6 | 0.00 | 0.00 | 0.00 | 4 | 1015.0 |
| 20260507030304 | 63 | 179 | 3.5 | 9.6 | 0.00 | 0.00 | 0.00 | 3 | 1015.0 |
| 20260507030204 | 63 | 179 | 3.5 | 9.6 | 0.00 | 0.00 | 0.00 | 4 | 1015.0 |
| 20260507030125 | 63 | 178 | 2.6 | 9.6 | 0.00 | 0.00 | 0.00 | 4 | 1015.0 |
| 20260507030004 | 63 | 178 | 2.6 | 9.6 | 0.00 | 0.00 | 0.00 | 3 | 1015.0 |
| 20260507025904 | 63 | 179 | 2.6 | 9.6 | 0.00 | 0.00 | 0.00 | 3 | 1015.0 |
| 20260507025804 | 63 | 179 | 2.6 | 9.6 | 0.00 | 0.00 | 0.00 | 2 | 1014.8 |
| 20260507025704 | 63 | 181 | 1.7 | 9.6 | 0.00 | 0.00 | 0.00 | 3 | 1014.7 |
| 20260507025604 | 63 | 177 | 1.7 | 9.6 | 0.00 | 0.00 | 0.00 | 2 | 1014.6 |
| 20260507025504 | 63 | 174 | 0.9 | 9.6 | 0.00 | 0.00 | 0.00 | 1 | 1014.6 |
| 20260507025404 | 63 | 166 | 0.9 | 8.7 | 0.00 | 0.00 | 0.00 | 1 | 1014.7 |
| 20260507025325 | 63 | 164 | 0.9 | 8.7 | 0.00 | 0.00 | 0.00 | 1 | 1014.8 |
| 20260507025204 | 63 | 166 | 1.7 | 5.2 | 0.00 | 0.00 | 0.00 | 1 | 1014.9 |
| 20260507025104 | 63 | 162 | 1.7 | 5.2 | 0.00 | 0.00 | 0.00 | 1 | 1015.0 |
| 20260507025004 | 63 | 159 | 1.7 | 7.0 | 0.00 | 0.00 | 0.00 | 1 | 1015.0 |
| 20260507024904 | 63 | 156 | 1.7 | 8.7 | 0.00 | 0.00 | 0.00 | 1 | 1015.0 |
| 20260507024804 | 63 | 161 | 2.6 | 8.7 | 0.00 | 0.00 | 0.00 | 1 | 1015.1 |
| 20260507024725 | 63 | 159 | 2.6 | 8.7 | 0.00 | 0.00 | 0.00 | 1 | 1015.0 |
| 20260507024604 | 63 | 162 | 3.5 | 8.7 | 0.00 | 0.00 | 0.00 | 1 | 1015.0 |
| 20260507024504 | 63 | 162 | 3.5 | 8.7 | 0.00 | 0.00 | 0.00 | 1 | 1015.0 |
| 20260507024404 | 63 | 164 | 3.5 | 8.7 | 0.00 | 0.00 | 0.00 | 1 | 1015.0 |
| 20260507024304 | 63 | 164 | 3.5 | 8.7 | 0.00 | 0.00 | 0.00 | 1 | 1015.0 |
| 20260507024204 | 63 | 164 | 3.5 | 8.7 | 0.00 | 0.00 | 0.00 | 1 | 1014.9 |
| 20260507024125 | 63 | 166 | 3.5 | 8.7 | 0.00 | 0.00 | 0.00 | 1 | 1014.8 |
| 20260507024025 | 63 | 166 | 3.5 | 8.7 | 0.00 | 0.00 | 0.00 | 1 | 1014.7 |
| 20260507023904 | 63 | 165 | 3.5 | 10.4 | 0.00 | 0.00 | 0.00 | 1 | 1014.6 |
| 20260507023825 | 63 | 163 | 4.3 | 10.4 | 0.00 | 0.00 | 0.00 | 1 | 1014.6 |
| 20260507023725 | 63 | 163 | 3.5 | 10.4 | 0.00 | 0.00 | 0.00 | 1 | 1014.6 |
| 20260507023604 | 63 | 161 | 3.5 | 10.4 | 0.00 | 0.00 | 0.00 | 1 | 1014.7 |
| 20260507023504 | 63 | 161 | 3.5 | 10.4 | 0.00 | 0.00 | 0.00 | 1 | 1014.7 |
| 20260507023404 | 63 | 160 | 2.6 | 10.4 | 0.00 | 0.00 | 0.00 | 2 | 1014.7 |
| 20260507023304 | 63 | 159 | 2.6 | 10.4 | 0.00 | 0.00 | 0.00 | 2 | 1014.6 |
| 20260507023204 | 63 | 158 | 2.6 | 10.4 | 0.00 | 0.00 | 0.00 | 2 | 1014.5 |
| 20260507023104 | 63 | 157 | 1.7 | 10.4 | 0.00 | 0.00 | 0.00 | 2 | 1014.4 |
| 20260507023004 | 63 | 159 | 1.7 | 10.4 | 0.00 | 0.00 | 0.00 | 3 | 1014.5 |
| 20260507022904 | 63 | 163 | 0.9 | 10.4 | 0.00 | 0.00 | 0.00 | 3 | 1014.4 |
| 20260507022804 | 63 | 170 | 0.9 | 8.7 | 0.00 | 0.00 | 0.00 | 2 | 1014.4 |
| 20260507022725 | 63 | 174 | 0.9 | 7.0 | 0.00 | 0.00 | 0.00 | 2 | 1014.5 |
| 20260507022604 | 63 | 175 | 1.7 | 7.0 | 0.00 | 0.00 | 0.00 | 2 | 1014.5 |
| 20260507022504 | 63 | 173 | 2.6 | 7.8 | 0.00 | 0.00 | 0.00 | 2 | 1014.5 |
| 20260507022404 | 63 | 172 | 2.6 | 10.4 | 0.00 | 0.00 | 0.00 | 3 | 1014.4 |
| 20260507022306 | 63 | 172 | 2.6 | 10.4 | 0.00 | 0.00 | 0.00 | 3 | 1014.4 |
| 20260507022204 | 63 | 172 | 2.6 | 10.4 | 0.00 | 0.00 | 0.00 | 3 | 1014.4 |
| 20260507022103 | 63 | 172 | 2.6 | 10.4 | 0.00 | 0.00 | 0.00 | 3 | 1014.3 |
| 20260507022004 | 63 | 172 | 2.6 | 10.4 | 0.00 | 0.00 | 0.00 | 3 | 1014.4 |
| 20260507021904 | 63 | 172 | 1.7 | 10.4 | 0.00 | 0.00 | 0.00 | 3 | 1014.3 |
| 20260507021804 | 63 | 171 | 1.7 | 10.4 | 0.00 | 0.00 | 0.00 | 4 | 1014.3 |
| 20260507021704 | 63 | 168 | 1.7 | 10.4 | 0.00 | 0.00 | 0.00 | 4 | 1014.3 |
| 20260507021604 | 63 | 164 | 1.7 | 10.4 | 0.00 | 0.00 | 0.00 | 5 | 1014.4 |
| 20260507021504 | 63 | 162 | 0.9 | 10.4 | 0.00 | 0.00 | 0.00 | 4 | 1014.3 |
| 20260507021425 | 63 | 160 | 0.9 | 9.6 | 0.00 | 0.00 | 0.00 | 4 | 1014.3 |
| 20260507021304 | 63 | 158 | 0.9 | 9.6 | 0.00 | 0.00 | 0.00 | 4 | 1014.3 |
| 20260507021204 | 63 | 164 | 0.9 | 9.6 | 0.00 | 0.00 | 0.00 | 3 | 1014.4 |
| 20260507021104 | 63 | 164 | 0.9 | 9.6 | 0.00 | 0.00 | 0.00 | 4 | 1014.4 |
| 20260507021004 | 63 | 164 | 0.9 | 9.6 | 0.00 | 0.00 | 0.00 | 4 | 1014.4 |
| 20260507020904 | 63 | 164 | 0.9 | 9.6 | 0.00 | 0.00 | 0.00 | 4 | 1014.4 |
| 20260507020804 | 63 | 162 | 0.9 | 9.6 | 0.00 | 0.00 | 0.00 | 4 | 1014.5 |
| 20260507020704 | 63 | 167 | 1.7 | 9.6 | 0.00 | 0.00 | 0.00 | 4 | 1014.4 |
| 20260507020625 | 63 | 170 | 1.7 | 9.6 | 0.00 | 0.00 | 0.00 | 4 | 1014.4 |
| 20260507020504 | 63 | 170 | 1.7 | 9.6 | 0.00 | 0.00 | 0.00 | 4 | 1014.4 |
| 20260507020404 | 63 | 170 | 1.7 | 9.6 | 0.00 | 0.00 | 0.00 | 4 | 1014.3 |
| 20260507020304 | 63 | 170 | 1.7 | 9.6 | 0.00 | 0.00 | 0.00 | 5 | 1014.2 |
| 20260507020204 | 63 | 168 | 0.9 | 9.6 | 0.00 | 0.00 | 0.00 | 4 | 1014.2 |
| 20260507020104 | 63 | 167 | 0.9 | 9.6 | 0.00 | 0.00 | 0.00 | 5 | 1014.1 |
| 20260507020004 | 63 | 167 | 0.9 | 9.6 | 0.00 | 0.00 | 0.00 | 4 | 1014.0 |
| 20260507015904 | 63 | 167 | 0.9 | 9.6 | 0.00 | 0.00 | 0.00 | 5 | 1014.0 |
| 20260507015825 | 63 | 170 | 0.9 | 9.6 | 0.00 | 0.00 | 0.00 | 5 | 1013.9 |
| 20260507015704 | 63 | 163 | 0.0 | 8.7 | 0.00 | 0.00 | 0.00 | 6 | 1013.8 |
| 20260507015604 | 63 | 156 | 0.0 | 4.3 | 0.00 | 0.00 | 0.00 | 6 | 1013.9 |
| 20260507015504 | 63 | 157 | 0.0 | 4.3 | 0.00 | 0.00 | 0.00 | 6 | 1013.8 |
| 20260507015404 | 63 | 157 | 0.0 | 4.3 | 0.00 | 0.00 | 0.00 | 6 | 1013.9 |
| 20260507015306 | 63 | 157 | 0.0 | 4.3 | 0.00 | 0.00 | 0.00 | 7 | 1013.9 |
| 20260507015204 | 63 | 156 | 0.0 | 3.5 | 0.00 | 0.00 | 0.00 | 7 | 1013.8 |
| 20260507015104 | 63 | 165 | 0.0 | 1.7 | 0.00 | 0.00 | 0.00 | 7 | 1013.8 |
| 20260507015025 | 63 | 169 | 0.0 | 1.7 | 0.00 | 0.00 | 0.00 | 7 | 1013.8 |
| 20260507014904 | 63 | 155 | 0.0 | 1.7 | 0.00 | 0.00 | 0.00 | 7 | 1013.7 |
| 20260507014804 | 63 | 158 | 0.0 | 1.7 | 0.00 | 0.00 | 0.00 | 6 | 1013.8 |
| 20260507014704 | 63 | 156 | 0.0 | 1.7 | 0.00 | 0.00 | 0.00 | 7 | 1013.7 |
| 20260507014604 | 63 | 157 | 0.0 | 4.3 | 0.00 | 0.00 | 0.00 | 6 | 1013.8 |
| 20260507014525 | 63 | 167 | 0.0 | 4.3 | 0.00 | 0.00 | 0.00 | 7 | 1013.9 |
| 20260507014404 | 63 | 164 | 0.0 | 4.3 | 0.00 | 0.00 | 0.00 | 7 | 1014.0 |
| 20260507014304 | 63 | 164 | 0.0 | 4.3 | 0.00 | 0.00 | 0.00 | 7 | 1014.0 |
| 20260507014204 | 63 | 164 | 0.0 | 4.3 | 0.00 | 0.00 | 0.00 | 7 | 1013.9 |
| 20260507014104 | 63 | 164 | 0.0 | 4.3 | 0.00 | 0.00 | 0.00 | 7 | 1013.9 |
| 20260507014004 | 63 | 164 | 0.0 | 4.3 | 0.00 | 0.00 | 0.00 | 8 | 1013.8 |
| 20260507013904 | 63 | 164 | 0.0 | 4.3 | 0.00 | 0.00 | 0.00 | 9 | 1013.8 |
| 20260507013804 | 63 | 164 | 0.0 | 4.3 | 0.00 | 0.00 | 0.00 | 9 | 1013.8 |
| 20260507013704 | 63 | 164 | 0.0 | 4.3 | 0.00 | 0.00 | 0.00 | 10 | 1013.8 |
| 20260507013604 | 63 | 166 | 0.0 | 6.1 | 0.00 | 0.00 | 0.00 | 9 | 1013.6 |
| 20260507013504 | 63 | 166 | 0.0 | 6.1 | 0.00 | 0.00 | 0.00 | 9 | 1013.5 |
| 20260507013404 | 64 | 153 | 0.0 | 6.1 | 0.00 | 0.00 | 0.00 | 9 | 1013.4 |
| 20260507013304 | 63 | 153 | 0.0 | 6.1 | 0.00 | 0.00 | 0.00 | 9 | 1013.4 |
| 20260507013204 | 64 | 179 | 0.0 | 6.1 | 0.00 | 0.00 | 0.00 | 8 | 1013.4 |
| 20260507013104 | 64 | 179 | 0.0 | 6.1 | 0.00 | 0.00 | 0.00 | 8 | 1013.4 |
| 20260507013004 | 64 | 179 | 0.0 | 6.1 | 0.00 | 0.00 | 0.00 | 8 | 1013.5 |
| 20260507012904 | 64 | 179 | 0.0 | 6.1 | 0.00 | 0.00 | 0.00 | 8 | 1013.5 |
| 20260507012804 | 64 | 175 | 0.0 | 6.1 | 0.00 | 0.00 | 0.00 | 8 | 1013.4 |
| 20260507012704 | 63 | 175 | 0.0 | 6.1 | 0.00 | 0.00 | 0.00 | 8 | 1013.4 |
| 20260507012604 | 64 | 175 | 0.0 | 8.7 | 0.00 | 0.00 | 0.00 | 9 | 1013.3 |
| 20260507012504 | 63 | 173 | 0.0 | 8.7 | 0.00 | 0.00 | 0.00 | 9 | 1013.3 |
| 20260507012404 | 64 | 174 | 0.0 | 8.7 | 0.00 | 0.00 | 0.00 | 9 | 1013.4 |
| 20260507012306 | 64 | 171 | 0.0 | 8.7 | 0.00 | 0.00 | 0.00 | 9 | 1013.5 |
| 20260507012204 | 64 | 156 | 0.0 | 8.7 | 0.00 | 0.00 | 0.00 | 9 | 1013.4 |
| 20260507012104 | 64 | 152 | 0.0 | 8.7 | 0.00 | 0.00 | 0.00 | 8 | 1013.4 |
| 20260507012025 | 64 | 152 | 0.0 | 8.7 | 0.00 | 0.00 | 0.00 | 8 | 1013.3 |
| 20260507011904 | 63 | 153 | 0.0 | 8.7 | 0.00 | 0.00 | 0.00 | 9 | 1013.3 |
| 20260507011804 | 64 | 152 | 0.0 | 8.7 | 0.00 | 0.00 | 0.00 | 9 | 1013.2 |
| 20260507011704 | 64 | 151 | 0.9 | 8.7 | 0.00 | 0.00 | 0.00 | 9 | 1013.3 |
| 20260507011604 | 64 | 151 | 0.9 | 10.4 | 0.00 | 0.00 | 0.00 | 9 | 1013.2 |
| 20260507011504 | 64 | 151 | 0.9 | 10.4 | 0.00 | 0.00 | 0.00 | 9 | 1013.2 |
| 20260507011404 | 64 | 151 | 0.9 | 10.4 | 0.00 | 0.00 | 0.00 | 9 | 1013.2 |
| 20260507011304 | 64 | 151 | 0.9 | 10.4 | 0.00 | 0.00 | 0.00 | 9 | 1013.2 |
| 20260507011204 | 64 | 151 | 0.9 | 10.4 | 0.00 | 0.00 | 0.00 | 9 | 1013.2 |
| 20260507011125 | 64 | 151 | 0.9 | 10.4 | 0.00 | 0.00 | 0.00 | 9 | 1013.2 |
| 20260507010904 | 64 | 151 | 0.9 | 10.4 | 0.00 | 0.00 | 0.00 | 9 | 1013.2 |
| 20260507010804 | 64 | 151 | 0.9 | 10.4 | 0.00 | 0.00 | 0.00 | 10 | 1013.2 |
| 20260507010704 | 64 | 152 | 0.9 | 10.4 | 0.00 | 0.00 | 0.00 | 10 | 1013.2 |
| 20260507010604 | 64 | 151 | 0.0 | 7.8 | 0.00 | 0.00 | 0.00 | 9 | 1013.2 |
| 20260507010525 | 64 | 151 | 0.9 | 7.8 | 0.00 | 0.00 | 0.00 | 9 | 1013.3 |
| 20260507010404 | 64 | 154 | 0.9 | 7.8 | 0.00 | 0.00 | 0.00 | 8 | 1013.2 |
| 20260507010304 | 64 | 154 | 0.9 | 7.8 | 0.00 | 0.00 | 0.00 | 7 | 1013.2 |
| 20260507010204 | 64 | 153 | 0.9 | 7.8 | 0.00 | 0.00 | 0.00 | 8 | 1013.1 |
| 20260507010104 | 64 | 153 | 1.7 | 7.8 | 0.00 | 0.00 | 0.00 | 9 | 1013.0 |
| 20260507010004 | 64 | 159 | 1.7 | 7.8 | 0.00 | 0.00 | 0.00 | 8 | 1013.0 |
| 20260507005904 | 64 | 159 | 2.6 | 9.6 | 0.00 | 0.00 | 0.00 | 9 | 1013.0 |
| 20260507005825 | 64 | 159 | 3.5 | 10.4 | 0.00 | 0.00 | 0.00 | 8 | 1013.1 |
| 20260507005725 | 64 | 160 | 3.5 | 10.4 | 0.00 | 0.00 | 0.00 | 8 | 1013.0 |
| 20260507005625 | 64 | 161 | 3.5 | 10.4 | 0.00 | 0.00 | 0.00 | 8 | 1013.0 |
| 20260507005504 | 63 | 164 | 4.3 | 10.4 | 0.00 | 0.00 | 0.00 | 8 | 1012.9 |
| 20260507005404 | 63 | 164 | 4.3 | 10.4 | 0.00 | 0.00 | 0.00 | 8 | 1012.9 |
| 20260507005305 | 63 | 164 | 4.3 | 10.4 | 0.00 | 0.00 | 0.00 | 7 | 1012.9 |
| 20260507005204 | 63 | 163 | 5.2 | 10.4 | 0.00 | 0.00 | 0.00 | 7 | 1012.8 |
| 20260507005104 | 63 | 163 | 5.2 | 10.4 | 0.00 | 0.00 | 0.00 | 9 | 1012.8 |
| 20260507005004 | 63 | 160 | 5.2 | 10.4 | 0.00 | 0.00 | 0.00 | 9 | 1012.7 |
| 20260507004904 | 63 | 160 | 4.3 | 10.4 | 0.00 | 0.00 | 0.00 | 9 | 1012.7 |
| 20260507004804 | 63 | 160 | 4.3 | 9.6 | 0.00 | 0.00 | 0.00 | 9 | 1012.7 |
| 20260507004704 | 63 | 160 | 4.3 | 9.6 | 0.00 | 0.00 | 0.00 | 9 | 1012.8 |
| 20260507004604 | 63 | 160 | 4.3 | 12.2 | 0.00 | 0.00 | 0.00 | 9 | 1012.8 |
| 20260507004504 | 63 | 162 | 4.3 | 12.2 | 0.00 | 0.00 | 0.00 | 9 | 1012.8 |
| 20260507004404 | 63 | 162 | 4.3 | 12.2 | 0.00 | 0.00 | 0.00 | 9 | 1012.9 |
| 20260507004304 | 63 | 163 | 4.3 | 12.2 | 0.00 | 0.00 | 0.00 | 9 | 1012.9 |
| 20260507004204 | 64 | 164 | 3.5 | 12.2 | 0.00 | 0.00 | 0.00 | 8 | 1013.0 |
| 20260507004104 | 63 | 165 | 3.5 | 12.2 | 0.00 | 0.00 | 0.00 | 8 | 1013.0 |
| 20260507004004 | 63 | 169 | 2.6 | 12.2 | 0.00 | 0.00 | 0.00 | 8 | 1013.0 |
| 20260507003904 | 63 | 170 | 2.6 | 12.2 | 0.00 | 0.00 | 0.00 | 8 | 1013.0 |
| 20260507003804 | 63 | 173 | 2.6 | 12.2 | 0.00 | 0.00 | 0.00 | 9 | 1013.0 |
| 20260507003704 | 63 | 172 | 2.6 | 12.2 | 0.00 | 0.00 | 0.00 | 10 | 1012.7 |
| 20260507003604 | 64 | 174 | 1.7 | 11.3 | 0.00 | 0.00 | 0.00 | 10 | 1012.7 |
| 20260507003504 | 64 | 167 | 1.7 | 9.6 | 0.00 | 0.00 | 0.00 | 9 | 1012.8 |
| 20260507003404 | 64 | 165 | 1.7 | 9.6 | 0.00 | 0.00 | 0.00 | 8 | 1012.8 |
| 20260507003304 | 64 | 162 | 2.6 | 11.3 | 0.00 | 0.00 | 0.00 | 7 | 1012.8 |
| 20260507003204 | 64 | 161 | 3.5 | 11.3 | 0.00 | 0.00 | 0.00 | 6 | 1012.9 |
| 20260507003104 | 64 | 161 | 4.3 | 11.3 | 0.00 | 0.00 | 0.00 | 7 | 1012.9 |
| 20260507003004 | 63 | 160 | 4.3 | 11.3 | 0.00 | 0.00 | 0.00 | 7 | 1013.0 |
| 20260507002925 | 63 | 160 | 5.2 | 11.3 | 0.00 | 0.00 | 0.00 | 7 | 1012.9 |
| 20260507002804 | 63 | 160 | 5.2 | 11.3 | 0.00 | 0.00 | 0.00 | 7 | 1012.9 |
| 20260507002704 | 63 | 160 | 4.3 | 11.3 | 0.00 | 0.00 | 0.00 | 8 | 1012.9 |
| 20260507002604 | 63 | 159 | 4.3 | 11.3 | 0.00 | 0.00 | 0.00 | 8 | 1012.9 |
| 20260507002504 | 63 | 159 | 3.5 | 11.3 | 0.00 | 0.00 | 0.00 | 8 | 1012.9 |
| 20260507002404 | 63 | 159 | 3.5 | 11.3 | 0.00 | 0.00 | 0.00 | 8 | 1012.9 |
| 20260507002306 | 63 | 160 | 2.6 | 9.6 | 0.00 | 0.00 | 0.00 | 8 | 1012.9 |
| 20260507002204 | 63 | 161 | 1.7 | 9.6 | 0.00 | 0.00 | 0.00 | 8 | 1012.8 |
| 20260507002125 | 63 | 161 | 1.7 | 8.7 | 0.00 | 0.00 | 0.00 | 8 | 1012.6 |
| 20260507002004 | 63 | 167 | 0.9 | 8.7 | 0.00 | 0.00 | 0.00 | 8 | 1012.6 |
| 20260507001925 | 63 | 169 | 0.0 | 8.7 | 0.00 | 0.00 | 0.00 | 7 | 1012.6 |
| 20260507001804 | 63 | 154 | 0.0 | 2.6 | 0.00 | 0.00 | 0.00 | 7 | 1012.6 |
| 20260507001704 | 63 | 154 | 0.0 | 2.6 | 0.00 | 0.00 | 0.00 | 6 | 1012.6 |
| 20260507001604 | 63 | 158 | 0.0 | 2.6 | 0.00 | 0.00 | 0.00 | 7 | 1012.7 |
| 20260507001504 | 63 | 171 | 0.0 | 2.6 | 0.00 | 0.00 | 0.00 | 7 | 1012.8 |
| 20260507001404 | 63 | 171 | 0.0 | 2.6 | 0.00 | 0.00 | 0.00 | 6 | 1012.8 |
| 20260507001304 | 63 | 176 | 0.0 | 2.6 | 0.00 | 0.00 | 0.00 | 6 | 1012.9 |
| 20260507001204 | 63 | 173 | 0.9 | 7.8 | 0.00 | 0.00 | 0.00 | 6 | 1012.9 |
| 20260507001104 | 63 | 179 | 0.9 | 9.6 | 0.00 | 0.00 | 0.00 | 6 | 1012.9 |
| 20260507001004 | 63 | 179 | 1.7 | 9.6 | 0.00 | 0.00 | 0.00 | 7 | 1012.8 |
| 20260507000904 | 63 | 175 | 1.7 | 9.6 | 0.00 | 0.00 | 0.00 | 7 | 1012.7 |
| 20260507000804 | 63 | 175 | 1.7 | 9.6 | 0.00 | 0.00 | 0.00 | 7 | 1012.7 |
| 20260507000704 | 63 | 175 | 1.7 | 9.6 | 0.00 | 0.00 | 0.00 | 7 | 1012.6 |
| 20260507000604 | 63 | 173 | 2.6 | 9.6 | 0.00 | 0.00 | 0.00 | 6 | 1012.7 |
| 20260507000504 | 63 | 170 | 2.6 | 9.6 | 0.00 | 0.00 | 0.00 | 7 | 1012.6 |
| 20260507000405 | 63 | 170 | 2.6 | 9.6 | 0.00 | 0.00 | 0.00 | 7 | 1012.6 |
| 20260507000306 | 63 | 169 | 3.5 | 9.6 | 0.00 | 0.00 | 0.00 | 6 | 1012.6 |
| 20260507000226 | 63 | 168 | 3.5 | 9.6 | 0.00 | 0.00 | 0.00 | 6 | 1012.5 |
| 20260507000104 | 63 | 165 | 3.5 | 9.6 | 0.00 | 0.00 | 0.00 | 5 | 1012.5 |
| 20260507000004 | 63 | 162 | 2.6 | 9.6 | 0.00 | 0.00 | 0.00 | 5 | 1012.4 |
| 20260506235904 | 63 | 160 | 3.5 | 9.6 | 0.00 | 0.00 | 0.00 | 4 | 1012.5 |
| 20260506235804 | 63 | 163 | 3.5 | 9.6 | 0.00 | 0.00 | 0.00 | 4 | 1012.6 |
| 20260506235704 | 63 | 163 | 3.5 | 9.6 | 0.00 | 0.00 | 0.00 | 4 | 1012.8 |
| 20260506235625 | 63 | 164 | 4.3 | 9.6 | 0.00 | 0.00 | 0.00 | 4 | 1012.8 |
| 20260506235504 | 63 | 166 | 4.3 | 9.6 | 0.00 | 0.00 | 0.00 | 4 | 1012.9 |
| 20260506235404 | 63 | 168 | 4.3 | 9.6 | 0.00 | 0.00 | 0.00 | 4 | 1012.9 |
| 20260506235325 | 63 | 167 | 5.2 | 9.6 | 0.00 | 0.00 | 0.00 | 4 | 1012.9 |
| 20260506235205 | 63 | 168 | 5.2 | 11.3 | 0.00 | 0.00 | 0.00 | 5 | 1012.9 |
| 20260506235104 | 63 | 169 | 5.2 | 11.3 | 0.00 | 0.00 | 0.00 | 5 | 1012.8 |
| 20260506235004 | 63 | 170 | 5.2 | 11.3 | 0.00 | 0.00 | 0.00 | 5 | 1012.7 |
| 20260506234904 | 63 | 171 | 5.2 | 11.3 | 0.00 | 0.00 | 0.00 | 6 | 1012.7 |
| 20260506234804 | 63 | 173 | 5.2 | 11.3 | 0.00 | 0.00 | 0.00 | 5 | 1012.6 |
| 20260506234704 | 63 | 175 | 6.1 | 11.3 | 0.00 | 0.00 | 0.00 | 6 | 1012.5 |
| 20260506234625 | 63 | 175 | 6.1 | 11.3 | 0.00 | 0.00 | 0.00 | 6 | 1012.5 |
| 20260506234525 | 63 | 174 | 5.2 | 11.3 | 0.00 | 0.00 | 0.00 | 6 | 1012.5 |
| 20260506234404 | 63 | 172 | 5.2 | 11.3 | 0.00 | 0.00 | 0.00 | 7 | 1012.5 |
| 20260506234304 | 63 | 171 | 5.2 | 11.3 | 0.00 | 0.00 | 0.00 | 7 | 1012.5 |
| 20260506234225 | 63 | 173 | 5.2 | 10.4 | 0.00 | 0.00 | 0.00 | 7 | 1012.5 |
| 20260506234125 | 63 | 173 | 5.2 | 10.4 | 0.00 | 0.00 | 0.00 | 7 | 1012.5 |
| 20260506234004 | 63 | 170 | 6.1 | 12.2 | 0.00 | 0.00 | 0.00 | 5 | 1012.6 |
| 20260506233904 | 63 | 169 | 6.1 | 12.2 | 0.00 | 0.00 | 0.00 | 5 | 1012.6 |
| 20260506233804 | 63 | 169 | 6.1 | 12.2 | 0.00 | 0.00 | 0.00 | 5 | 1012.6 |
| 20260506233704 | 63 | 168 | 6.1 | 12.2 | 0.00 | 0.00 | 0.00 | 5 | 1012.6 |
| 20260506233604 | 63 | 168 | 6.1 | 12.2 | 0.00 | 0.00 | 0.00 | 4 | 1012.6 |
| 20260506233525 | 63 | 169 | 7.0 | 12.2 | 0.00 | 0.00 | 0.00 | 4 | 1012.6 |
| 20260506233425 | 63 | 169 | 7.0 | 12.2 | 0.00 | 0.00 | 0.00 | 6 | 1012.5 |
| 20260506233304 | 63 | 172 | 6.1 | 12.2 | 0.00 | 0.00 | 0.00 | 6 | 1012.6 |
| 20260506233204 | 63 | 170 | 6.1 | 12.2 | 0.00 | 0.00 | 0.00 | 6 | 1012.6 |
| 20260506233104 | 63 | 170 | 6.1 | 12.2 | 0.00 | 0.00 | 0.00 | 7 | 1012.5 |
| 20260506233004 | 63 | 173 | 6.1 | 12.2 | 0.00 | 0.00 | 0.00 | 7 | 1012.5 |
| 20260506232904 | 63 | 175 | 6.1 | 11.3 | 0.00 | 0.00 | 0.00 | 7 | 1012.5 |
| 20260506232804 | 63 | 173 | 5.2 | 10.4 | 0.00 | 0.00 | 0.00 | 6 | 1012.5 |
| 20260506232704 | 63 | 171 | 5.2 | 10.4 | 0.00 | 0.00 | 0.00 | 5 | 1012.6 |
| 20260506232604 | 63 | 170 | 5.2 | 10.4 | 0.00 | 0.00 | 0.00 | 5 | 1012.7 |
| 20260506232504 | 63 | 170 | 5.2 | 10.4 | 0.00 | 0.00 | 0.00 | 4 | 1012.7 |
| 20260506232404 | 63 | 167 | 5.2 | 11.3 | 0.00 | 0.00 | 0.00 | 5 | 1012.7 |
| 20260506232325 | 63 | 165 | 5.2 | 11.3 | 0.00 | 0.00 | 0.00 | 5 | 1012.6 |
| 20260506232204 | 63 | 165 | 5.2 | 11.3 | 0.00 | 0.00 | 0.00 | 6 | 1012.6 |
| 20260506232104 | 63 | 165 | 5.2 | 11.3 | 0.00 | 0.00 | 0.00 | 6 | 1012.4 |
| 20260506232004 | 63 | 164 | 5.2 | 11.3 | 0.00 | 0.00 | 0.00 | 6 | 1012.4 |
| 20260506231904 | 63 | 161 | 5.2 | 11.3 | 0.00 | 0.00 | 0.00 | 7 | 1012.4 |
| 20260506231804 | 63 | 160 | 5.2 | 11.3 | 0.00 | 0.00 | 0.00 | 7 | 1012.4 |
| 20260506231704 | 63 | 161 | 5.2 | 11.3 | 0.00 | 0.00 | 0.00 | 5 | 1012.5 |
| 20260506231604 | 63 | 162 | 5.2 | 11.3 | 0.00 | 0.00 | 0.00 | 7 | 1012.5 |
| 20260506231504 | 63 | 162 | 5.2 | 11.3 | 0.00 | 0.00 | 0.00 | 8 | 1012.4 |
| 20260506231404 | 63 | 166 | 5.2 | 10.4 | 0.00 | 0.00 | 0.00 | 8 | 1012.4 |
| 20260506231304 | 63 | 166 | 5.2 | 10.4 | 0.00 | 0.00 | 0.00 | 8 | 1012.4 |
| 20260506231204 | 63 | 166 | 4.3 | 9.6 | 0.00 | 0.00 | 0.00 | 8 | 1012.5 |
| 20260506231104 | 63 | 166 | 3.5 | 9.6 | 0.00 | 0.00 | 0.00 | 8 | 1012.5 |
| 20260506231004 | 63 | 164 | 3.5 | 9.6 | 0.00 | 0.00 | 0.00 | 7 | 1012.6 |
| 20260506230904 | 63 | 167 | 3.5 | 9.6 | 0.00 | 0.00 | 0.00 | 6 | 1012.7 |
| 20260506230804 | 63 | 167 | 4.3 | 9.6 | 0.00 | 0.00 | 0.00 | 7 | 1012.6 |
| 20260506230725 | 63 | 168 | 4.3 | 9.6 | 0.00 | 0.00 | 0.00 | 8 | 1012.7 |
| 20260506230604 | 63 | 166 | 3.5 | 11.3 | 0.00 | 0.00 | 0.00 | 9 | 1012.6 |
| 20260506230504 | 63 | 163 | 3.5 | 11.3 | 0.00 | 0.00 | 0.00 | 9 | 1012.6 |
| 20260506230405 | 63 | 161 | 4.3 | 11.3 | 0.00 | 0.00 | 0.00 | 7 | 1012.5 |
| 20260506230304 | 63 | 161 | 4.3 | 11.3 | 0.00 | 0.00 | 0.00 | 6 | 1012.4 |
| 20260506230204 | 63 | 159 | 5.2 | 11.3 | 0.00 | 0.00 | 0.00 | 7 | 1012.4 |
| 20260506230104 | 63 | 158 | 6.1 | 11.3 | 0.00 | 0.00 | 0.00 | 9 | 1012.4 |
| 20260506230004 | 63 | 159 | 6.1 | 11.3 | 0.00 | 0.00 | 0.00 | 9 | 1012.4 |
| 20260506225904 | 63 | 158 | 6.1 | 11.3 | 0.00 | 0.00 | 0.00 | 9 | 1012.4 |
| 20260506225804 | 63 | 158 | 5.2 | 11.3 | 0.00 | 0.00 | 0.00 | 9 | 1012.5 |
| 20260506225704 | 63 | 156 | 5.2 | 11.3 | 0.00 | 0.00 | 0.00 | 8 | 1012.5 |
| 20260506225604 | 63 | 156 | 5.2 | 13.0 | 0.00 | 0.00 | 0.00 | 8 | 1012.4 |
| 20260506225504 | 63 | 155 | 5.2 | 13.0 | 0.00 | 0.00 | 0.00 | 10 | 1012.5 |
| 20260506225404 | 63 | 153 | 5.2 | 13.0 | 0.00 | 0.00 | 0.00 | 10 | 1012.4 |
| 20260506225305 | 63 | 153 | 5.2 | 13.0 | 0.00 | 0.00 | 0.00 | 11 | 1012.4 |
| 20260506225204 | 63 | 155 | 5.2 | 13.0 | 0.00 | 0.00 | 0.00 | 10 | 1012.4 |
| 20260506225104 | 63 | 156 | 5.2 | 13.0 | 0.00 | 0.00 | 0.00 | 9 | 1012.4 |
| 20260506225004 | 63 | 156 | 6.1 | 13.0 | 0.00 | 0.00 | 0.00 | 8 | 1012.4 |
| 20260506224904 | 63 | 155 | 6.1 | 13.0 | 0.00 | 0.00 | 0.00 | 8 | 1012.5 |
| 20260506224804 | 63 | 155 | 6.1 | 13.0 | 0.00 | 0.00 | 0.00 | 8 | 1012.5 |
| 20260506224704 | 63 | 156 | 6.1 | 13.0 | 0.00 | 0.00 | 0.00 | 9 | 1012.5 |
| 20260506224604 | 63 | 157 | 7.0 | 13.0 | 0.00 | 0.00 | 0.00 | 10 | 1012.5 |
| 20260506224504 | 63 | 159 | 7.0 | 13.0 | 0.00 | 0.00 | 0.00 | 11 | 1012.5 |
| 20260506224404 | 63 | 160 | 7.0 | 13.0 | 0.00 | 0.00 | 0.00 | 10 | 1012.4 |
| 20260506224304 | 63 | 160 | 7.0 | 13.0 | 0.00 | 0.00 | 0.00 | 12 | 1012.4 |
| 20260506224204 | 63 | 158 | 7.0 | 13.0 | 0.00 | 0.00 | 0.00 | 12 | 1012.4 |
| 20260506224104 | 63 | 159 | 7.0 | 13.0 | 0.00 | 0.00 | 0.00 | 12 | 1012.3 |
| 20260506224004 | 63 | 158 | 6.1 | 13.0 | 0.00 | 0.00 | 0.00 | 11 | 1012.3 |
| 20260506223904 | 63 | 160 | 6.1 | 13.0 | 0.00 | 0.00 | 0.00 | 12 | 1012.3 |
| 20260506223804 | 63 | 162 | 6.1 | 13.0 | 0.00 | 0.00 | 0.00 | 12 | 1012.3 |
| 20260506223704 | 63 | 162 | 6.1 | 13.0 | 0.00 | 0.00 | 0.00 | 13 | 1012.2 |
| 20260506223625 | 63 | 162 | 6.1 | 13.0 | 0.00 | 0.00 | 0.00 | 13 | 1012.2 |
| 20260506223525 | 63 | 161 | 6.1 | 14.8 | 0.00 | 0.00 | 0.00 | 14 | 1012.2 |
| 20260506223404 | 63 | 160 | 6.1 | 14.8 | 0.00 | 0.00 | 0.00 | 13 | 1012.2 |
| 20260506223304 | 63 | 161 | 6.1 | 14.8 | 0.00 | 0.00 | 0.00 | 14 | 1012.2 |
| 20260506223204 | 63 | 161 | 6.1 | 14.8 | 0.00 | 0.00 | 0.00 | 13 | 1012.2 |
| 20260506223104 | 63 | 163 | 6.1 | 14.8 | 0.00 | 0.00 | 0.00 | 14 | 1012.3 |
| 20260506223004 | 63 | 163 | 6.1 | 14.8 | 0.00 | 0.00 | 0.00 | 15 | 1012.2 |
| 20260506222904 | 63 | 163 | 6.1 | 14.8 | 0.00 | 0.00 | 0.00 | 13 | 1012.3 |
| 20260506222804 | 63 | 161 | 7.0 | 14.8 | 0.00 | 0.00 | 0.00 | 14 | 1012.3 |
| 20260506222704 | 63 | 161 | 6.1 | 14.8 | 0.00 | 0.00 | 0.00 | 16 | 1012.3 |
| 20260506222604 | 63 | 162 | 6.1 | 14.8 | 0.00 | 0.00 | 0.00 | 16 | 1012.3 |
| 20260506222504 | 63 | 163 | 6.1 | 13.0 | 0.00 | 0.00 | 0.00 | 16 | 1012.4 |
| 20260506222404 | 63 | 162 | 7.0 | 13.0 | 0.00 | 0.00 | 0.00 | 17 | 1012.4 |
| 20260506222306 | 63 | 166 | 7.0 | 13.0 | 0.00 | 0.00 | 0.00 | 17 | 1012.4 |
| 20260506222204 | 63 | 169 | 7.0 | 13.0 | 0.00 | 0.00 | 0.00 | 17 | 1012.4 |
| 20260506222104 | 64 | 169 | 7.0 | 14.8 | 0.00 | 0.00 | 0.00 | 18 | 1012.4 |
| 20260506222004 | 64 | 169 | 7.0 | 14.8 | 0.00 | 0.00 | 0.00 | 17 | 1012.4 |
| 20260506221904 | 64 | 169 | 7.0 | 14.8 | 0.00 | 0.00 | 0.00 | 16 | 1012.4 |
| 20260506221804 | 64 | 169 | 7.8 | 14.8 | 0.00 | 0.00 | 0.00 | 15 | 1012.4 |
| 20260506221704 | 64 | 170 | 7.8 | 14.8 | 0.00 | 0.00 | 0.00 | 16 | 1012.4 |
| 20260506221604 | 64 | 171 | 7.8 | 14.8 | 0.00 | 0.00 | 0.00 | 16 | 1012.4 |
| 20260506221504 | 64 | 170 | 7.8 | 14.8 | 0.00 | 0.00 | 0.00 | 16 | 1012.4 |
| 20260506221404 | 64 | 170 | 7.0 | 14.8 | 0.00 | 0.00 | 0.00 | 20 | 1012.4 |
| 20260506221304 | 64 | 168 | 6.1 | 14.8 | 0.00 | 0.00 | 0.00 | 20 | 1012.4 |
| 20260506221204 | 64 | 166 | 6.1 | 14.8 | 0.00 | 0.00 | 0.00 | 20 | 1012.4 |
| 20260506221125 | 64 | 164 | 6.1 | 13.9 | 0.00 | 0.00 | 0.00 | 19 | 1012.4 |
| 20260506221004 | 64 | 166 | 6.1 | 13.0 | 0.00 | 0.00 | 0.00 | 21 | 1012.3 |
| 20260506220904 | 64 | 168 | 6.1 | 14.8 | 0.00 | 0.00 | 0.00 | 20 | 1012.4 |
| 20260506220825 | 64 | 169 | 5.2 | 14.8 | 0.00 | 0.00 | 0.00 | 20 | 1012.3 |
| 20260506220704 | 64 | 169 | 4.3 | 14.8 | 0.00 | 0.00 | 0.00 | 17 | 1012.3 |
| 20260506220604 | 64 | 169 | 5.2 | 14.8 | 0.00 | 0.00 | 0.00 | 17 | 1012.2 |
| 20260506220504 | 64 | 171 | 5.2 | 14.8 | 0.00 | 0.00 | 0.00 | 19 | 1012.2 |
| 20260506220404 | 64 | 170 | 5.2 | 14.8 | 0.00 | 0.00 | 0.00 | 18 | 1012.2 |
| 20260506220304 | 64 | 169 | 6.1 | 14.8 | 0.00 | 0.00 | 0.00 | 19 | 1012.2 |
| 20260506220204 | 64 | 168 | 6.1 | 14.8 | 0.00 | 0.00 | 0.00 | 19 | 1012.2 |
| 20260506220104 | 64 | 167 | 6.1 | 14.8 | 0.00 | 0.00 | 0.00 | 21 | 1012.2 |
| 20260506220004 | 64 | 169 | 6.1 | 14.8 | 0.00 | 0.00 | 0.00 | 22 | 1012.2 |
| 20260506215904 | 64 | 167 | 6.1 | 14.8 | 0.00 | 0.00 | 0.00 | 22 | 1012.2 |
| 20260506215825 | 64 | 167 | 7.0 | 14.8 | 0.00 | 0.00 | 0.00 | 22 | 1012.2 |
| 20260506215704 | 64 | 168 | 7.0 | 14.8 | 0.00 | 0.00 | 0.00 | 19 | 1012.2 |
| 20260506215625 | 64 | 169 | 7.8 | 14.8 | 0.00 | 0.00 | 0.00 | 19 | 1012.2 |
| 20260506215504 | 64 | 168 | 7.8 | 14.8 | 0.00 | 0.00 | 0.00 | 19 | 1012.3 |
| 20260506215404 | 64 | 168 | 7.8 | 14.8 | 0.00 | 0.00 | 0.00 | 20 | 1012.2 |
| 20260506215306 | 64 | 169 | 7.8 | 14.8 | 0.00 | 0.00 | 0.00 | 21 | 1012.2 |
| 20260506215225 | 64 | 170 | 7.0 | 14.8 | 0.00 | 0.00 | 0.00 | 21 | 1012.2 |
| 20260506215104 | 64 | 170 | 7.0 | 14.8 | 0.00 | 0.00 | 0.00 | 19 | 1012.2 |
| 20260506215004 | 64 | 168 | 7.8 | 14.8 | 0.00 | 0.00 | 0.00 | 21 | 1012.2 |
| 20260506214904 | 64 | 167 | 7.8 | 15.6 | 0.00 | 0.00 | 0.00 | 21 | 1012.2 |
| 20260506214804 | 64 | 167 | 7.8 | 15.6 | 0.00 | 0.00 | 0.00 | 21 | 1012.2 |
| 20260506214704 | 64 | 168 | 7.0 | 15.6 | 0.00 | 0.00 | 0.00 | 21 | 1012.1 |
| 20260506214604 | 64 | 169 | 7.0 | 15.6 | 0.00 | 0.00 | 0.00 | 21 | 1012.2 |
| 20260506214503 | 64 | 171 | 7.0 | 15.6 | 0.00 | 0.00 | 0.00 | 19 | 1012.1 |
| 20260506214404 | 64 | 174 | 7.0 | 15.6 | 0.00 | 0.00 | 0.00 | 20 | 1012.1 |
| 20260506214304 | 64 | 173 | 7.8 | 15.6 | 0.00 | 0.00 | 0.00 | 21 | 1012.1 |
| 20260506214204 | 64 | 171 | 7.8 | 15.6 | 0.00 | 0.00 | 0.00 | 22 | 1012.0 |
| 20260506214104 | 64 | 172 | 8.7 | 15.6 | 0.00 | 0.00 | 0.00 | 21 | 1012.0 |
| 20260506214004 | 64 | 172 | 8.7 | 15.6 | 0.00 | 0.00 | 0.00 | 23 | 1012.0 |
| 20260506213904 | 64 | 172 | 7.8 | 13.9 | 0.00 | 0.00 | 0.00 | 23 | 1012.0 |
| 20260506213804 | 64 | 173 | 7.8 | 13.9 | 0.00 | 0.00 | 0.00 | 22 | 1012.0 |
| 20260506213704 | 64 | 171 | 7.8 | 13.0 | 0.00 | 0.00 | 0.00 | 23 | 1012.1 |
| 20260506213604 | 64 | 171 | 7.8 | 13.0 | 0.00 | 0.00 | 0.00 | 23 | 1012.2 |
| 20260506213504 | 64 | 171 | 7.8 | 13.0 | 0.00 | 0.00 | 0.00 | 24 | 1012.2 |
| 20260506213404 | 64 | 168 | 7.8 | 13.0 | 0.00 | 0.00 | 0.00 | 24 | 1012.2 |
| 20260506213304 | 64 | 168 | 7.8 | 13.0 | 0.00 | 0.00 | 0.00 | 25 | 1012.2 |
| 20260506213204 | 64 | 170 | 7.8 | 13.0 | 0.00 | 0.00 | 0.00 | 25 | 1012.2 |
| 20260506213104 | 64 | 171 | 7.0 | 13.0 | 0.00 | 0.00 | 0.00 | 25 | 1012.3 |
| 20260506213004 | 64 | 172 | 6.1 | 13.0 | 0.00 | 0.00 | 0.00 | 25 | 1012.3 |
| 20260506212904 | 64 | 172 | 5.2 | 13.0 | 0.00 | 0.00 | 0.00 | 24 | 1012.3 |
| 20260506212804 | 64 | 171 | 5.2 | 13.0 | 0.00 | 0.00 | 0.00 | 25 | 1012.4 |
| 20260506212704 | 65 | 173 | 4.3 | 13.0 | 0.00 | 0.00 | 0.00 | 26 | 1012.2 |
| 20260506212604 | 65 | 172 | 3.5 | 12.2 | 0.00 | 0.00 | 0.00 | 26 | 1012.3 |
| 20260506212504 | 65 | 172 | 3.5 | 12.2 | 0.00 | 0.00 | 0.00 | 25 | 1012.2 |
| 20260506212404 | 65 | 174 | 2.6 | 11.3 | 0.00 | 0.00 | 0.00 | 24 | 1012.3 |
| 20260506212306 | 65 | 178 | 1.7 | 11.3 | 0.00 | 0.00 | 0.00 | 24 | 1012.3 |
| 20260506212225 | 65 | 181 | 0.9 | 11.3 | 0.00 | 0.00 | 0.00 | 24 | 1012.3 |
| 20260506212104 | 65 | 173 | 0.9 | 9.6 | 0.00 | 0.00 | 0.00 | 25 | 1012.3 |
| 20260506212025 | 65 | 174 | 0.9 | 9.6 | 0.00 | 0.00 | 0.00 | 25 | 1012.4 |
| 20260506211904 | 65 | 165 | 1.7 | 9.6 | 0.00 | 0.00 | 0.00 | 28 | 1012.4 |
| 20260506211804 | 65 | 157 | 1.7 | 13.9 | 0.00 | 0.00 | 0.00 | 26 | 1012.4 |
| 20260506211704 | 65 | 156 | 2.6 | 13.9 | 0.00 | 0.00 | 0.00 | 27 | 1012.4 |
| 20260506211625 | 65 | 155 | 2.6 | 13.9 | 0.00 | 0.00 | 0.00 | 27 | 1012.3 |
| 20260506211504 | 65 | 155 | 3.5 | 13.9 | 0.00 | 0.00 | 0.00 | 26 | 1012.4 |
| 20260506211404 | 65 | 156 | 4.3 | 13.9 | 0.00 | 0.00 | 0.00 | 26 | 1012.4 |
| 20260506211304 | 65 | 156 | 5.2 | 13.9 | 0.00 | 0.00 | 0.00 | 27 | 1012.3 |
| 20260506211204 | 65 | 157 | 5.2 | 13.9 | 0.00 | 0.00 | 0.00 | 26 | 1012.3 |
| 20260506211104 | 65 | 157 | 5.2 | 13.9 | 0.00 | 0.00 | 0.00 | 27 | 1012.3 |
| 20260506211025 | 65 | 157 | 5.2 | 13.9 | 0.00 | 0.00 | 0.00 | 27 | 1012.5 |
| 20260506210904 | 66 | 159 | 4.3 | 13.9 | 0.00 | 0.00 | 0.00 | 28 | 1012.5 |
| 20260506210825 | 66 | 160 | 3.5 | 12.2 | 0.00 | 0.00 | 0.00 | 27 | 1012.5 |
| 20260506210704 | 66 | 163 | 3.5 | 12.2 | 0.00 | 0.00 | 0.00 | 27 | 1012.5 |
| 20260506210604 | 66 | 164 | 2.6 | 12.2 | 0.00 | 0.00 | 0.00 | 27 | 1012.4 |
| 20260506210504 | 66 | 161 | 2.6 | 12.2 | 0.00 | 0.00 | 0.00 | 25 | 1012.4 |
| 20260506210404 | 66 | 159 | 2.6 | 13.0 | 0.00 | 0.00 | 0.00 | 25 | 1012.3 |
| 20260506210304 | 66 | 159 | 1.7 | 13.0 | 0.00 | 0.00 | 0.00 | 25 | 1012.3 |
| 20260506210204 | 66 | 157 | 1.7 | 13.0 | 0.00 | 0.00 | 0.00 | 25 | 1012.4 |
| 20260506210104 | 66 | 157 | 1.7 | 13.0 | 0.00 | 0.00 | 0.00 | 24 | 1012.4 |
| 20260506210004 | 66 | 158 | 1.7 | 13.0 | 0.00 | 0.00 | 0.00 | 23 | 1012.4 |
| 20260506205904 | 66 | 159 | 1.7 | 13.0 | 0.00 | 0.00 | 0.00 | 25 | 1012.4 |
| 20260506205804 | 66 | 156 | 1.7 | 13.0 | 0.00 | 0.00 | 0.00 | 26 | 1012.5 |
| 20260506205704 | 66 | 155 | 1.7 | 13.0 | 0.00 | 0.00 | 0.00 | 26 | 1012.5 |
| 20260506205604 | 66 | 153 | 1.7 | 13.0 | 0.00 | 0.00 | 0.00 | 26 | 1012.5 |
| 20260506205504 | 66 | 156 | 1.7 | 13.0 | 0.00 | 0.00 | 0.00 | 26 | 1012.6 |
| 20260506205404 | 66 | 160 | 0.9 | 7.8 | 0.00 | 0.00 | 0.00 | 24 | 1012.5 |
| 20260506205306 | 66 | 161 | 1.7 | 7.8 | 0.00 | 0.00 | 0.00 | 24 | 1012.6 |
| 20260506205204 | 66 | 161 | 1.7 | 7.8 | 0.00 | 0.00 | 0.00 | 24 | 1012.6 |
| 20260506205125 | 66 | 161 | 1.7 | 7.8 | 0.00 | 0.00 | 0.00 | 24 | 1012.6 |
| 20260506205004 | 66 | 166 | 1.7 | 7.8 | 0.00 | 0.00 | 0.00 | 25 | 1012.7 |
| 20260506204904 | 66 | 166 | 1.7 | 13.0 | 0.00 | 0.00 | 0.00 | 25 | 1012.7 |
| 20260506204804 | 66 | 165 | 1.7 | 13.0 | 0.00 | 0.00 | 0.00 | 26 | 1012.7 |
| 20260506204704 | 66 | 165 | 2.6 | 13.0 | 0.00 | 0.00 | 0.00 | 26 | 1012.6 |
| 20260506204604 | 66 | 165 | 2.6 | 13.0 | 0.00 | 0.00 | 0.00 | 27 | 1012.6 |
| 20260506204504 | 66 | 167 | 3.5 | 13.0 | 0.00 | 0.00 | 0.00 | 28 | 1012.6 |
| 20260506204404 | 66 | 168 | 4.3 | 13.0 | 0.00 | 0.00 | 0.00 | 27 | 1012.7 |
| 20260506204304 | 66 | 168 | 5.2 | 13.0 | 0.00 | 0.00 | 0.00 | 26 | 1012.6 |
| 20260506204204 | 66 | 168 | 5.2 | 13.0 | 0.00 | 0.00 | 0.00 | 26 | 1012.5 |
| 20260506204104 | 66 | 167 | 6.1 | 13.0 | 0.00 | 0.00 | 0.00 | 27 | 1012.5 |
| 20260506204004 | 66 | 165 | 6.1 | 13.0 | 0.00 | 0.00 | 0.00 | 27 | 1012.5 |
| 20260506203904 | 66 | 164 | 6.1 | 14.8 | 0.00 | 0.00 | 0.00 | 27 | 1012.6 |
| 20260506203804 | 67 | 163 | 7.0 | 14.8 | 0.00 | 0.00 | 0.00 | 27 | 1012.5 |
| 20260506203725 | 67 | 163 | 7.0 | 14.8 | 0.00 | 0.00 | 0.00 | 27 | 1012.5 |
| 20260506203604 | 67 | 163 | 7.0 | 14.8 | 0.00 | 0.00 | 0.00 | 28 | 1012.5 |
| 20260506203504 | 67 | 163 | 6.1 | 14.8 | 0.00 | 0.00 | 0.00 | 28 | 1012.5 |
| 20260506203404 | 67 | 161 | 6.1 | 14.8 | 0.00 | 0.00 | 0.00 | 27 | 1012.5 |
| 20260506203304 | 67 | 159 | 5.2 | 14.8 | 0.00 | 0.00 | 0.00 | 25 | 1012.5 |
| 20260506203204 | 68 | 160 | 5.2 | 14.8 | 0.00 | 0.00 | 0.00 | 25 | 1012.5 |
| 20260506203104 | 68 | 159 | 5.2 | 14.8 | 0.00 | 0.00 | 0.00 | 23 | 1012.5 |
| 20260506203004 | 68 | 159 | 6.1 | 14.8 | 0.00 | 0.00 | 0.00 | 23 | 1012.4 |
| 20260506202904 | 68 | 159 | 6.1 | 13.0 | 0.00 | 0.00 | 0.00 | 23 | 1012.4 |
| 20260506202804 | 68 | 160 | 7.0 | 13.0 | 0.00 | 0.00 | 0.00 | 22 | 1012.4 |
| 20260506202704 | 68 | 162 | 7.0 | 13.0 | 0.00 | 0.00 | 0.00 | 23 | 1012.4 |
| 20260506202604 | 68 | 161 | 6.1 | 13.0 | 0.00 | 0.00 | 0.00 | 23 | 1012.4 |
| 20260506202504 | 68 | 160 | 7.0 | 13.0 | 0.00 | 0.00 | 0.00 | 21 | 1012.3 |
| 20260506202404 | 68 | 162 | 7.0 | 13.0 | 0.00 | 0.00 | 0.00 | 22 | 1012.4 |
| 20260506202306 | 68 | 162 | 7.0 | 13.0 | 0.00 | 0.00 | 0.00 | 23 | 1012.4 |
| 20260506202204 | 68 | 161 | 7.0 | 13.0 | 0.00 | 0.00 | 0.00 | 21 | 1012.4 |
| 20260506202104 | 68 | 162 | 7.0 | 12.2 | 0.00 | 0.00 | 0.00 | 22 | 1012.3 |
| 20260506202025 | 68 | 163 | 7.8 | 12.2 | 0.00 | 0.00 | 0.00 | 22 | 1012.3 |
| 20260506201904 | 68 | 165 | 7.0 | 13.9 | 0.00 | 0.00 | 0.00 | 23 | 1012.3 |
| 20260506201804 | 68 | 166 | 7.0 | 13.9 | 0.00 | 0.00 | 0.00 | 23 | 1012.3 |
| 20260506201704 | 68 | 165 | 6.1 | 13.9 | 0.00 | 0.00 | 0.00 | 21 | 1012.2 |
| 20260506201604 | 68 | 165 | 6.1 | 13.9 | 0.00 | 0.00 | 0.00 | 22 | 1012.2 |
| 20260506201503 | 68 | 167 | 5.2 | 13.9 | 0.00 | 0.00 | 0.00 | 21 | 1012.2 |
| 20260506201404 | 68 | 165 | 5.2 | 13.9 | 0.00 | 0.00 | 0.00 | 22 | 1012.1 |
| 20260506201304 | 68 | 168 | 5.2 | 13.9 | 0.00 | 0.00 | 0.00 | 22 | 1012.1 |
| 20260506201225 | 68 | 169 | 4.3 | 13.9 | 0.00 | 0.00 | 0.00 | 22 | 1012.2 |
| 20260506201125 | 68 | 167 | 4.3 | 13.9 | 0.00 | 0.00 | 0.00 | 22 | 1012.1 |
| 20260506201006 | 68 | 164 | 4.3 | 13.0 | 0.00 | 0.00 | 0.00 | 20 | 1012.2 |
| 20260506200905 | 68 | 164 | 4.3 | 12.2 | 0.00 | 0.00 | 0.00 | 19 | 1012.2 |
| 20260506200804 | 68 | 163 | 5.2 | 13.0 | 0.00 | 0.00 | 0.00 | 20 | 1012.2 |
| 20260506200704 | 68 | 164 | 5.2 | 14.8 | 0.00 | 0.00 | 0.00 | 20 | 1012.2 |
| 20260506200604 | 68 | 165 | 6.1 | 14.8 | 0.00 | 0.00 | 0.00 | 17 | 1012.2 |
| 20260506200504 | 69 | 165 | 6.1 | 14.8 | 0.00 | 0.00 | 0.00 | 17 | 1012.1 |
| 20260506200404 | 69 | 166 | 5.2 | 14.8 | 0.00 | 0.00 | 0.00 | 17 | 1012.1 |
| 20260506200304 | 68 | 163 | 5.2 | 14.8 | 0.00 | 0.00 | 0.00 | 17 | 1012.1 |
| 20260506200204 | 68 | 164 | 5.2 | 14.8 | 0.00 | 0.00 | 0.00 | 19 | 1012.1 |
| 20260506200104 | 68 | 166 | 4.3 | 14.8 | 0.00 | 0.00 | 0.00 | 20 | 1012.0 |
| 20260506200004 | 69 | 167 | 3.5 | 14.8 | 0.00 | 0.00 | 0.00 | 22 | 1012.0 |
| 20260506195904 | 69 | 166 | 2.6 | 14.8 | 0.00 | 0.00 | 0.00 | 22 | 1012.0 |
| 20260506195804 | 69 | 169 | 1.7 | 14.8 | 0.00 | 0.00 | 0.00 | 23 | 1012.0 |
| 20260506195704 | 69 | 170 | 1.7 | 13.0 | 0.00 | 0.00 | 0.00 | 23 | 1012.0 |
| 20260506195604 | 69 | 167 | 0.9 | 13.0 | 0.00 | 0.00 | 0.00 | 23 | 1012.0 |
| 20260506195504 | 69 | 168 | 0.9 | 13.0 | 0.00 | 0.00 | 0.00 | 23 | 1012.0 |
| 20260506195404 | 69 | 175 | 1.7 | 13.0 | 0.00 | 0.00 | 0.00 | 24 | 1012.0 |
| 20260506195306 | 69 | 175 | 1.7 | 13.0 | 0.00 | 0.00 | 0.00 | 23 | 1012.0 |
| 20260506195204 | 69 | 172 | 2.6 | 13.9 | 0.00 | 0.00 | 0.00 | 24 | 1012.0 |
| 20260506195104 | 69 | 169 | 2.6 | 14.8 | 0.00 | 0.00 | 0.00 | 24 | 1012.0 |
| 20260506195003 | 70 | 168 | 2.6 | 14.8 | 0.00 | 0.00 | 0.00 | 24 | 1012.0 |
| 20260506194904 | 70 | 170 | 2.6 | 14.8 | 0.00 | 0.00 | 0.00 | 24 | 1012.0 |
| 20260506194804 | 70 | 169 | 3.5 | 14.8 | 0.00 | 0.00 | 0.00 | 24 | 1012.1 |
| 20260506194704 | 70 | 172 | 3.5 | 14.8 | 0.00 | 0.00 | 0.00 | 25 | 1012.0 |
| 20260506194604 | 70 | 176 | 4.3 | 14.8 | 0.00 | 0.00 | 0.00 | 25 | 1012.0 |
| 20260506194504 | 70 | 175 | 4.3 | 15.6 | 0.00 | 0.00 | 0.00 | 25 | 1012.0 |
| 20260506194404 | 70 | 173 | 4.3 | 15.6 | 0.00 | 0.00 | 0.00 | 26 | 1011.9 |
| 20260506194325 | 70 | 175 | 5.2 | 15.6 | 0.00 | 0.00 | 0.00 | 26 | 1012.0 |
| 20260506194204 | 70 | 177 | 4.3 | 15.6 | 0.00 | 0.00 | 0.00 | 28 | 1011.9 |
| 20260506194104 | 70 | 177 | 5.2 | 15.6 | 0.00 | 0.00 | 0.00 | 28 | 1011.9 |
| 20260506194025 | 70 | 176 | 5.2 | 15.6 | 0.00 | 0.00 | 0.00 | 28 | 1012.0 |
| 20260506193904 | 71 | 174 | 6.1 | 15.6 | 0.00 | 0.00 | 0.00 | 28 | 1012.0 |
| 20260506193825 | 71 | 175 | 6.1 | 15.6 | 0.00 | 0.00 | 0.00 | 27 | 1011.9 |
| 20260506193725 | 71 | 175 | 6.1 | 15.6 | 0.00 | 0.00 | 0.00 | 28 | 1011.9 |
| 20260506193625 | 71 | 176 | 6.1 | 15.6 | 0.00 | 0.00 | 0.00 | 27 | 1011.9 |
| 20260506193504 | 71 | 175 | 6.1 | 13.9 | 0.00 | 0.00 | 0.00 | 26 | 1011.8 |
| 20260506193425 | 71 | 175 | 6.1 | 13.9 | 0.00 | 0.00 | 0.00 | 27 | 1011.8 |
| 20260506193304 | 71 | 172 | 6.1 | 13.9 | 0.00 | 0.00 | 0.00 | 26 | 1011.8 |
| 20260506193204 | 71 | 169 | 6.1 | 13.9 | 0.00 | 0.00 | 0.00 | 28 | 1011.9 |
| 20260506193104 | 71 | 169 | 7.0 | 13.9 | 0.00 | 0.00 | 0.00 | 28 | 1011.9 |
| 20260506193025 | 71 | 168 | 7.0 | 13.9 | 0.00 | 0.00 | 0.00 | 27 | 1011.9 |
| 20260506192904 | 71 | 167 | 7.8 | 13.9 | 0.00 | 0.00 | 0.00 | 27 | 1011.8 |
| 20260506192825 | 72 | 166 | 7.8 | 13.9 | 0.00 | 0.00 | 0.00 | 27 | 1011.8 |
| 20260506192704 | 71 | 164 | 7.0 | 13.9 | 0.00 | 0.00 | 0.00 | 27 | 1011.9 |
| 20260506192604 | 71 | 162 | 7.0 | 13.9 | 0.00 | 0.00 | 0.00 | 26 | 1011.9 |
| 20260506192504 | 71 | 160 | 7.0 | 13.9 | 0.00 | 0.00 | 0.00 | 28 | 1011.9 |
| 20260506192404 | 71 | 158 | 6.1 | 13.9 | 0.00 | 0.00 | 0.00 | 28 | 1011.9 |
| 20260506192305 | 71 | 158 | 5.2 | 13.9 | 0.00 | 0.00 | 0.00 | 27 | 1011.9 |
| 20260506192204 | 72 | 159 | 5.2 | 13.9 | 0.00 | 0.00 | 0.00 | 28 | 1011.9 |
| 20260506192125 | 72 | 158 | 3.5 | 13.9 | 0.00 | 0.00 | 0.00 | 29 | 1011.9 |
| 20260506192004 | 72 | 159 | 3.5 | 13.9 | 0.00 | 0.00 | 0.00 | 29 | 1011.9 |
| 20260506191925 | 72 | 161 | 2.6 | 13.0 | 0.00 | 0.00 | 0.00 | 28 | 1011.8 |
| 20260506191804 | 72 | 159 | 1.7 | 12.2 | 0.00 | 0.00 | 0.00 | 26 | 1011.9 |
| 20260506191725 | 72 | 159 | 2.6 | 9.6 | 0.00 | 0.00 | 0.00 | 26 | 1011.9 |
| 20260506191604 | 72 | 158 | 2.6 | 9.6 | 0.00 | 0.00 | 0.00 | 27 | 1011.9 |
| 20260506191504 | 72 | 159 | 1.7 | 9.6 | 0.00 | 0.00 | 0.00 | 27 | 1012.0 |
| 20260506191404 | 72 | 164 | 1.7 | 9.6 | 0.00 | 0.00 | 0.00 | 27 | 1012.1 |
| 20260506191304 | 73 | 163 | 1.7 | 9.6 | 0.00 | 0.00 | 0.00 | 26 | 1012.1 |
| 20260506191204 | 73 | 161 | 1.7 | 9.6 | 0.00 | 0.00 | 0.00 | 27 | 1012.1 |
| 20260506191104 | 73 | 161 | 1.7 | 9.6 | 0.00 | 0.00 | 0.00 | 28 | 1012.1 |
| 20260506191025 | 73 | 161 | 0.9 | 9.6 | 0.00 | 0.00 | 0.00 | 27 | 1012.1 |
| 20260506190925 | 73 | 161 | 0.9 | 9.6 | 0.00 | 0.00 | 0.00 | 28 | 1012.1 |
| 20260506190804 | 74 | 157 | 0.9 | 8.7 | 0.00 | 0.00 | 0.00 | 28 | 1012.0 |
| 20260506190704 | 74 | 155 | 0.9 | 8.7 | 0.00 | 0.00 | 0.00 | 27 | 1012.0 |
| 20260506190604 | 74 | 158 | 0.9 | 7.0 | 0.00 | 0.00 | 0.00 | 25 | 1012.0 |
| 20260506190525 | 74 | 158 | 0.9 | 7.0 | 0.00 | 0.00 | 0.00 | 25 | 1012.0 |
| 20260506190404 | 74 | 158 | 0.9 | 7.0 | 0.00 | 0.00 | 0.00 | 25 | 1011.9 |
| 20260506190304 | 74 | 158 | 0.0 | 7.0 | 0.00 | 0.00 | 0.00 | 24 | 1011.9 |
| 20260506190225 | 74 | 166 | 0.0 | 6.1 | 0.00 | 0.00 | 0.00 | 24 | 1011.9 |
| 20260506190104 | 74 | 163 | 0.0 | 6.1 | 0.00 | 0.00 | 0.00 | 23 | 1011.9 |
| 20260506190004 | 74 | 164 | 0.9 | 6.1 | 0.00 | 0.00 | 0.00 | 24 | 1011.9 |
| 20260506185904 | 74 | 167 | 0.9 | 6.1 | 0.00 | 0.00 | 0.00 | 24 | 1011.9 |
| 20260506185804 | 74 | 171 | 0.9 | 6.1 | 0.00 | 0.00 | 0.00 | 24 | 1011.9 |
| 20260506185704 | 74 | 171 | 0.9 | 6.1 | 0.00 | 0.00 | 0.00 | 23 | 1011.9 |
| 20260506185604 | 74 | 173 | 0.0 | 4.3 | 0.00 | 0.00 | 0.00 | 25 | 1011.9 |
| 20260506185504 | 74 | 174 | 0.0 | 4.3 | 0.00 | 0.00 | 0.00 | 22 | 1011.9 |
| 20260506185403 | 74 | 176 | 0.0 | 4.3 | 0.00 | 0.00 | 0.00 | 23 | 1011.9 |
| 20260506185306 | 74 | 175 | 0.0 | 4.3 | 0.00 | 0.00 | 0.00 | 24 | 1011.9 |
| 20260506185204 | 74 | 175 | 0.0 | 4.3 | 0.00 | 0.00 | 0.00 | 23 | 1011.8 |
| 20260506185104 | 74 | 181 | 0.0 | 3.5 | 0.00 | 0.00 | 0.00 | 24 | 1011.8 |
| 20260506185003 | 74 | 179 | 0.0 | 3.5 | 0.00 | 0.00 | 0.00 | 25 | 1011.8 |
| 20260506184904 | 74 | 179 | 0.0 | 3.5 | 0.00 | 0.00 | 0.00 | 25 | 1011.7 |
| 20260506184804 | 74 | 173 | 0.0 | 3.5 | 0.00 | 0.00 | 0.00 | 24 | 1011.7 |
| 20260506184704 | 74 | 180 | 0.0 | 3.5 | 0.00 | 0.00 | 0.00 | 22 | 1011.7 |
| 20260506184625 | 74 | 177 | 0.0 | 2.6 | 0.00 | 0.00 | 0.00 | 21 | 1011.7 |
| 20260506184504 | 74 | 177 | 0.0 | 2.6 | 0.00 | 0.00 | 0.00 | 21 | 1011.6 |
| 20260506184404 | 74 | 177 | 0.0 | 2.6 | 0.00 | 0.00 | 0.00 | 20 | 1011.7 |
| 20260506184304 | 74 | 172 | 0.0 | 2.6 | 0.00 | 0.00 | 0.00 | 20 | 1011.7 |
| 20260506184204 | 74 | 164 | 0.0 | 5.2 | 0.00 | 0.00 | 0.00 | 18 | 1011.7 |
| 20260506184103 | 74 | 164 | 0.0 | 5.2 | 0.00 | 0.00 | 0.00 | 19 | 1011.7 |
| 20260506184004 | 74 | 164 | 0.0 | 5.2 | 0.00 | 0.00 | 0.00 | 18 | 1011.7 |
| 20260506183925 | 74 | 164 | 0.0 | 5.2 | 0.00 | 0.00 | 0.00 | 17 | 1011.7 |
| 20260506183804 | 74 | 160 | 0.0 | 5.2 | 0.00 | 0.00 | 0.00 | 18 | 1011.7 |
| 20260506183704 | 74 | 155 | 0.0 | 5.2 | 0.00 | 0.00 | 0.00 | 16 | 1011.7 |
| 20260506183604 | 73 | 154 | 0.0 | 5.2 | 0.00 | 0.00 | 0.00 | 16 | 1011.7 |
| 20260506183504 | 73 | 154 | 0.0 | 5.2 | 0.00 | 0.00 | 0.00 | 15 | 1011.7 |
| 20260506183404 | 73 | 154 | 0.0 | 5.2 | 0.00 | 0.00 | 0.00 | 17 | 1011.7 |
| 20260506183304 | 73 | 155 | 0.0 | 5.2 | 0.00 | 0.00 | 0.00 | 16 | 1011.8 |
| 20260506183204 | 73 | 143 | 0.0 | 0.9 | 0.00 | 0.00 | 0.00 | 12 | 1011.8 |
| 20260506183104 | 73 | 143 | 0.0 | 0.9 | 0.00 | 0.00 | 0.00 | 13 | 1011.9 |
| 20260506183004 | 73 | 143 | 0.0 | 0.9 | 0.00 | 0.00 | 0.00 | 9 | 1011.8 |
| 20260506182925 | 72 | 143 | 0.0 | 0.9 | 0.00 | 0.00 | 0.00 | 12 | 1011.8 |
| 20260506182804 | 72 | 143 | 0.0 | 0.9 | 0.00 | 0.00 | 0.00 | 15 | 1011.9 |
| 20260506182704 | 72 | 143 | 0.0 | 0.9 | 0.00 | 0.00 | 0.00 | 15 | 1011.9 |
| 20260506182604 | 72 | 143 | 0.0 | 0.9 | 0.00 | 0.00 | 0.00 | 12 | 1011.9 |
| 20260506182504 | 72 | 143 | 0.0 | 0.9 | 0.00 | 0.00 | 0.00 | 13 | 1011.9 |
| 20260506182404 | 72 | 145 | 0.0 | 0.9 | 0.00 | 0.00 | 0.00 | 13 | 1011.8 |
| 20260506182306 | 72 | 145 | 0.0 | 0.9 | 0.00 | 0.00 | 0.00 | 14 | 1011.8 |
| 20260506182204 | 72 | 146 | 0.0 | 0.9 | 0.00 | 0.00 | 0.00 | 14 | 1011.9 |
| 20260506182104 | 72 | 146 | 0.0 | 0.9 | 0.00 | 0.00 | 0.00 | 12 | 1011.9 |
| 20260506182004 | 72 | 169 | 0.0 | 0.9 | 0.00 | 0.00 | 0.00 | 15 | 1011.8 |
| 20260506181904 | 72 | 169 | 0.0 | 0.9 | 0.00 | 0.00 | 0.00 | 14 | 1011.8 |
| 20260506181804 | 72 | 169 | 0.0 | 0.9 | 0.00 | 0.00 | 0.00 | 12 | 1011.8 |
| 20260506181704 | 72 | 169 | 0.0 | 0.9 | 0.00 | 0.00 | 0.00 | 15 | 1011.8 |
| 20260506181604 | 71 | 169 | 0.0 | 0.9 | 0.00 | 0.00 | 0.00 | 14 | 1011.8 |
| 20260506181525 | 71 | 169 | 0.0 | 0.9 | 0.00 | 0.00 | 0.00 | 15 | 1011.8 |
| 20260506181404 | 71 | 198 | 0.0 | 2.6 | 0.00 | 0.00 | 0.00 | 16 | 1011.8 |
| 20260506181304 | 71 | 198 | 0.0 | 2.6 | 0.00 | 0.00 | 0.00 | 16 | 1011.7 |
| 20260506181204 | 71 | 198 | 0.0 | 2.6 | 0.00 | 0.00 | 0.00 | 16 | 1011.7 |
| 20260506181104 | 71 | 198 | 0.0 | 2.6 | 0.00 | 0.00 | 0.00 | 18 | 1011.7 |
| 20260506181004 | 72 | 203 | 0.0 | 2.6 | 0.00 | 0.00 | 0.00 | 16 | 1011.7 |
| 20260506180925 | 72 | 203 | 0.0 | 2.6 | 0.00 | 0.00 | 0.00 | 12 | 1011.7 |
| 20260506180804 | 71 | 203 | 0.0 | 2.6 | 0.00 | 0.00 | 0.00 | 13 | 1011.7 |
| 20260506180704 | 71 | 203 | 0.0 | 2.6 | 0.00 | 0.00 | 0.00 | 13 | 1011.6 |
| 20260506180604 | 71 | 220 | 0.0 | 7.0 | 0.00 | 0.00 | 0.00 | 12 | 1011.6 |
| 20260506180504 | 71 | 222 | 0.9 | 7.0 | 0.00 | 0.00 | 0.00 | 9 | 1011.6 |
| 20260506180404 | 71 | 215 | 1.7 | 7.0 | 0.00 | 0.00 | 0.00 | 9 | 1011.6 |
| 20260506180304 | 71 | 211 | 1.7 | 7.8 | 0.00 | 0.00 | 0.00 | 7 | 1011.6 |
| 20260506180204 | 70 | 207 | 1.7 | 7.8 | 0.00 | 0.00 | 0.00 | 11 | 1011.6 |
| 20260506180104 | 70 | 209 | 2.6 | 7.8 | 0.00 | 0.00 | 0.00 | 13 | 1011.6 |
| 20260506180005 | 71 | 206 | 2.6 | 7.8 | 0.00 | 0.00 | 0.00 | 12 | 1011.7 |
| 20260506175904 | 71 | 206 | 3.5 | 7.8 | 0.00 | 0.00 | 0.00 | 11 | 1011.6 |
| 20260506175804 | 71 | 208 | 3.5 | 7.8 | 0.00 | 0.00 | 0.00 | 8 | 1011.6 |
| 20260506175725 | 70 | 209 | 3.5 | 7.8 | 0.00 | 0.00 | 0.00 | 12 | 1011.5 |
| 20260506175625 | 71 | 209 | 3.5 | 7.8 | 0.00 | 0.00 | 0.00 | 12 | 1011.5 |
| 20260506175504 | 70 | 210 | 3.5 | 7.8 | 0.00 | 0.00 | 0.00 | 11 | 1011.5 |
| 20260506175425 | 70 | 214 | 3.5 | 7.8 | 0.00 | 0.00 | 0.00 | 11 | 1011.5 |
| 20260506175306 | 70 | 218 | 3.5 | 7.0 | 0.00 | 0.00 | 0.00 | 10 | 1011.4 |
| 20260506175204 | 70 | 220 | 2.6 | 7.0 | 0.00 | 0.00 | 0.00 | 11 | 1011.5 |
| 20260506175104 | 70 | 220 | 2.6 | 7.0 | 0.00 | 0.00 | 0.00 | 6 | 1011.4 |
| 20260506175024 | 70 | 217 | 2.6 | 9.6 | 0.00 | 0.00 | 0.00 | 6 | 1011.5 |
| 20260506174904 | 70 | 219 | 2.6 | 9.6 | 0.00 | 0.00 | 0.00 | 7 | 1011.4 |
| 20260506174804 | 70 | 218 | 1.7 | 9.6 | 0.00 | 0.00 | 0.00 | 7 | 1011.5 |
| 20260506174704 | 70 | 217 | 1.7 | 9.6 | 0.00 | 0.00 | 0.00 | 7 | 1011.6 |
| 20260506174625 | 70 | 220 | 1.7 | 9.6 | 0.00 | 0.00 | 0.00 | 7 | 1011.6 |
| 20260506174525 | 70 | 217 | 0.9 | 9.6 | 0.00 | 0.00 | 0.00 | 6 | 1011.6 |
| 20260506174404 | 70 | 190 | 0.9 | 9.6 | 0.00 | 0.00 | 0.00 | 5 | 1011.6 |
| 20260506174304 | 69 | 188 | 0.9 | 9.6 | 0.00 | 0.00 | 0.00 | 7 | 1011.6 |
| 20260506174204 | 69 | 188 | 0.9 | 9.6 | 0.00 | 0.00 | 0.00 | 3 | 1011.6 |
| 20260506174104 | 69 | 186 | 0.0 | 9.6 | 0.00 | 0.00 | 0.00 | 5 | 1011.6 |
| 20260506174004 | 69 | 194 | 0.0 | 1.7 | 0.00 | 0.00 | 0.00 | 4 | 1011.6 |
| 20260506173904 | 69 | 189 | 0.0 | 1.7 | 0.00 | 0.00 | 0.00 | 1 | 1011.6 |
| 20260506173804 | 69 | 178 | 0.0 | 0.9 | 0.00 | 0.00 | 0.00 | 1 | 1011.7 |
| 20260506173704 | 69 | 204 | 0.0 | 1.7 | 0.00 | 0.00 | 0.00 | 1 | 1011.7 |
| 20260506173604 | 69 | 206 | 0.0 | 1.7 | 0.00 | 0.00 | 0.00 | 1 | 1011.8 |
| 20260506173525 | 68 | 207 | 0.0 | 1.7 | 0.00 | 0.00 | 0.00 | 1 | 1011.7 |
| 20260506173404 | 68 | 207 | 0.0 | 1.7 | 0.00 | 0.00 | 0.00 | 1 | 1011.7 |
| 20260506173304 | 68 | 205 | 0.0 | 1.7 | 0.00 | 0.00 | 0.00 | 1 | 1011.7 |
| 20260506173204 | 68 | 212 | 0.0 | 9.6 | 0.00 | 0.00 | 0.00 | 1 | 1011.7 |
| 20260506173104 | 68 | 175 | 0.9 | 9.6 | 0.00 | 0.00 | 0.00 | 1 | 1011.7 |
| 20260506173004 | 68 | 167 | 0.9 | 9.6 | 0.00 | 0.00 | 0.00 | 1 | 1011.7 |
| 20260506172904 | 68 | 169 | 0.9 | 9.6 | 0.00 | 0.00 | 0.00 | 1 | 1011.8 |
| 20260506172803 | 68 | 169 | 0.9 | 9.6 | 0.00 | 0.00 | 0.00 | 1 | 1011.8 |
| 20260506172704 | 68 | 167 | 0.9 | 9.6 | 0.00 | 0.00 | 0.00 | 1 | 1011.8 |
| 20260506172604 | 68 | 171 | 1.7 | 9.6 | 0.00 | 0.00 | 0.00 | 1 | 1011.8 |
| 20260506172504 | 68 | 186 | 1.7 | 9.6 | 0.00 | 0.00 | 0.00 | 1 | 1011.8 |
| 20260506172425 | 68 | 191 | 2.6 | 9.6 | 0.00 | 0.00 | 0.00 | 1 | 1011.9 |
| 20260506172306 | 68 | 199 | 3.5 | 9.6 | 0.00 | 0.00 | 0.00 | 1 | 1011.8 |
| 20260506172204 | 68 | 202 | 3.5 | 9.6 | 0.00 | 0.00 | 0.00 | 1 | 1011.8 |
| 20260506172104 | 68 | 208 | 3.5 | 9.6 | 0.00 | 0.00 | 0.00 | 1 | 1011.8 |
| 20260506172004 | 68 | 215 | 2.6 | 9.6 | 0.00 | 0.00 | 0.00 | 1 | 1011.7 |
| 20260506171904 | 67 | 215 | 3.5 | 9.6 | 0.00 | 0.00 | 0.00 | 1 | 1011.8 |
| 20260506171804 | 67 | 209 | 4.3 | 9.6 | 0.00 | 0.00 | 0.00 | 1 | 1011.8 |
| 20260506171725 | 67 | 206 | 4.3 | 9.6 | 0.00 | 0.00 | 0.00 | 1 | 1011.8 |
| 20260506171604 | 67 | 209 | 5.2 | 9.6 | 0.00 | 0.00 | 0.00 | 1 | 1011.9 |
| 20260506171504 | 67 | 214 | 5.2 | 9.6 | 0.00 | 0.00 | 0.00 | 1 | 1011.9 |
| 20260506171404 | 66 | 218 | 4.3 | 9.6 | 0.00 | 0.00 | 0.00 | 1 | 1011.9 |
| 20260506171325 | 66 | 219 | 4.3 | 9.6 | 0.00 | 0.00 | 0.00 | 1 | 1011.8 |
| 20260506171204 | 66 | 219 | 4.3 | 11.3 | 0.00 | 0.00 | 0.00 | 1 | 1011.8 |
| 20260506171104 | 66 | 217 | 5.2 | 11.3 | 0.00 | 0.00 | 0.00 | 1 | 1011.7 |
| 20260506171004 | 66 | 220 | 5.2 | 11.3 | 0.00 | 0.00 | 0.00 | 1 | 1011.8 |
| 20260506170904 | 66 | 223 | 5.2 | 11.3 | 0.00 | 0.00 | 0.00 | 1 | 1011.8 |
| 20260506170803 | 66 | 226 | 5.2 | 11.3 | 0.00 | 0.00 | 0.00 | 1 | 1011.8 |
| 20260506170704 | 66 | 224 | 5.2 | 11.3 | 0.00 | 0.00 | 0.00 | 1 | 1011.8 |
| 20260506170625 | 66 | 221 | 6.1 | 11.3 | 0.00 | 0.00 | 0.00 | 1 | 1011.9 |
| 20260506170525 | 66 | 215 | 6.1 | 11.3 | 0.00 | 0.00 | 0.00 | 1 | 1011.9 |
| 20260506170425 | 66 | 205 | 6.1 | 11.3 | 0.00 | 0.00 | 0.00 | 1 | 1011.9 |
| 20260506170303 | 66 | 200 | 6.1 | 11.3 | 0.00 | 0.00 | 0.00 | 1 | 1011.9 |
| 20260506170204 | 66 | 199 | 6.1 | 13.0 | 0.00 | 0.00 | 0.00 | 1 | 1012.0 |
| 20260506170104 | 66 | 197 | 6.1 | 13.0 | 0.00 | 0.00 | 0.00 | 1 | 1012.1 |
| 20260506170004 | 65 | 195 | 7.0 | 13.0 | 0.00 | 0.00 | 0.00 | 1 | 1012.2 |
| 20260506165904 | 65 | 195 | 7.0 | 13.0 | 0.00 | 0.00 | 0.00 | 1 | 1012.3 |
| 20260506165804 | 65 | 196 | 7.0 | 13.0 | 0.00 | 0.00 | 0.00 | 1 | 1012.3 |
| 20260506165704 | 65 | 199 | 7.0 | 13.0 | 0.00 | 0.00 | 0.00 | 1 | 1012.2 |
| 20260506165604 | 65 | 202 | 7.0 | 13.0 | 0.00 | 0.00 | 0.00 | 1 | 1012.2 |
| 20260506165504 | 65 | 203 | 6.1 | 13.0 | 0.00 | 0.00 | 0.00 | 1 | 1012.2 |
| 20260506165404 | 65 | 205 | 6.1 | 13.0 | 0.00 | 0.00 | 0.00 | 1 | 1012.2 |
| 20260506165305 | 65 | 209 | 6.1 | 13.0 | 0.00 | 0.00 | 0.00 | 1 | 1012.2 |
| 20260506165204 | 65 | 210 | 6.1 | 12.2 | 0.00 | 0.00 | 0.00 | 1 | 1012.2 |
| 20260506165125 | 65 | 210 | 6.1 | 12.2 | 0.00 | 0.00 | 0.00 | 1 | 1012.4 |
| 20260506165003 | 65 | 211 | 5.2 | 11.3 | 0.00 | 0.00 | 0.00 | 1 | 1012.5 |
| 20260506164903 | 64 | 209 | 5.2 | 11.3 | 0.00 | 0.00 | 0.00 | 1 | 1012.5 |
| 20260506164825 | 64 | 211 | 5.2 | 11.3 | 0.00 | 0.00 | 0.00 | 1 | 1012.5 |
| 20260506164704 | 64 | 212 | 5.2 | 11.3 | 0.00 | 0.00 | 0.00 | 1 | 1012.5 |
| 20260506164625 | 64 | 212 | 4.3 | 11.3 | 0.00 | 0.00 | 0.00 | 1 | 1012.5 |
| 20260506164504 | 64 | 214 | 4.3 | 11.3 | 0.00 | 0.00 | 0.00 | 1 | 1012.5 |
| 20260506164404 | 64 | 216 | 3.5 | 11.3 | 0.00 | 0.00 | 0.00 | 1 | 1012.5 |
| 20260506164304 | 64 | 211 | 3.5 | 11.3 | 0.00 | 0.00 | 0.00 | 1 | 1012.5 |
| 20260506164204 | 64 | 208 | 4.3 | 11.3 | 0.00 | 0.00 | 0.00 | 1 | 1012.6 |
| 20260506164104 | 63 | 207 | 4.3 | 11.3 | 0.00 | 0.00 | 0.00 | 1 | 1012.7 |
| 20260506164004 | 63 | 202 | 4.3 | 11.3 | 0.00 | 0.00 | 0.00 | 1 | 1012.8 |
| 20260506163903 | 63 | 199 | 4.3 | 11.3 | 0.00 | 0.00 | 0.00 | 1 | 1012.8 |
| 20260506163804 | 63 | 192 | 3.5 | 11.3 | 0.00 | 0.00 | 0.00 | 1 | 1013.0 |
| 20260506163703 | 63 | 185 | 4.3 | 10.4 | 0.00 | 0.00 | 0.00 | 1 | 1013.0 |
| 20260506163604 | 63 | 183 | 4.3 | 10.4 | 0.00 | 0.00 | 0.00 | 1 | 1013.0 |
| 20260506163504 | 63 | 184 | 5.2 | 10.4 | 0.00 | 0.00 | 0.00 | 1 | 1013.0 |
| 20260506163404 | 62 | 187 | 5.2 | 12.2 | 0.00 | 0.00 | 0.00 | 1 | 1013.1 |
| 20260506163304 | 62 | 187 | 6.1 | 12.2 | 0.00 | 0.00 | 0.00 | 1 | 1013.1 |
| 20260506163204 | 62 | 187 | 5.2 | 12.2 | 0.00 | 0.00 | 0.00 | 1 | 1013.1 |
| 20260506163104 | 62 | 187 | 5.2 | 12.2 | 0.00 | 0.00 | 0.00 | 1 | 1013.1 |
| 20260506163004 | 62 | 185 | 5.2 | 12.2 | 0.00 | 0.00 | 0.00 | 1 | 1013.1 |
| 20260506162904 | 62 | 186 | 6.1 | 12.2 | 0.00 | 0.00 | 0.00 | 1 | 1013.2 |
| 20260506162804 | 62 | 187 | 6.1 | 12.2 | 0.00 | 0.00 | 0.00 | 1 | 1013.2 |
| 20260506162703 | 62 | 185 | 6.1 | 12.2 | 0.00 | 0.00 | 0.00 | 1 | 1013.2 |
| 20260506162604 | 62 | 187 | 6.1 | 16.5 | 0.00 | 0.00 | 0.00 | 1 | 1013.2 |
| 20260506162504 | 63 | 186 | 6.1 | 16.5 | 0.00 | 0.00 | 0.00 | 1 | 1013.3 |
| 20260506162425 | 63 | 186 | 7.0 | 16.5 | 0.00 | 0.00 | 0.00 | 1 | 1013.2 |
| 20260506162306 | 63 | 184 | 7.0 | 16.5 | 0.00 | 0.00 | 0.00 | 1 | 1013.2 |
| 20260506162225 | 63 | 184 | 7.0 | 16.5 | 0.00 | 0.00 | 0.00 | 1 | 1013.2 |
| 20260506162125 | 63 | 183 | 7.8 | 16.5 | 0.00 | 0.00 | 0.00 | 1 | 1013.1 |
| 20260506162025 | 63 | 181 | 7.8 | 16.5 | 0.00 | 0.00 | 0.00 | 1 | 1013.2 |
| 20260506161904 | 63 | 182 | 8.7 | 16.5 | 0.00 | 0.00 | 0.00 | 1 | 1013.2 |
| 20260506161803 | 63 | 182 | 8.7 | 16.5 | 0.00 | 0.00 | 0.00 | 1 | 1013.4 |
| 20260506161704 | 63 | 185 | 8.7 | 16.5 | 0.00 | 0.00 | 0.00 | 1 | 1013.6 |
| 20260506161603 | 63 | 187 | 8.7 | 19.1 | 0.00 | 0.00 | 0.00 | 1 | 1013.6 |
| 20260506161504 | 63 | 186 | 8.7 | 19.1 | 0.00 | 0.00 | 0.00 | 1 | 1013.7 |
| 20260506161404 | 63 | 183 | 9.6 | 19.1 | 0.00 | 0.00 | 0.00 | 1 | 1013.8 |
| 20260506161325 | 63 | 182 | 9.6 | 19.1 | 0.00 | 0.00 | 0.00 | 1 | 1013.8 |
| 20260506161204 | 63 | 180 | 8.7 | 19.1 | 0.00 | 0.00 | 0.00 | 1 | 1013.8 |
| 20260506161104 | 64 | 180 | 8.7 | 19.1 | 0.00 | 0.00 | 0.00 | 1 | 1013.8 |
| 20260506161025 | 64 | 180 | 9.6 | 19.1 | 0.00 | 0.00 | 0.00 | 1 | 1013.6 |
| 20260506160903 | 64 | 177 | 9.6 | 19.1 | 0.00 | 0.00 | 0.00 | 1 | 1013.6 |
| 20260506160825 | 64 | 176 | 9.6 | 19.1 | 0.00 | 0.00 | 0.00 | 1 | 1013.5 |
| 20260506160704 | 64 | 173 | 9.6 | 19.1 | 0.00 | 0.00 | 0.00 | 1 | 1013.5 |
| 20260506160604 | 64 | 169 | 8.7 | 17.4 | 0.00 | 0.00 | 0.00 | 1 | 1013.5 |
| 20260506160504 | 64 | 169 | 8.7 | 17.4 | 0.00 | 0.00 | 0.00 | 1 | 1013.5 |
| 20260506160404 | 64 | 170 | 8.7 | 17.4 | 0.00 | 0.00 | 0.00 | 1 | 1013.4 |
| 20260506160304 | 64 | 172 | 8.7 | 20.9 | 0.00 | 0.00 | 0.00 | 1 | 1013.4 |
| 20260506160225 | 64 | 172 | 9.6 | 20.9 | 0.00 | 0.00 | 0.00 | 1 | 1013.4 |
| 20260506160104 | 64 | 171 | 9.6 | 20.9 | 0.00 | 0.00 | 0.00 | 1 | 1013.3 |
| 20260506160004 | 64 | 172 | 8.7 | 20.9 | 0.00 | 0.00 | 0.00 | 1 | 1013.5 |
| 20260506155903 | 65 | 174 | 8.7 | 20.9 | 0.00 | 0.00 | 0.00 | 1 | 1013.5 |
| 20260506155804 | 65 | 174 | 8.7 | 20.9 | 0.00 | 0.00 | 0.00 | 1 | 1013.6 |
| 20260506155703 | 65 | 175 | 8.7 | 20.9 | 0.00 | 0.00 | 0.00 | 1 | 1013.5 |
| 20260506155604 | 65 | 175 | 8.7 | 20.9 | 0.00 | 0.00 | 0.00 | 1 | 1013.6 |
| 20260506155504 | 65 | 174 | 8.7 | 20.9 | 0.00 | 0.00 | 0.00 | 1 | 1013.5 |
| 20260506155425 | 65 | 175 | 8.7 | 20.9 | 0.00 | 0.00 | 0.00 | 1 | 1013.5 |
| 20260506155306 | 65 | 172 | 7.8 | 19.1 | 0.00 | 0.00 | 0.00 | 1 | 1013.4 |
| 20260506155203 | 65 | 173 | 8.7 | 19.1 | 0.00 | 0.00 | 0.00 | 1 | 1013.3 |
| 20260506155104 | 65 | 174 | 8.7 | 19.1 | 0.00 | 0.00 | 0.00 | 1 | 1013.2 |
| 20260506155025 | 65 | 173 | 8.7 | 19.1 | 0.00 | 0.00 | 0.00 | 1 | 1013.1 |
| 20260506154904 | 65 | 172 | 9.6 | 20.0 | 0.00 | 0.00 | 0.00 | 1 | 1013.1 |
| 20260506154804 | 66 | 171 | 9.6 | 20.0 | 0.00 | 0.00 | 0.00 | 1 | 1013.1 |
| 20260506154704 | 66 | 172 | 10.4 | 20.0 | 0.00 | 0.00 | 0.00 | 1 | 1013.0 |
| 20260506154604 | 66 | 171 | 10.4 | 20.0 | 0.00 | 0.00 | 0.00 | 1 | 1013.0 |
| 20260506154504 | 66 | 172 | 10.4 | 20.0 | 0.00 | 0.00 | 0.00 | 1 | 1013.1 |
| 20260506154404 | 66 | 171 | 10.4 | 20.0 | 0.00 | 0.00 | 0.00 | 1 | 1013.1 |
| 20260506154304 | 66 | 171 | 11.3 | 20.0 | 0.00 | 0.00 | 0.00 | 1 | 1013.0 |
| 20260506154203 | 66 | 172 | 10.4 | 20.0 | 0.00 | 0.00 | 0.00 | 1 | 1013.0 |
| 20260506154104 | 66 | 171 | 10.4 | 20.0 | 0.00 | 0.00 | 0.00 | 1 | 1013.1 |
| 20260506154004 | 66 | 171 | 9.6 | 20.0 | 0.00 | 0.00 | 0.00 | 1 | 1013.1 |
| 20260506153904 | 67 | 172 | 9.6 | 19.1 | 0.00 | 0.00 | 0.00 | 1 | 1013.1 |
| 20260506153804 | 67 | 172 | 8.7 | 18.2 | 0.00 | 0.00 | 0.00 | 1 | 1013.1 |
| 20260506153704 | 67 | 174 | 8.7 | 16.5 | 0.00 | 0.00 | 0.00 | 1 | 1013.0 |
| 20260506153604 | 67 | 177 | 7.8 | 16.5 | 0.00 | 0.00 | 0.00 | 1 | 1012.9 |
| 20260506153504 | 67 | 177 | 7.8 | 16.5 | 0.00 | 0.00 | 0.00 | 1 | 1012.8 |
| 20260506153404 | 67 | 180 | 7.8 | 16.5 | 0.00 | 0.00 | 0.00 | 1 | 1012.6 |
| 20260506153325 | 67 | 182 | 7.0 | 16.5 | 0.00 | 0.00 | 0.00 | 1 | 1012.6 |
| 20260506153204 | 68 | 180 | 7.0 | 13.9 | 0.00 | 0.00 | 0.00 | 1 | 1012.5 |
| 20260506153104 | 68 | 182 | 7.0 | 13.9 | 0.00 | 0.00 | 0.00 | 1 | 1012.5 |
| 20260506153004 | 68 | 184 | 7.8 | 13.9 | 0.00 | 0.00 | 0.00 | 1 | 1012.4 |
| 20260506152904 | 68 | 184 | 7.0 | 13.9 | 0.00 | 0.00 | 0.00 | 1 | 1012.4 |
| 20260506152804 | 68 | 184 | 7.0 | 13.9 | 0.00 | 0.00 | 0.00 | 1 | 1012.3 |
| 20260506152704 | 68 | 182 | 7.0 | 16.5 | 0.00 | 0.00 | 0.00 | 1 | 1012.3 |
| 20260506152603 | 68 | 182 | 7.0 | 16.5 | 0.00 | 0.00 | 0.00 | 1 | 1012.3 |
| 20260506152503 | 68 | 181 | 7.0 | 16.5 | 0.00 | 0.00 | 0.00 | 1 | 1012.2 |
| 20260506152404 | 69 | 179 | 7.8 | 16.5 | 0.00 | 0.00 | 0.00 | 1 | 1012.2 |
| 20260506152325 | 69 | 178 | 7.8 | 16.5 | 0.00 | 0.00 | 0.00 | 1 | 1012.1 |
| 20260506152203 | 69 | 179 | 7.8 | 16.5 | 0.00 | 0.00 | 0.00 | 1 | 1012.1 |
| 20260506152103 | 70 | 178 | 7.8 | 16.5 | 0.00 | 0.00 | 0.00 | 1 | 1012.0 |
| 20260506152003 | 70 | 176 | 7.8 | 16.5 | 0.00 | 0.00 | 0.00 | 1 | 1012.1 |
| 20260506151925 | 70 | 176 | 7.0 | 16.5 | 0.00 | 0.00 | 0.00 | 1 | 1012.0 |
| 20260506151803 | 71 | 175 | 6.1 | 16.5 | 0.00 | 0.00 | 0.00 | 1 | 1012.0 |
| 20260506151703 | 71 | 174 | 6.1 | 15.6 | 0.00 | 0.00 | 0.00 | 1 | 1012.0 |
| 20260506151604 | 72 | 170 | 5.2 | 12.2 | 0.00 | 0.00 | 0.00 | 3 | 1012.0 |
| 20260506151503 | 73 | 168 | 4.3 | 12.2 | 0.00 | 0.00 | 0.00 | 7 | 1011.9 |
| 20260506151404 | 74 | 165 | 3.5 | 12.2 | 0.00 | 0.00 | 0.00 | 11 | 1011.9 |
| 20260506151304 | 75 | 164 | 2.6 | 12.2 | 0.00 | 0.00 | 0.00 | 1 | 1011.9 |
| 20260506151204 | 76 | 159 | 2.6 | 12.2 | 0.00 | 0.00 | 0.00 | 1 | 1011.9 |
| 20260506151104 | 78 | 149 | 1.7 | 11.3 | 0.00 | 0.00 | 0.00 | 1 | 1011.8 |
| 20260506151003 | 79 | 116 | 0.9 | 5.2 | 0.00 | 0.00 | 0.00 | 1 | 1011.7 |
| 20260506150904 | 79 | 115 | 0.9 | 5.2 | 0.00 | 0.00 | 0.00 | 1 | 1011.6 |
| 20260506150825 | 79 | 108 | 0.9 | 4.3 | 0.00 | 0.00 | 0.00 | 1 | 1011.4 |
| 20260506150704 | 79 | 105 | 0.9 | 3.5 | 0.00 | 0.00 | 0.00 | 1 | 1011.3 |
| 20260506150604 | 79 | 104 | 0.9 | 3.5 | 0.00 | 0.00 | 0.00 | 1 | 1011.3 |
| 20260506150504 | 79 | 101 | 0.0 | 2.6 | 0.00 | 0.00 | 0.00 | 1 | 1011.3 |
| 20260506150404 | 79 | 101 | 0.0 | 2.6 | 0.00 | 0.00 | 0.00 | 1 | 1011.3 |
| 20260506150305 | 79 | 101 | 0.0 | 2.6 | 0.00 | 0.00 | 0.00 | 1 | 1011.3 |
| 20260506150204 | 79 | 100 | 0.0 | 2.6 | 0.00 | 0.00 | 0.00 | 1 | 1011.2 |
| 20260506150104 | 79 | 100 | 0.0 | 2.6 | 0.00 | 0.00 | 0.00 | 1 | 1011.1 |
| 20260506150004 | 79 | 98 | 0.0 | 0.9 | 0.00 | 0.00 | 0.00 | 1 | 1011.1 |
| 20260506145904 | 79 | 0 | 0.0 | 0.0 | 0.00 | 0.00 | 0.00 | 1 | 1011.0 |
| 20260506145804 | 79 | 0 | 0.0 | 0.0 | 0.00 | 0.00 | 0.00 | 1 | 1011.1 |
| 20260506145704 | 79 | 295 | 0.0 | 1.7 | 0.00 | 0.00 | 0.00 | 1 | 1011.0 |
| 20260506145604 | 79 | 292 | 0.0 | 5.2 | 0.00 | 0.00 | 0.00 | 1 | 1011.0 |
| 20260506145504 | 79 | 286 | 0.9 | 5.2 | 0.00 | 0.00 | 0.00 | 1 | 1011.0 |
| 20260506145404 | 79 | 286 | 0.9 | 5.2 | 0.00 | 0.00 | 0.00 | 1 | 1011.0 |
| 20260506145305 | 79 | 286 | 0.9 | 5.2 | 0.00 | 0.00 | 0.00 | 1 | 1010.9 |
| 20260506145204 | 79 | 286 | 0.9 | 5.2 | 0.00 | 0.00 | 0.00 | 1 | 1010.9 |
| 20260506145104 | 79 | 286 | 0.9 | 5.2 | 0.00 | 0.00 | 0.00 | 1 | 1010.7 |
| 20260506145003 | 79 | 286 | 0.9 | 5.2 | 0.00 | 0.00 | 0.00 | 1 | 1010.8 |
| 20260506144904 | 79 | 286 | 0.9 | 5.2 | 0.00 | 0.00 | 0.00 | 1 | 1010.7 |
| 20260506144825 | 79 | 286 | 0.9 | 5.2 | 0.00 | 0.00 | 0.00 | 1 | 1010.7 |
| 20260506144725 | 79 | 286 | 0.9 | 5.2 | 0.00 | 0.00 | 0.00 | 1 | 1010.8 |
| 20260506144604 | 79 | 277 | 0.9 | 4.3 | 0.00 | 0.00 | 0.00 | 1 | 1010.8 |
| 20260506144504 | 79 | 271 | 0.9 | 3.5 | 0.00 | 0.00 | 0.00 | 1 | 1010.7 |
| 20260506144404 | 79 | 269 | 0.9 | 3.5 | 0.00 | 0.00 | 0.00 | 1 | 1010.7 |
| 20260506144325 | 79 | 269 | 0.9 | 3.5 | 0.00 | 0.00 | 0.00 | 1 | 1010.6 |
| 20260506144224 | 79 | 268 | 0.9 | 3.5 | 0.00 | 0.00 | 0.00 | 1 | 1010.6 |
| 20260506144104 | 79 | 267 | 0.9 | 3.5 | 0.00 | 0.00 | 0.00 | 1 | 1010.6 |
| 20260506144004 | 79 | 267 | 1.7 | 3.5 | 0.00 | 0.00 | 0.00 | 1 | 1010.6 |
| 20260506143925 | 79 | 266 | 1.7 | 4.3 | 0.00 | 0.00 | 0.00 | 1 | 1010.6 |
| 20260506143804 | 79 | 265 | 1.7 | 5.2 | 0.00 | 0.00 | 0.00 | 1 | 1010.5 |
| 20260506143704 | 79 | 264 | 2.6 | 6.1 | 0.00 | 0.00 | 0.00 | 1 | 1010.5 |
| 20260506143603 | 79 | 264 | 2.6 | 6.1 | 0.00 | 0.00 | 0.00 | 1 | 1010.5 |
| 20260506143504 | 79 | 263 | 2.6 | 6.1 | 0.00 | 0.00 | 0.00 | 1 | 1010.4 |
| 20260506143404 | 79 | 263 | 2.6 | 6.1 | 0.00 | 0.00 | 0.00 | 1 | 1010.4 |
| 20260506143304 | 79 | 261 | 2.6 | 6.1 | 0.00 | 0.00 | 0.00 | 1 | 1010.4 |
| 20260506143204 | 79 | 260 | 2.6 | 6.1 | 0.00 | 0.00 | 0.00 | 1 | 1010.4 |
| 20260506143104 | 79 | 259 | 2.6 | 6.1 | 0.00 | 0.00 | 0.00 | 1 | 1010.4 |
| 20260506143004 | 79 | 258 | 2.6 | 6.1 | 0.00 | 0.00 | 0.00 | 1 | 1010.4 |